     2.11           OBSERVATION DATA    G (GPS)             RINEX VERSION / TYPE
teqc 2010Oct21 OPUS Account 20111026 19:09:34UTC            PGM / RUN BY / DATE
Q 1522                                                      MARKER NAME
1170                                                        MARKER NUMBER
DBPROUTY NGS                                                OBSERVER / AGENCY
4624K01634 TRIMBLE NETR5 NP 70.55 / SP 451.54               REC # / TYPE / VERS
12668881 TRM41249.00 NONE                                   ANT # / TYPE
  -738054.2959 -5496299.3075  3140267.6520                  APPROX POSITION XYZ
        2.0000        0.0000        0.0000                  ANTENNA: DELTA H/E/N
     1     1                                                WAVELENGTH FACT L1/2
     5    L1    L2    C1    P1    P2                        # / TYPES OF OBSERV
    30.0000                                                 INTERVAL
  2011     8     5    20     8   30.0000000     GPS         TIME OF FIRST OBS
                                                            END OF HEADER
 11  8  5 20  8 30.0000000  0  8G24G08G28G17G11G07G26G19
    441592.23847    376455.12245  21971492.9774                   21971495.1174
    400150.57348    367288.86946  20043170.4774                   20043170.7074
    387476.54448    358696.74245  21812966.1414                   21812965.5864
    324067.979 7    310675.566 7  22087807.305
    492755.60847    409831.10045  21661153.1254                   21661153.5904
    539510.231 8    436942.768 7  20720208.406
    409176.66347    375093.31444  22806073.4924                   22806075.5944
    621344.56046    481531.44743  24936982.0784                   24936982.5944
 11  8  5 20  9  0.0000000  0  8G24G08G28G17G11G07G26G19
    419104.90847    358932.52645  21967213.8364                   21967215.5274
    385662.67648    355999.59146  20040413.4384                   20040413.4344
    364023.69448    340421.79745  21808502.7974                   21808502.7734
    253842.097 7    255954.145 7  22074443.594
    520258.96047    431262.26845  21666386.8914                   21666386.8634
    586274.451 8    473382.389 7  20729107.102
    387942.88547    358547.50844  22802032.2664                   22802035.1214
    727665.37145    564378.72043  24957214.2894                   24957214.2034
 11  8  5 20  9 30.0000000  0  8G24G08G28G17G11G07G26G19
    397128.81447    341808.28045  21963031.7344                   21963034.0984
    371673.10248    345098.61146  20037751.4144                   20037751.5634
    340602.90547    322171.81545  21804046.1094                   21804045.9774
    183946.184 7    201489.855 7  22061143.016
    548326.37047    453132.95645  21671727.3984                   21671728.2734
    633510.600 8    510189.747 7  20738096.008
    367308.48847    342468.73644  22798105.9534                   22798108.3204
    833968.06345    647211.80243  24977441.8054                   24977443.5554
 11  8  5 20 10  0.0000000  0  8G24G08G28G17G11G07G26G19
    375674.97447    325091.01345  21958949.3754                   21958951.3714
    358193.36148    334594.91246  20035186.3524                   20035186.5594
    317223.33947    303953.98545  21799596.9694                   21799597.1054
    114390.696 7    147290.800 7  22047906.867
    576966.79448    475450.15145  21677178.1564                   21677178.2304
    681227.818 8    547371.963 7  20747176.180
    347283.29247    326864.70044  22794295.3204                   22794297.3874
    940259.72045    730036.29943  24997668.8834                   24997670.2584
 11  8  5 20 10 30.0000000  0  8G24G08G28G17G11G07G26G19
    354747.15747    308783.63745  21954966.8984                   21954968.8914
    345227.26148    324491.45046  20032719.1024                   20032719.4774
    293886.95248    285769.77146  21795156.4064                   21795156.2464
     45178.337 7     93359.157 7  22034736.227
    606181.34047    498214.70845  21682737.4694                   21682737.2194
    729427.764 8    584930.327 7  20756348.820
    327869.57747    311737.11644  22790600.7274                   22790603.1724
   1046540.84545    812852.58343  25017894.3984                   25017895.2734
 11  8  5 20 11  0.0000000  0  8G24G08G28G17G11G07G26G19
    334343.82947    292884.94045  21951084.2274                   21951086.0514
    332773.16348    314786.94846  20030348.9384                   20030349.0704
    270590.50048    267616.70645  21790723.5084                   21790723.6174
    -23693.373 7     39692.949 7  22021630.578
    635966.06948    521423.57745  21688405.2344                   21688404.9614
    778106.678 8    622861.900 7  20765611.891
    309064.22947    297083.58244  22787022.7424                   22787025.0554
   1152806.23446    895656.61443  25038115.9774                   25038117.1994
 11  8  5 20 11 30.0000000  0  8G24G08G28G17G11G07G26G19
    314466.36747    277396.02245  21947301.7664                   21947303.7544
    320832.93648    305482.86446  20028076.6174                   20028077.2704
    247333.75948    249494.56546  21786297.5634                   21786297.3524
    -92223.147 7    -13706.845 7  22008589.797
    666320.26248    545076.17845  21694181.6024                   21694181.0594
    827264.176 8    661166.410 7  20774965.969
    290867.40947    282904.24144  22783559.9384                   22783562.3524
   1259053.54745    978446.58243  25058334.2114                   25058335.1764
 11  8  5 20 12  0.0000000  0  8G24G08G28G17G11G07G26G19
    295120.12247    262321.02545  21943620.1334                   21943622.0784
    309411.87748    296583.32746  20025903.2504                   20025903.9184
    224120.34548    231406.17745  21781880.3754                   21781880.1844
   -160406.400 7    -66836.624 7  21995614.453
    697247.19448    569175.06645  21700066.6644                   21700066.8324
    876903.624 8    699846.460 7  20784412.195
    273283.13347    269202.22244  22780213.3834                   22780216.2034
   1365284.89846   1061224.12443  25078550.1254                   25078550.3874
 11  8  5 20 12 30.0000000  0  8G24G08G28G17G11G07G26G19
    276305.80848    247660.51245  21940040.3284                   21940042.1524
    298510.96548    288089.09946  20023828.8984                   20023829.1174
    200949.71048    213351.11346  21777471.0234                   21777470.6564
   -228243.204 7   -119696.419 7  21982705.398
    728745.26248    593718.99845  21706060.1484                   21706060.1414
    927023.627 8    738900.985 7  20793949.813
    256310.85047    255977.08444  22776984.5554                   22776986.6294
   1471497.63646   1143987.12743  25098761.3754                   25098762.2304
 11  8  5 20 13  0.0000000  0  7G07G24G08G11G26G28G17
   -135371.421 8   -102494.159 7  20803577.594
   -206165.34348   -154570.20645  21936560.0084                   21936562.2114
   -194997.19148   -144579.24846  20021852.7974                   20021852.9534
   -151058.95747   -114248.82245  21712161.9454                   21712161.9494
   -192061.63547   -143672.03044  22773869.1954                   22773871.9384
   -210797.87348   -157939.84146  21773068.6094                   21773068.5204
   -295738.916 7   -172290.425 7  21969861.852
 11  8  5 20 13 30.0000000  0  7G07G24G08G11G26G28G17
    -84297.584 8    -62696.394 7  20813296.094
   -223917.23648   -168402.84245  21933182.0784                   21933184.2194
   -204858.68348   -152263.54346  20019976.1334                   20019976.7854
   -118427.60347    -88821.80445  21718370.9924                   21718371.5944
   -207815.74647   -155947.95544  22770871.3364                   22770873.6804
   -233889.57948   -175933.36545  21768674.4144                   21768674.4884
   -362886.177 7   -224612.917 7  21957083.625
 11  8  5 20 14  0.0000000  0  7G07G24G08G11G26G28G17
    -32747.130 8    -22527.246 7  20823106.102
   -241135.49948   -181819.66145  21929905.8674                   21929907.7344
   -214197.55148   -159540.59146  20018199.1254                   20018199.9734
    -85230.43547    -62953.91945  21724688.4694                   21724688.5204
   -222960.22047   -167748.86044  22767989.3674                   22767992.1524
   -256941.81248   -193896.14445  21764287.8204                   21764287.7074
   -429687.180 7   -276665.596 7  21944372.047
 11  8  5 20 14 30.0000000  0  7G07G24G08G11G26G28G17
     19281.913 8     18014.835 7  20833007.266
   -257815.95647   -194817.41345  21926731.5084                   21926733.4924
   -223009.38848   -166406.97646  20016522.1484                   20016522.9694
    -51465.66548    -36643.74145  21731113.5394                   21731114.0744
   -237492.55247   -179072.74444  22765223.8754                   22765227.1094
   -279951.63448   -211825.87046  21759908.9694                   21759909.1374
   -496138.352 7   -328445.680 7  21931726.742
 11  8  5 20 15  0.0000000  0  7G07G24G08G11G26G28G17
     71785.599 8     58926.764 7  20842998.406
   -273960.45647   -207397.55245  21923659.5634                   21923661.0704
   -231296.18648   -172864.23646  20014945.3914                   20014946.1134
    -17137.62947     -9894.64945  21737646.2274                   21737646.3404
   -251415.97447   -189922.18644  22762574.4534                   22762576.7464
   -302922.24247   -229725.04546  21755537.9224                   21755538.3754
   -562242.238 7   -379955.163 7  21919147.570
 11  8  5 20 15 30.0000000  0  7G07G24G08G11G26G28G17
    124763.908 8    100208.540 7  20853079.531
   -289566.91148   -219558.40345  21920689.1724                   21920691.4344
   -239055.34048   -178910.34146  20013469.0864                   20013469.3674
     17753.80447     17293.45445  21744285.6954                   21744285.6334
   -264729.87747   -200296.69744  22760041.6024                   22760043.3554
   -325853.28348   -247593.38746  21751174.5474                   21751174.5664
   -627997.335 7   -431192.852 7  21906634.859
 11  8  5 20 16  0.0000000  0  7G07G24G08G11G26G28G17
    178218.927 8    141861.761 7  20863252.031
   -304631.40048   -231296.96645  21917822.7814                   21917824.6484
   -246282.90648   -184542.22946  20012093.3134                   20012093.8284
     53209.53147     44921.24545  21751032.6484                   21751032.9924
   -277431.61247   -210194.16444  22757623.8204                   22757625.2464
   -348742.28748   -265428.97845  21746818.5704                   21746818.5664
   -693400.504 7   -482156.324 7  21894189.063
 11  8  5 20 16 30.0000000  0  7G07G24G08G11G26G28G17
    232146.818 8    183883.471 7  20873513.758
   -319156.02947   -242614.85445  21915058.9844                   21915061.0704
   -252980.72848   -189761.31846  20010819.1174                   20010819.5204
     89225.52648     72985.63045  21757886.5704                   21757886.3874
   -289524.71347   -219617.35744  22755323.0084                   22755324.1764
   -371592.59848   -283234.42345  21742470.2344                   21742469.8014
   -758454.070 7   -532847.372 7  21881810.039
 11  8  5 20 17  0.0000000  0  7G07G24G08G11G26G28G17
    286547.343 8    226273.435 7  20883865.938
   -333138.86148   -253510.56545  21912397.8204                   21912399.9304
   -259146.62548   -194565.93046  20009645.3524                   20009646.1294
    125801.62747    101486.45245  21764846.5634                   21764846.2854
   -301008.72446   -228565.92944  22753137.3444                   22753138.9494
   -394403.44448   -301009.11745  21738129.4384                   21738129.5234
   -823157.003 7   -583265.207 7  21869497.094
 11  8  5 20 17 30.0000000  0  7G07G24G08G11G26G28G17
    341420.680 8    269031.850 7  20894307.852
   -346577.81748   -263982.46745  21909840.3914                   21909842.4804
   -264778.45348   -198954.38046  20008573.8834                   20008574.3524
    162937.61948    130423.56645  21771913.2584                   21771913.3754
   -311882.76447   -237039.22644  22751068.5394                   22751070.0234
   -417174.29548   -318752.64046  21733796.7734                   21733796.9344
   -887507.469 8   -633408.404 7  21857251.539
 11  8  5 20 18  0.0000000  0  7G07G24G08G11G26G28G17
    396767.188 8    312158.971 7  20904840.195
   -359470.63248   -274028.81245  21907387.1954                   21907388.8914
   -269873.53348   -202924.58346  20007604.7894                   20007604.7974
    200633.22948    159796.72945  21779086.6094                   21779086.6914
   -322146.24147   -245036.75744  22749114.9534                   22749116.3014
   -439903.84548   -336463.99646  21729471.2664                   21729471.3284
   -951503.636 7   -683275.509 7  21845073.414
 11  8  5 20 18 30.0000000  0  7G07G24G08G11G26G28G17
    452584.614 8    355653.030 7  20915461.969
   -371817.66948   -283649.87545  21905037.5704                   21905039.5634
   -274431.75548   -206476.46946  20006737.0944                   20006737.3874
    238885.82447    189603.90645  21786365.6564                   21786366.0274
   -331800.67247   -252559.71044  22747277.8284                   22747279.7544
   -462593.78948   -354144.49646  21725153.5004                   21725153.4264
  -1015146.740 7   -732867.503 7  21832962.531
 11  8  5 20 19  0.0000000  0  7G07G24G08G11G26G28G17
    508871.795 8    399513.169 7  20926173.148
   -383617.86448   -292844.82645  21902791.8674                   21902794.3524
   -278451.94248   -209609.09346  20005971.8524                   20005972.3914
    277694.26847    219844.20545  21793750.6174                   21793750.9844
   -340846.45347   -259608.40544  22745556.9384                   22745557.6644
   -485244.09048   -371794.07646  21720843.1484                   21720842.7504
  -1078436.160 7   -782183.911 7  21820918.867
 11  8  5 20 19 30.0000000  0  7G07G24G08G11G26G28G17
    565629.307 8    443739.765 7  20936973.914
   -394869.16047   -301612.07645  21900651.5004                   21900653.0084
   -281931.47048   -212320.43346  20005309.7034                   20005309.9804
    317058.35947    250517.48745  21801242.1094                   21801241.7624
   -349282.92747   -266182.29044  22743951.5084                   22743952.7854
   -507853.88948   -389412.11546  21716540.7584                   21716540.4144
  -1141369.962 7   -831223.208 7  21808943.242
 11  8  5 20 20  0.0000000  0  7G07G24G08G11G26G28G17
    622855.516 8    488331.577 7  20947863.742
   -405571.27947   -309951.39045  21898614.4774                   21898616.2114
   -284869.89648   -214610.12546  20004750.9064                   20004751.3794
    356976.13847    281622.23045  21808837.8284                   21808837.5354
   -357111.42047   -272282.43344  22742460.8364                   22742463.0314
   -530423.89948   -406999.15045  21712245.8914                   21712245.5554
  -1203948.719 7   -879985.840 7  21797034.531
 11  8  5 20 20 30.0000000  0  7G07G24G08G11G26G28G17
    680550.508 8    533288.685 7  20958842.430
   -415722.03847   -317861.06445  21896682.8054                   21896684.9654
   -287265.17448   -216476.59246  20004294.9694                   20004295.5124
    397447.45547    313158.27845  21816538.8914                   21816539.6334
   -364331.09447   -277908.18244  22741087.6254                   22741089.4224
   -552953.17348   -424554.42846  21707958.5474                   21707958.6024
  -1266170.605 8   -928470.404 7  21785194.563
 11  8  5 20 21  0.0000000  0  7G07G24G08G11G26G28G17
    738711.883 8    578609.199 7  20969910.398
   -425321.66947   -325341.30245  21894855.7894                   21894857.7504
   -289117.45248   -217919.94946  20003942.4694                   20003942.8444
    438469.23348    345123.27445  21824345.5084                   21824345.5434
   -370944.01847   -283061.14744  22739829.4774                   22739831.5434
   -575443.31248   -442079.22746  21703678.8914                   21703678.7344
  -1328036.720 7   -976677.734 7  21773421.422
 11  8  5 20 21 30.0000000  0  7G07G24G08G11G26G28G17
    797338.708 8    624292.410 7  20981066.648
   -434369.17647   -332391.31945  21893134.3524                   21893136.4064
   -290425.15348   -218938.94646  20003693.8444                   20003694.0784
    480040.47447    377516.40645  21832256.2344                   21832256.5274
   -376950.49147   -287741.54945  22738686.5634                   22738689.5164
   -597894.21948   -459573.47045  21699406.5164                   21699406.4494
  -1389546.455 8  -1024607.381 7  21761716.531
 11  8  5 20 22  0.0000000  0  7G07G24G08G11G26G28G17
    856432.300 8    670339.331 7  20992311.813
   -442861.66147   -339008.83845  21891517.9924                   21891520.3524
   -291184.81948   -219530.90646  20003549.0784                   20003549.6884
    522162.07048    410338.37445  21840271.9064                   21840271.8954
   -382348.69647   -291947.96144  22737659.4384                   22737662.2194
   -620303.58248   -477035.32046  21695142.5004                   21695142.2034
  -1450696.830 7  -1072256.957 7  21750080.016
 11  8  5 20 22 30.0000000  0  7G07G24G08G11G26G28G17
    915988.945 8    716747.058 7  21003645.102
   -450801.05647   -345195.39145  21890007.3834                   21890009.4064
   -291398.42848   -219697.37846  20003508.3054                   20003509.1994
    564829.66847    443585.81945  21848391.2274                   21848391.3094
   -387142.05647   -295683.07844  22736747.3984                   22736749.8834
   -642674.33648   -494467.09546  21690885.7894                   21690885.0664
  -1511490.417 7  -1119628.568 7  21738511.125
 11  8  5 20 23  0.0000000  0  7G07G24G08G11G26G28G17
    976009.497 8    763516.277 7  21015066.852
   -458184.16547   -350948.48845  21888602.5554                   21888604.3484
   -291062.38848   -219435.54846  20003572.5554                   20003573.1294
    608043.96247    477259.24045  21856614.3914                   21856614.8244
   -391329.19347   -298945.79244  22735950.6414                   22735953.1604
   -665004.33748   -511867.10346  21686636.2424                   21686636.1684
  -1571924.635 7  -1166720.115 7  21727011.102
 11  8  5 20 23 30.0000000  0  7G07G24G08G11G26G28G17
   1036493.264 8    810646.446 7  21026576.633
   -465010.12047   -356267.42445  21887303.5784                   21887305.3524
   -290175.23248   -218744.27546  20003741.2274                   20003741.7344
    651803.80647    511357.77645  21864942.2034                   21864942.1764
   -394910.43747   -301736.37544  22735269.2424                   22735271.9884
   -687293.61548   -529235.38446  21682394.6644                   21682394.2974
  -1631998.876 8  -1213531.193 7  21715579.453
 11  8  5 20 24  0.0000000  0  7G07G24G08G11G26G28G17
   1097437.501 8    858135.382 7  21038174.016
   -471279.93848   -361152.99845  21886110.4064                   21886112.3284
   -288737.94348   -217624.32746  20004014.7814                   20004015.3484
    696106.09148    545878.98845  21873372.4304                   21873372.2774
   -397888.25147   -304056.76244  22734702.3444                   22734705.3364
   -709544.10448   -546573.45146  21678160.6884                   21678160.3594
  -1691714.559 7  -1260062.859 7  21704215.633
 11  8  5 20 24 30.0000000  0  7G07G24G08G11G26G28G17
   1158843.513 8    905984.191 7  21049858.617
   -476990.11047   -365602.48545  21885023.5554                   21885025.7814
   -286746.98848   -216072.95146  20004393.7344                   20004394.1214
    740951.34548    580823.29445  21881906.4534                   21881906.4774
   -400260.90646   -305905.60244  22734250.5864                   22734253.4024
   -731753.14448   -563879.20945  21673934.5394                   21673934.4344
  -1751069.044 7  -1306313.070 7  21692920.539
 11  8  5 20 25  0.0000000  0  7G07G24G08G11G26G28G17
   1220710.306 8    954192.032 7  21061631.711
   -482139.63747   -369615.12045  21884044.0394                   21884045.8634
   -284201.02748   -214089.09946  20004878.2974                   20004878.5124
    786338.61648    616189.95345  21890543.2894                   21890543.5274
   -402028.83346   -307283.22844  22733913.9064                   22733916.8914
   -753920.58248   -581152.56146  21669716.2814                   21669715.9384
  -1810061.512 7  -1352281.190 7  21681694.625
 11  8  5 20 25 30.0000000  0  7G07G24G08G11G26G28G17
   1283034.221 8   1002756.084 7  21073491.688
   -486730.74647   -373192.61445  21883170.4694                   21883172.0354
   -281101.89548   -211674.21446  20005467.9224                   20005468.3874
    832263.41947    651975.47445  21899281.8834                   21899282.6134
   -403195.37847   -308192.26644  22733692.3284                   22733694.5044
   -776049.04148   -598395.53146  21665505.1954                   21665504.9614
  -1868694.373 7  -1397969.099 7  21670537.656
 11  8  5 20 26  0.0000000  0  7G07G24G08G11G26G28G17
   1345815.437 8   1051676.469 7  21085438.680
   -490761.28547   -376333.30545  21882403.5164                   21882405.3594
   -277447.01348   -208826.28046  20006163.2734                   20006163.8444
    878726.02648    688180.03445  21908123.9924                   21908124.4144
   -403760.14647   -308632.38144  22733585.1094                   22733586.6994
   -798137.18348   -615607.08846  21661302.0474                   21661301.5434
  -1926965.705 7  -1443375.313 7  21659448.656
 11  8  5 20 26 30.0000000  0  7G07G24G08G11G26G28G17
   1409053.785 8   1100953.060 7  21097472.961
   -494229.44247   -379035.77045  21881743.7504                   21881745.4264
   -273234.21448   -205543.59746  20006965.2424                   20006965.8594
    925725.87148    724803.24345  21917067.8754                   21917067.8524
   -403722.92547   -308603.41944  22733591.2034                   22733593.6414
   -820183.92248   -632786.35946  21657106.6334                   21657106.1884
  -1984874.293 7  -1488498.860 7  21648429.094
 11  8  5 20 27  0.0000000  0  7G07G24G08G11G26G28G17
   1472747.464 7   1150584.455 7  21109592.875
   -497135.56748   -381300.31045  21881190.8364                   21881192.5824
   -268463.74948   -201826.37846  20007872.6334                   20007873.6844
    973260.30747    761843.02045  21926113.9924                   21926113.5314
   -403085.23247   -308106.55844  22733713.4304                   22733715.0664
   -842190.14448   -649934.07645  21652918.7034                   21652918.4384
  -2042420.757 7  -1533340.230 7  21637478.531
 11  8  5 20 27 30.0000000  0  7G07G24G08G11G26G28G17
   1536895.898 8   1200570.213 7  21121800.148
   -499478.13248   -383125.70245  21880744.6884                   21880746.5744
   -263133.09148   -197672.64346  20008887.4694                   20008888.0824
   1021328.20247    799298.47445  21935260.3674                   21935261.2274
   -401846.97547   -307141.73144  22733949.7114                   22733950.8404
   -864154.90848   -667049.48045  21648739.2114                   21648738.9024
  -2099603.692 7  -1577898.337 7  21626596.898
 11  8  5 20 28  0.0000000  0  7G07G24G08G11G26G28G17
   1601497.358 7   1250908.965 7  21134093.719
   -501257.00748   -384511.83645  21880406.0474                   21880408.0274
   -257242.45548   -193082.55946  20010008.2974                   20010009.1804
   1069927.92547    837168.32845  21944508.3134                   21944509.4304
   -400009.56647   -305709.97544  22734298.8054                   22734299.8404
   -886078.75748   -684133.01946  21644567.4534                   21644566.8554
  -2156423.407 7  -1622173.418 7  21615784.438
 11  8  5 20 28 30.0000000  0  7G07G24G08G11G26G28G17
   1666551.225 7   1301600.239 7  21146472.664
   -502470.96647   -385457.80745  21880175.0394                   21880176.9694
   -250790.07948   -188054.75646  20011236.1414                   20011236.9494
   1119058.25448    875451.66845  21953857.9534                   21953858.0234
   -397573.39446   -303811.69944  22734762.5164                   22734763.8324
   -907960.94848   -701184.09246  21640402.9614                   21640402.8954
  -2212878.809 7  -1666164.616 7  21605041.359
 11  8  5 20 29  0.0000000  0  7G07G24G08G11G26G28G17
   1732056.466 7   1352643.243 7  21158938.117
   -503119.41947   -385963.11645  21880051.8204                   21880053.7894
   -243775.03047   -182588.50646  20012571.2194                   20012571.5354
   1168717.59547    914147.19045  21963307.8284                   21963308.5164
   -394539.28246   -301447.48344  22735339.9614                   22735341.7304
   -929801.70048   -718202.87946  21636246.5704                   21636246.8834
  -2268969.954 7  -1709871.981 7  21594367.586
 11  8  5 20 29 30.0000000  0  7G07G24G08G11G26G28G17
   1798010.509 7   1404035.964 7  21171488.477
   -503203.03347   -386028.28445  21880036.1484                   21880037.9184
   -236197.88548   -176684.25946  20014013.1564                   20014013.6644
   1218903.36947    953252.94445  21972858.2114                   21972858.0204
   -390909.70746   -298619.25244  22736030.6484                   22736032.4694
   -951601.80947   -735189.97746  21632098.6724                   21632098.4734
  -2324697.833 7  -1753296.267 7  21583762.531
 11  8  5 20 30  0.0000000  0  7G07G24G08G11G26G28G17
   1864413.912 7   1455778.824 7  21184124.961
   -502719.56648   -385651.57345  21880128.0784                   21880129.5394
   -228055.89348   -170339.87146  20015562.2664                   20015563.0944
   1269615.05147    992768.49645  21982507.9304                   21982508.7304
   -386683.51447   -295326.13744  22736834.7034                   22736837.4064
   -973359.21648   -752143.80846  21627958.4924                   21627957.8794
  -2380060.095 7  -1796435.674 7  21573227.789
 11  8  5 20 30 30.0000000  0  7G07G24G08G11G26G28G17
   1931265.244 7   1507870.736 7  21196846.500
   -501668.77247   -384832.79445  21880328.1094                   21880329.6024
   -219348.30948   -163554.75946  20017219.6254                   20017219.7894
   1320850.96447   1032692.54045  21992257.8444                   21992258.1684
   -381862.12347   -291569.21244  22737752.0394                   22737754.7854
   -995074.40047   -769064.73046  21623826.1334                   21623825.8484
  -2435056.902 7  -1839290.311 7  21562761.867
 11  8  5 20 31  0.0000000  0  7G07G24G08G11G26G28G17
   1998563.567 7   1560310.933 7  21209652.953
   -500049.93247   -383571.36545  21880635.9144                   21880637.6564
   -210074.23048   -156328.23146  20018984.4454                   20018985.0354
   1372609.79747   1073024.05045  22002107.6334                   22002107.4304
   -376446.16546   -287348.99344  22738782.4614                   22738785.3754
  -1016746.76447   -785952.28846  21619701.9614                   21619701.7584
  -2489687.677 7  -1881859.702 7  21552365.977
 11  8  5 20 31 30.0000000  0  7G07G24G08G11G26G28G17
   2066307.233 7   1613098.170 7  21222544.266
   -497862.55547   -381866.93045  21881052.3834                   21881054.3834
   -200233.09348   -148659.82346  20020856.9384                   20020856.7544
   1424889.84047   1113761.68345  22012056.0704                   22012056.4804
   -370436.79846   -282666.40044  22739925.6884                   22739928.1914
  -1038376.25848   -802806.44446  21615586.3204                   21615586.1454
  -2543951.929 7  -1924143.521 7  21542039.813
 11  8  5 20 32  0.0000000  0  7G07G24G08G11G26G28G17
   2134493.309 7   1666230.157 7  21235519.445
   -495107.94647   -379720.50245  21881576.5474                   21881578.4614
   -189825.34648   -140549.91346  20022837.4844                   20022838.0864
   1477687.40947   1154902.61645  22022102.7664                   22022103.1054
   -363836.71947   -277523.48144  22741181.6884                   22741184.5704
  -1059964.32748   -819628.31046  21611478.3594                   21611477.9414
  -2597851.290 7  -1966143.002 7  21531783.227
 11  8  5 20 32 30.0000000  0  7G07G24G08G11G26G28G17
   2203121.968 7   1719706.974 7  21248578.992
   -491784.09547   -377130.50745  21882208.9844                   21882211.0904
   -178849.24148   -131997.12146  20024926.2424                   20024926.3444
   1531002.23147   1196446.58045  22032248.4534                   22032248.6294
   -356645.75647   -271920.15344  22742550.4454                   22742553.2234
  -1081509.72947   -836416.93546  21607378.0234                   21607378.0554
  -2651384.721 7  -2007857.342 7  21521596.594
 11  8  5 20 33  0.0000000  0  7G07G24G08G11G26G28G17
   2272191.354 7   1773527.231 7  21261722.594
   -487891.24347   -374097.13345  21882949.7814                   21882951.6724
   -167304.49148   -123001.22646  20027123.1254                   20027123.7774
   1584831.87047   1238391.69945  22042491.8444                   22042492.5234
   -348865.37147   -265857.56844  22744030.5634                   22744034.2194
  -1103012.73548   -853172.53446  21603286.3594                   21603286.1334
  -2704551.944 7  -2049286.332 7  21511479.063
 11  8  5 20 33 30.0000000  0  7G07G24G08G11G26G28G17
   2341700.538 7   1827690.191 7  21274949.883
   -483428.77147   -370619.88045  21883799.1174                   21883801.1644
   -155189.73848   -113561.17946  20029428.5084                   20029429.0124
   1639175.02847   1280736.97545  22052833.2504                   22052833.4774
   -340496.50647   -259336.37844  22745623.5314                   22745626.3984
  -1124472.72348   -869894.60546  21599202.3984                   21599202.3284
  -2757352.765 7  -2090429.824 7  21501431.344
 11  8  5 20 34  0.0000000  0  7G07G24G08G11G26G28G17
   2411651.200 7   1882197.151 7  21288261.305
   -478393.17147   -366696.05245  21884757.6804                   21884759.3244
   -142501.03948   -103673.90446  20031842.8054                   20031843.5474
   1694033.09747   1323483.47145  22063272.8204                   22063272.7584
   -331536.99047   -252354.96344  22747328.4614                   22747331.3754
  -1145885.97848   -886580.25846  21595127.7894                   21595127.6764
  -2809783.652 7  -2131285.031 7  21491453.867
 11  8  5 20 34 30.0000000  0  7G07G24G08G11G26G28G17
   2482036.354 7   1937042.687 7  21301655.156
   -472789.48947   -362329.55245  21885823.6884                   21885825.7664
   -129243.42548    -93343.31846  20034365.8914                   20034366.2854
   1749398.74447   1366625.49044  22073808.4454                   22073808.6054
   -321993.30946   -244918.35744  22749145.4144                   22749146.7504
  -1167258.02247   -903233.79546  21591060.5314                   21591060.5664
  -2861849.747 7  -2171856.003 7  21481545.859
 11  8  5 20 35  0.0000000  0  7G07G24G08G11G26G28G17
   2552857.834 7   1992228.198 7  21315132.078
   -466614.41447   -357517.82345  21886998.4454                   21887000.2734
   -115413.21848    -82566.55446  20036997.9064                   20036998.8914
   1805273.12847   1410163.92745  22084440.4454                   22084441.2894
   -311864.14046   -237025.50244  22751071.8594                   22751075.4494
  -1188585.71047   -919852.77546  21587002.1564                   21587001.5594
  -2913548.098 7  -2212140.416 7  21471708.039
 11  8  5 20 35 30.0000000  0  7G07G24G08G11G26G28G17
   2624116.581 7   2047754.442 7  21328691.766
   -459865.79847   -352259.16345  21888282.6024                   21888285.0084
   -101007.77848    -71341.56246  20039739.1804                   20039739.6054
   1861656.27047   1454098.80844  22095170.0784                   22095170.4574
   -301148.33847   -228675.52944  22753111.1724                   22753113.6684
  -1209866.88948   -936435.51646  21582952.4844                   21582952.2934
  -2964876.713 8  -2252136.732 7  21461940.250
 11  8  5 20 36  0.0000000  0  7G07G24G08G11G26G28G17
   2695808.023 7   2103617.858 7  21342334.539
   -452545.81447   -346555.29545  21889675.9144                   21889677.4384
    -86028.77448    -59669.62246  20042589.7344                   20042590.2464
   1918543.92747   1498426.80645  22105995.6414                   22105995.5314
   -289849.78047   -219871.47644  22755261.6804                   22755263.7274
  -1231103.56048   -952983.57146  21578911.4454                   21578910.8914
  -3015837.384 7  -2291846.322 7  21452242.977
 11  8  5 20 36 30.0000000  0  7G07G24G08G11G26G28G17
   2767929.040 7   2159816.000 7  21356058.633
   -444656.16247   -340407.54445  21891177.3524                   21891178.6094
    -70478.00948    -47552.17446  20045548.7424                   20045549.0474
   1975932.33947   1543145.00545  22116915.9614                   22116916.7974
   -277971.83647   -210615.95244  22757521.7034                   22757523.9024
  -1252297.53648   -969498.36146  21574877.9144                   21574877.9144
  -3066432.145 7  -2331270.792 7  21442615.086
 11  8  5 20 37  0.0000000  0  7G07G24G08G11G26G28G17
   2840481.937 8   2216350.682 7  21369865.391
   -436192.84247   -333812.76345  21892787.5944                   21892789.4494
    -54351.09148    -34985.77146  20048617.5474                   20048618.2114
   2033823.02947   1588254.60345  22127932.5784                   22127933.0204
   -265512.17047   -200907.15444  22759892.3674                   22759894.9414
  -1273444.89048   -985976.81346  21570853.9614                   21570854.5864
  -3116657.363 8  -2370407.314 7  21433057.867
 11  8  5 20 37 30.0000000  0  7G07G24G08G11G26G28G17
   2913463.025 8   2273219.021 7  21383752.852
   -427157.90947   -326772.56945  21894506.6724                   21894508.6954
    -37649.72748    -21971.74246  20051795.7894                   20051796.0044
   2092212.20247   1633752.61145  22139043.6724                   22139043.8834
   -252474.04047   -190747.58344  22762373.7664                   22762376.4414
  -1294547.35348  -1002420.29546  21566838.2034                   21566838.5664
  -3166515.226 8  -2409257.573 7  21423570.172
 11  8  5 20 38  0.0000000  0  7G07G24G08G11G26G28G17
   2986872.392 8   2330421.063 7  21397722.672
   -417549.77347   -319285.72645  21896335.3754                   21896337.6604
    -20371.70148     -8508.36546  20055083.8284                   20055084.1564
   2151099.36847   1679638.68145  22150249.4304                   22150249.9024
   -238857.49946   -180137.30944  22764964.6884                   22764967.3954
  -1315603.51648  -1018827.70646  21562831.7894                   21562831.2704
  -3216004.062 7  -2447820.284 7  21414152.313
 11  8  5 20 38 30.0000000  0  7G07G24G08G11G26G28G17
   3060708.792 7   2387955.868 7  21411772.836
   -407367.92147   -311351.84545  21898273.1884                   21898275.2274
     -2515.84048      5405.25946  20058481.4224                   20058481.8834
   2210482.98847   1725911.58745  22161549.8134                   22161550.7934
   -224663.31947   -169076.92744  22767665.6724                   22767668.5664
  -1336612.22648  -1035198.13846  21558833.3134                   21558833.5274
  -3265123.410 8  -2486095.073 7  21404805.523
 11  8  5 20 39  0.0000000  0  7G07G24G08G11G26G28G17
   3134967.615 7   2445819.841 7  21425903.977
   -396615.33647   -302973.22645  21900319.1484                   21900321.3164
     15914.75448     19766.74646  20061988.7504                   20061989.2344
   2270357.99047   1772567.38244  22172943.9614                   22172944.1134
   -209896.01747   -157569.97144  22770476.2034                   22770478.5864
  -1357576.53447  -1051533.94646  21554844.2114                   21554843.8754
  -3313875.984 7  -2524084.080 7  21395528.023
 11  8  5 20 39 30.0000000  0  7G07G24G08G11G26G28G17
   3209650.583 8   2504014.299 7  21440115.617
   -385288.71447   -294147.31045  21902474.6174                   21902476.9104
     34924.05848     34579.17146  20065606.0084                   20065606.7664
   2330725.74447   1819607.16144  22184431.6724                   22184431.9384
   -194553.61747   -145614.88744  22773395.7034                   22773398.3714
  -1378492.44648  -1067832.05146  21550864.0164                   21550864.3164
  -3362258.474 8  -2561784.698 7  21386321.094
 11  8  5 20 40  0.0000000  0  7G07G24G08G11G26G28G17
   3284755.359 7   2562537.453 7  21454407.750
   -373389.06147   -284874.86945  21904739.1644                   21904741.3484
     54511.28248     49841.92246  20069333.6484                   20069334.3524
   2391582.83647   1867028.24845  22196011.5944                   22196012.7034
   -178639.02747   -133213.93144  22776424.1254                   22776426.6134
  -1399360.98948  -1084093.24946  21546893.1564                   21546892.7584
  -3410272.082 8  -2599197.902 7  21377184.758
 11  8  5 20 40 30.0000000  0  7G07G24G08G11G26G28G17
   3360280.027 8   2621387.783 7  21468779.688
   -360916.43147   -275155.95645  21907112.7584                   21907114.7234
     74676.83148     65555.30846  20073170.7504                   20073171.4384
   2452927.44547   1914829.20644  22207685.6724                   22207686.3364
   -162153.67047   -120368.22944  22779561.6564                   22779563.6134
  -1420181.98348  -1100317.39746  21542930.9224                   21542930.6884
  -3457917.051 8  -2636323.829 7  21368117.586
 11  8  5 20 41  0.0000000  0  7G07G24G08G11G26G28G17
   3436222.440 8   2680563.637 7  21483231.016
   -347871.46747   -264991.06645  21909594.5864                   21909596.8954
     95420.31348     81719.03546  20077118.4064                   20077119.3134
   2514756.89247   1963007.96244  22219451.2664                   22219451.7624
   -145099.64447   -107079.38444  22782806.7274                   22782808.9184
  -1440955.81648  -1116504.79846  21538977.4144                   21538977.6254
  -3505193.992 8  -2673163.000 7  21359121.867
 11  8  5 20 41 30.0000000  0  7G07G24G08G11G26G28G17
   3512581.724 8   2740064.316 7  21497761.867
   -334253.70147   -254379.82845  21912186.2584                   21912188.3554
    116742.69148     98333.85546  20081175.7344                   20081176.3874
   2577069.77047   2011563.41244  22231309.1254                   22231309.5234
   -127478.05647    -93348.32544  22786159.6024                   22786161.9774
  -1461681.20548  -1132654.46346  21535033.6094                   21535033.7154
  -3552102.204 8  -2709714.838 7  21350195.336
 11  8  5 20 42  0.0000000  0  7G07G24G08G11G26G28G17
   3589357.592 7   2799889.635 7  21512371.602
   -320061.72647   -243321.17345  21914886.9304                   21914889.1604
    138645.69848    115401.10346  20085343.3984                   20085344.5314
   2639865.30947   2060494.97344  22243258.6254                   22243259.3094
   -109288.89346    -79174.95944  22789621.0784                   22789623.3364
  -1482356.47448  -1148765.06246  21531099.0784                   21531099.0234
  -3598640.146 8  -2745978.156 7  21341339.422
 11  8  5 20 42 30.0000000  0  7G07G24G08G11G26G28G17
   3666546.585 7   2860036.851 7  21527060.133
   -305297.21647   -231816.37345  21917696.8984                   21917698.6134
    161127.91848    132919.69246  20089621.9844                   20089622.8714
   2703139.52147   2109799.52144  22255299.1174                   22255299.9924
    -90535.57647    -64562.01844  22793189.8444                   22793193.0904
  -1502983.15148  -1164837.79946  21527174.4534                   21527173.4104
  -3644809.756 8  -2781954.467 7  21332553.523
 11  8  5 20 43  0.0000000  0  7G07G24G08G11G26G28G17
   3744148.169 8   2920505.574 7  21541827.242
   -289959.11847   -219864.61945  21920615.3834                   21920617.2384
    184190.80848    150890.75046  20094010.7034                   20094011.5704
   2766891.64747   2159476.46545  22267431.0314                   22267431.5084
    -71218.47947    -49509.77544  22796865.9844                   22796868.6524
  -1523559.68648  -1180871.46946  21523259.0634                   21523258.4844
  -3690609.479 8  -2817642.539 7  21323838.414
 11  8  5 20 43 30.0000000  0  7G07G24G08G11G26G28G17
   3822161.334 7   2981295.010 7  21556672.766
   -274047.51847   -207465.97345  21923643.2194                   21923645.2774
    207834.92748    169314.71146  20098510.1094                   20098510.6954
   2831120.31147   2209524.73644  22279653.7194                   22279654.1724
    -51338.86246    -34019.20244  22800649.0554                   22800651.5984
  -1544085.05748  -1196865.27746  21519352.9694                   21519352.3484
  -3736039.865 8  -2853042.825 7  21315193.086
 11  8  5 20 44  0.0000000  0  7G07G24G08G11G26G28G17
   3900583.332 8   3042403.014 7  21571596.102
   -257563.47447   -194621.29045  21926779.5864                   21926782.1684
    232059.37648    188190.88446  20103120.0784                   20103120.5824
   2895821.85947   2259941.49245  22291965.8284                   22291966.4654
    -30899.59846    -18092.52644  22804538.8054                   22804540.6374
  -1564559.87948  -1212819.68746  21515456.5474                   21515456.5124
  -3781101.612 8  -2888155.861 7  21306618.117
 11  8  5 20 44 30.0000000  0  7G07G24G08G11G26G28G17
   3979411.120 7   3103827.205 7  21586596.469
   -240508.28047   -181331.54945  21930025.7344                   21930027.7114
    256863.40048    207518.67246  20107839.6884                   20107840.3324
   2960993.11347   2310724.26344  22304367.6954                   22304368.3634
     -9903.35047     -1731.86244  22808533.9384                   22808535.4844
  -1584985.28748  -1228735.59546  21511569.8364                   21511569.5124
  -3825795.762 8  -2922982.456 7  21298113.281
 11  8  5 20 45  0.0000000  0  7G07G24G08G11G26G28G17
   4058645.797 7   3165568.459 7  21601674.109
   -222879.39447   -167594.75145  21933380.0944                   21933381.9304
    282249.61848    227300.11146  20112671.4694                   20112671.5274
   3026635.10047   2361873.83144  22316858.7734                   22316859.3164
     11651.08147     15063.76944  22812636.0474                   22812638.0824
  -1605357.87848  -1244610.35146  21507693.0314                   21507693.0274
  -3870119.686 8  -2957520.563 7  21289678.609
 11  8  5 20 45 30.0000000  0  7G07G24G08G11G26G28G17
   4138284.624 8   3227624.637 7  21616829.313
   -204678.23147   -153412.04245  21936843.5944                   21936845.4494
    308217.57048    247534.85446  20117612.5004                   20117613.3014
   3092744.18647   2413387.38245  22329438.9924                   22329439.5744
     33760.36147     32291.74544  22816843.2584                   22816844.9884
  -1625678.39548  -1260444.52846  21503826.3754                   21503825.8054
  -3914075.028 8  -2991771.454 7  21281314.047
 11  8  5 20 46  0.0000000  0  7G07G24G08G11G26G28G17
   4218325.352 8   3289993.975 7  21632060.531
   -185905.63247   -138784.06445  21940416.2424                   21940417.7704
    334766.54248    268222.33546  20122664.8834                   20122665.1174
   3159317.52947   2465262.66844  22342107.0164                   22342107.9614
     56422.60047     49950.60544  22821155.2034                   22821157.6454
  -1645946.74348  -1276238.05346  21499969.1884                   21499968.6954
  -3957662.126 8  -3025735.406 7  21273019.719
 11  8  5 20 46 30.0000000  0  7G07G24G08G11G26G28G17
   4298767.790 8   3352676.349 7  21647368.352
   -166560.50647   -123709.95545  21944097.6564                   21944099.7934
    361897.91248    289363.64146  20127827.6094                   20127828.2034
   3226354.30347   2517499.08744  22354864.3364                   22354864.9224
     79637.36647     68039.98844  22825573.1484                   22825575.6334
  -1666161.03548  -1291989.45446  21496122.5634                   21496122.5594
  -4000879.739 8  -3059411.464 7  21264795.711
 11  8  5 20 47  0.0000000  0  7G07G24G08G11G26G28G17
   4379608.172 7   3415668.784 7  21662751.750
   -146644.84148   -108191.26245  21947887.4064                   21947889.5354
    389609.99548    310957.44146  20133100.5634                   20133101.3754
   3293850.59247   2570093.57444  22367708.4694                   22367709.0004
    103400.89947     86557.00744  22830094.5634                   22830097.6454
  -1686322.76748  -1307699.90846  21492285.8524                   21492285.8714
  -4043729.447 8  -3092800.823 7  21256641.445
 11  8  5 20 47 30.0000000  0  7G07G24G08G11G26G28G17
   4460844.821 8   3478970.018 7  21678210.570
   -126158.75147    -92228.07845  21951785.7274                   21951787.5664
    417902.98848    333003.90046  20138484.8984                   20138485.6914
   3361804.76547   2623044.85644  22380639.3284                   22380640.2624
    127711.71747    105500.45544  22834720.8524                   22834724.2424
  -1706431.54148  -1323369.09746  21488459.2894                   21488459.4734
  -4086211.225 8  -3125903.504 7  21248557.250
 11  8  5 20 48  0.0000000  0  7G07G24G08G11G26G28G17
   4542477.858 7   3542580.130 7  21693744.609
   -105101.05247    -75819.49845  21955792.6884                   21955794.7624
    446778.53348    355504.30046  20143980.1174                   20143980.7464
   3430216.02047   2676352.29144  22393657.8984                   22393658.2154
    152569.34247    124870.02844  22839451.1564                   22839454.5704
  -1726484.82448  -1338995.03546  21484643.7344                   21484643.3524
  -4128324.461 8  -3158718.995 7  21240543.344
 11  8  5 20 48 30.0000000  0  7G07G24G08G11G26G28G17
   4624503.613 7   3606496.239 7  21709353.875
    -83473.94047    -58967.20145  21959907.8914                   21959910.2344
    476234.79548    378457.19246  20149585.0314                   20149585.9304
   3499080.19147   2730012.66544  22406762.5864                   22406762.5784
    177970.44247    144663.03844  22844285.1174                   22844288.3014
  -1746484.05748  -1354578.87046  21480837.5864                   21480836.8754
  -4170070.879 8  -3191248.659 7  21232599.430
 11  8  5 20 49  0.0000000  0  7G07G24G08G11G26G28G17
   4706921.837 8   3670718.187 7  21725037.438
    -61275.75347    -41669.93445  21964132.8914                   21964134.2894
    506273.68148    401864.09346  20155301.4844                   20155302.4344
   3568396.84647   2784025.62544  22419953.1564                   22419953.0164
    203914.93547    164879.48344  22849222.7034                   22849224.6134
  -1766426.91348  -1370118.76346  21477042.8754                   21477042.2154
  -4211448.362 8  -3223490.853 7  21224725.813
 11  8  5 20 49 30.0000000  0  7G07G24G08G11G26G28G17
   4789731.038 7   3735244.781 7  21740795.906
    -38507.23248    -23928.22945  21968465.3134                   21968466.9804
    536895.18048    425724.97146  20161128.5234                   20161129.1484
   3638163.77447   2838389.45944  22433228.8914                   22433229.4884
    230400.81347    185517.78644  22854262.8524                   22854265.1764
  -1786312.81348  -1385614.27546  21473258.4774                   21473257.9924
  -4252457.441 8  -3255445.963 7  21216921.797
 11  8  5 20 50  0.0000000  0  7G07G24G08G11G26G28G17
   4872927.278 8   3800072.952 7  21756627.836
    -15170.95847     -5744.12645  21972906.2504                   21972907.7194
    568096.84348    450037.92946  20167066.0164                   20167066.9734
   3708376.68947   2893100.77744  22446590.6094                   22446590.6454
    257423.68047    206574.53544  22859404.4694                   22859407.1684
  -1806143.50548  -1401066.77246  21469485.0634                   21469484.5314
  -4293100.472 8  -3287115.855 7  21209188.133
 11  8  5 20 50 30.0000000  0  7G07G24G08G11G26G28G17
   4956509.908 7   3865202.232 7  21772532.508
      8734.10448     12883.18645  21977455.1094                   21977456.9264
    599880.10248    474804.07046  20173114.1644                   20173114.8284
   3779034.68147   2948158.92144  22460035.9614                   22460037.2344
    284983.40147    228049.60044  22864649.0944                   22864651.8284
  -1825916.71648  -1416474.48446  21465722.0474                   21465721.7464
  -4333376.035 8  -3318499.406 7  21201523.445
 11  8  5 20 51  0.0000000  0  7G07G24G08G11G26G28G17
   5040477.178 7   3930631.197 7  21788511.336
     33207.27547     31953.18145  21982111.9924                   21982113.8244
    632244.99748    500023.43846  20179272.9844                   20179273.8674
   3850135.61847   3003562.22444  22473565.5864                   22473566.5744
    313078.04047    249941.48344  22869995.5634                   22869998.5744
  -1845632.16548  -1431837.17246  21461970.6484                   21461970.3874
  -4373284.235 8  -3349596.699 7  21193929.211
 11  8  5 20 51 30.0000000  0  7G07G24G08G11G26G28G17
   5124828.674 8   3996359.598 7  21804563.039
     58249.73247     51466.77845  21986877.1484                   21986879.3794
    665192.81548    525697.04246  20185542.7504                   20185543.2774
   3921678.39547   3059309.80244  22487180.2814                   22487180.9384
    341706.96547    272249.70044  22875443.9774                   22875446.0984
  -1865287.89848  -1447153.33146  21458230.2274                   21458229.7704
  -4412824.094 8  -3380406.967 7  21186404.906
 11  8  5 20 52  0.0000000  0  7G07G24G08G11G26G28G17
   5209559.347 7   4062383.455 7  21820686.336
     83857.54747     71420.90245  21991750.1884                   21991752.2154
    698720.04848    551822.12946  20191922.3594                   20191923.1214
   3993657.38247   3115397.28844  22500876.6804                   22500878.2304
    370864.65447    294969.93944  22880991.6334                   22880995.0664
  -1884886.43548  -1462424.93646  21454500.7584                   21454500.3094
  -4451999.330 8  -3410933.121 7  21178950.297
 11  8  5 20 52 30.0000000  0  7G07G24G08G11G26G28G17
   5294670.582 8   4128703.831 7  21836882.734
    110033.42447     91817.67645  21996731.6254                   21996733.8914
    732829.70848    578401.05046  20198413.6564                   20198414.3794
   4066073.78347   3171825.63844  22514658.0234                   22514658.0354
    400552.87147    318103.57744  22886641.1254                   22886644.1024
  -1904423.79148  -1477648.87146  21450782.7274                   21450782.3204
  -4490806.698 8  -3441172.622 7  21171565.508
 11  8  5 20 53  0.0000000  0  8G07G24G08G04G11G26G28G17
   5380145.846 7   4195307.865 7  21853148.539
    136761.98047    112645.12445  22001817.7734                   22001820.2664
    767506.60048    605421.97546  20205012.4694                   20205012.9384
    451045.40046    407105.68143  24555651.8364                   24555657.4774
   4138910.56747   3228581.54944  22528517.9614                   22528518.8554
    430754.40647    341637.17744  22892388.1564                   22892391.6684
  -1923914.38148  -1492836.35346  21447074.1484                   21447073.6604
  -4529261.254 8  -3471137.208 7  21164247.805
 11  8  5 20 53 30.0000000  0  8G07G24G08G04G11G26G28G17
   5466009.223 7   4262214.339 7  21869487.461
    164068.93547    133923.25545  22007013.8284                   22007016.4264
    802777.10048    632905.45246  20211724.0474                   20211724.8324
    337808.31746    318869.34643  24534101.5004                   24534108.8834
   4212191.41547   3285683.46144  22542463.1724                   22542464.0824
    461493.66347    365589.80144  22898238.3134                   22898240.7664
  -1943331.24148  -1507966.38446  21443379.3834                   21443378.5234
  -4567337.068 8  -3500806.667 7  21157002.148
 11  8  5 20 54  0.0000000  0  8G07G24G08G04G11G26G28G17
   5552245.456 7   4329411.352 7  21885897.789
    191940.27047    155641.16845  22012317.6884                   22012320.0944
    838627.49048    660840.78346  20218546.4924                   20218546.9844
    224515.40946    230589.48143  24512543.3134                   24512549.3834
   4285900.73347   3343119.27644  22556489.3754                   22556490.3324
    492754.99047    389949.21644  22904187.2974                   22904190.1254
  -1962687.01048  -1523048.80646  21439695.4384                   21439695.8754
  -4605047.695 8  -3530191.568 7  21149826.039
 11  8  5 20 54 30.0000000  0  8G07G24G08G04G11G26G28G17
   5638852.496 7   4396897.289 7  21902378.477
    220375.02847    177798.11445  22017728.8754                   22017730.7854
    875057.01948    689227.39446  20225478.7114                   20225479.4144
    111168.74146    142267.73943  24490973.6024                   24490979.8094
   4360036.06847   3400887.02644  22570597.1954                   22570597.4304
    524536.11347    414713.68944  22910234.4844                   22910236.9184
  -1981981.46848  -1538083.46346  21436024.0084                   21436024.0784
  -4642393.734 8  -3559292.377 7  21142719.648
 11  8  5 20 55  0.0000000  0  8G07G24G08G04G11G26G28G17
   5725829.936 7   4464671.847 7  21918929.953
    249374.09747    200394.79045  22023246.9304                   22023249.2154
    912067.27248    718066.52646  20232521.4694                   20232522.2384
     -2227.26446     53907.51843  24469395.1884                   24469401.2114
   4434596.48347   3458986.01444  22584785.2194                   22584786.1644
    556836.50847    439882.77244  22916381.3674                   22916384.4884
  -2001212.40548  -1553068.63146  21432364.6564                   21432364.5234
  -4679373.903 8  -3588108.097 7  21135682.297
 11  8  5 20 55 30.0000000  0  8G07G24G08G04G11G26G28G17
   5813173.049 7   4532731.354 7  21935551.133
    278933.63947    223428.19045  22028872.2734                   22028874.5274
    949654.94548    747355.58746  20239674.3594                   20239674.6884
   -115672.93546    -34491.29043  24447807.1024                   24447813.8834
   4509576.76447   3517412.18544  22599053.7424                   22599053.4964
    589651.00547    465452.45644  22922625.6414                   22922628.4414
  -2020382.02248  -1568005.99646  21428716.5634                   21428716.0044
  -4715991.175 8  -3616641.038 7  21128714.391
 11  8  5 20 56  0.0000000  0  8G07G24G08G04G11G26G28G17
   5900882.517 7   4601076.326 7  21952241.977
    309055.87147    246900.05245  22034604.0474                   22034606.1214
    987822.21248    777096.27746  20246937.4384                   20246937.9574
   -229163.03246   -122924.83143  24426210.2734                   24426216.7704
   4584977.28247   3576165.79744  22613401.8134                   22613402.2304
    622980.27247    491423.25944  22928968.1414                   22928970.7274
  -2039486.78348  -1582892.81946  21425081.3984                   21425081.1094
  -4752243.876 8  -3644889.900 7  21121815.586
 11  8  5 20 56 30.0000000  0  8G07G24G08G04G11G26G28G17
   5988956.386 7   4669705.261 7  21969001.328
    339740.13747    270809.83445  22040443.4774                   22040445.4804
   1026569.02248    807288.56446  20254310.7424                   20254311.5664
   -342694.78346   -211390.80643  24404606.0554                   24404611.4734
   4660795.70847   3635245.07244  22627830.1644                   22627829.7854
    656822.18547    517793.54244  22935408.5634                   22935411.1094
  -2058526.24548  -1597728.76846  21421457.8364                   21421458.0944
  -4788131.950 8  -3672854.638 7  21114986.094
 11  8  5 20 57  0.0000000  0  8G07G24G08G04G11G26G28G17
   6077391.832 7   4738615.922 7  21985830.203
    370984.66647    295156.21645  22046388.8364                   22046391.3324
   1065893.73548    837931.16246  20261794.3364                   20261794.5984
   -456266.74846   -299888.04243  24382992.3754                   24382999.3284
   4737028.62347   3694647.31044  22642336.8524                   22642336.9844
    691173.52847    544560.74644  22941945.4924                   22941947.9534
  -2077500.55848  -1612513.94646  21417847.5164                   21417847.4454
  -4823656.749 8  -3700536.305 7  21108226.227
 11  8  5 20 57 30.0000000  0  8G07G24G08G04G11G26G28G17
   6166186.465 7   4807806.480 7  22002727.023
    402788.35747    319938.30645  22052441.1414                   22052442.6994
   1105795.48948    869023.40546  20269386.9384                   20269387.5204
   -569876.76746   -388415.00343  24361374.4064                   24361379.7114
   4813673.30747   3754370.41144  22656921.6804                   22656922.1094
    726031.67747    571722.91444  22948577.8444                   22948581.9804
  -2096409.19548  -1627247.94746  21414249.3524                   21414248.9024
  -4858818.683 8  -3727935.207 7  21101535.227
 11  8  5 20 58  0.0000000  0  8G07G24G08G04G11G26G28G17
   6255339.413 7   4877276.236 7  22019692.820
    435151.48647    345156.31545  22058599.7734                   22058601.8634
   1146275.18348    900565.99046  20277090.0004                   20277090.5204
   -683520.65046   -476968.36742  24339746.5234                   24339753.2384
   4890728.68047   3814413.52744  22671584.8914                   22671585.0594
    761395.83047    599279.33944  22955308.0704                   22955310.7704
  -2115250.33848  -1641929.36046  21410664.2974                   21410663.7384
  -4893616.910 8  -3755050.711 7  21094913.445
 11  8  5 20 58 30.0000000  0  8G07G24G08G04G11G26G28G17
   6344848.320 7   4947023.385 7  22036725.484
    468072.49647    370809.04645  22064863.7194                   22064866.7734
   1187331.85048    932558.16646  20284903.2974                   20284903.5354
   -797196.58146   -565546.68143  24318115.5474                   24318121.8014
   4968191.72547   3874774.29244  22686325.5314                   22686325.6254
    797262.99147    627227.71244  22962133.6334                   22962136.1914
  -2134023.96748  -1656558.15546  21407091.3134                   21407091.1054
  -4928052.843 8  -3781883.910 7  21088360.102
 11  8  5 20 59  0.0000000  0  8G07G24G08G04G11G26G28G17
   6434708.364 8   5017044.127 7  22053825.586
    501548.31447    396894.08745  22071234.5944                   22071236.7774
   1228962.50148    964997.59446  20292824.7504                   20292825.5784
   -910904.24346   -654149.70143  24296476.3524                   24296483.4654
   5046057.73147   3935449.06544  22701142.6804                   22701143.0944
    833628.55047    655564.46944  22969053.5234                   22969055.9534
  -2152731.99848  -1671135.84246  21403531.3054                   21403531.3094
  -4962129.246 8  -3808436.950 7  21081875.711
 11  8  5 20 59 30.0000000  0  8G07G24G08G04G11G26G28G17
   6524921.428 7   5087339.940 7  22070992.719
    535581.63547    423413.54745  22077710.2894                   22077712.7344
   1271170.06248    997886.56546  20300856.6414                   20300857.2774
  -1024637.36746   -742772.65342  24274834.6414                   24274840.3634
   5124327.42047   3996438.39244  22716037.5164                   22716037.6334
    870493.73847    684290.51344  22976069.4774                   22976071.4654
  -2171369.33348  -1685658.44646  21399984.8984                   21399984.7464
  -4995842.793 8  -3834707.262 7  21075459.992
 11  8  5 21  0  0.0000000  0  8G07G24G08G04G11G26G28G17
   6615484.263 7   5157908.323 7  22088225.922
    570169.98247    450365.49745  22084292.7974                   22084294.7544
   1313952.54148   1031223.52446  20308997.9694                   20308998.9414
  -1138394.61346   -831414.39043  24253187.2194                   24253192.6374
   5202997.20347   4057739.49644  22731007.4224                   22731008.3404
    907854.89047    713403.05544  22983179.0004                   22983181.3914
  -2189937.10248  -1700126.83046  21396451.3754                   21396451.6414
  -5029195.142 8  -3860696.102 7  21069113.352
 11  8  5 21  0 30.0000000  0  8G07G24G08G04G11G26G28G17
   6706394.365 7   5228747.310 7  22105525.617
    605312.43547    477749.22445  22090980.0554                   22090982.2584
   1357309.27648   1065007.95246  20317248.9614                   20317249.5904
  -1252173.51446   -920072.97843  24231535.5704                   24231540.0744
   5282064.44847   4119350.28844  22746053.2584                   22746053.7704
    945709.27647    742899.89744  22990382.1414                   22990384.6484
  -2208434.82848  -1714540.63946  21392931.5554                   21392931.6174
  -5062186.730 8  -3886403.834 7  21062835.453
 11  8  5 21  1  0.0000000  0  8G07G24G08G04G11G26G28G17
   6797648.918 7   5299854.679 7  22122891.258
    641007.38247    505563.45545  22097772.5234                   22097774.6334
   1401238.79448   1099238.71246  20325608.0394                   20325608.9734
  -1365972.18246  -1008746.91342  24209880.1024                   24209884.5044
   5361526.02947   4181268.33244  22761175.0634                   22761175.4614
    984054.10047    772778.93244  22997679.0314                   22997681.9414
  -2226862.41648  -1728899.79246  21389424.6804                   21389425.1054
  -5094819.125 8  -3911831.695 7  21056625.859
 11  8  5 21  1 30.0000000  0  8G07G24G08G04G11G26G28G17
   6889247.199 7   5371229.901 7  22140321.641
    677255.23447    533808.51045  22104670.0554                   22104672.2074
   1445742.27148   1133916.69746  20334076.9614                   20334077.7854
  -1479786.42446  -1097433.12543  24188221.8054                   24188227.2504
   5441381.17347   4243493.06244  22776370.6024                   22776371.4064
   1022888.31447    803039.30444  23005069.0554                   23005071.9024
  -2245217.46548  -1743202.43046  21385932.0634                   21385932.1844
  -5127091.456 8  -3936978.971 7  21050484.273
 11  8  5 21  2  0.0000000  0  8G07G24G08G04G11G26G28G17
   6981186.894 7   5442871.145 7  22157817.516
    714054.48648    562483.24545  22111672.6954                   22111674.9024
   1490818.07048   1169040.66046  20342654.5704                   20342655.5594
  -1593614.11246  -1186129.72543  24166561.1564                   24166566.0904
   5521626.67847   4306021.98244  22791640.6174                   22791641.5204
   1062209.00347    833678.71844  23012551.5944                   23012554.6294
  -2263499.76248  -1757448.37846  21382453.3054                   21382453.0474
  -5159004.600 8  -3961846.361 7  21044411.688
 11  8  5 21  2 30.0000000  0  8G07G24G08G04G11G26G28G17
   7073464.843 7   5514775.939 7  22175376.977
    751403.00247    591585.97345  22118780.1644                   22118782.0354
   1536465.00148   1204609.65446  20351341.0234                   20351341.9414
  -1707453.52546  -1274835.51643  24144897.7424                   24144903.1334
   5602259.23747   4368852.46744  22806984.3754                   22806985.2774
   1102012.86847    864694.66544  23020125.5864                   23020128.8794
  -2281709.74648  -1771637.96846  21378987.6884                   21378987.6134
  -5190559.647 8  -3986434.716 7  21038407.148
 11  8  5 21  3  0.0000000  0  8G07G24G08G04G11G26G28G17
   7166080.747 7   5586944.116 7  22193001.195
    789301.77647    621117.46445  22125991.8834                   22125994.1484
   1582684.32448   1240624.67146  20360136.1644                   20360136.8984
  -1821300.12446  -1363546.89443  24123233.6954                   24123238.9064
   5683278.26847   4431984.10044  22822402.2664                   22822403.0164
   1142299.42347    896086.70044  23027792.7504                   23027795.3914
  -2299844.30448  -1785768.78746  21375536.7894                   21375536.4924
  -5221755.357 8  -4010743.064 7  21032470.352
 11  8  5 21  3 30.0000000  0  8G07G24G08G04G11G26G28G17
   7259030.044 7   5659372.051 7  22210688.859
    827746.81847    651074.62545  22133307.8594                   22133310.0164
   1629472.04048   1277082.58546  20369039.8284                   20369040.6374
  -1935153.83546  -1452263.85643  24101567.1484                   24101572.7664
   5764678.39147   4495412.68644  22837891.5394                   22837893.0474
   1183063.51247    927850.87644  23035549.3834                   23035552.5274
  -2317905.43148  -1799842.38846  21372099.7584                   21372099.9414
  -5252594.990 8  -4034773.955 7  21026601.797
 11  8  5 21  4  0.0000000  0  8G07G24G08G04G11G26G28G17
   7352312.936 7   5732059.959 7  22228440.352
    866739.69147    681458.64945  22140728.3284                   22140730.2704
   1676830.03348   1313984.88146  20378051.6414                   20378052.3594
  -2049009.48146  -1540982.31043  24079900.9924                   24079906.0704
   5846459.63547   4559138.28144  22853454.4144                   22853454.6844
   1224305.06446    959987.09444  23043396.8054                   23043400.5044
  -2335889.83348  -1813856.21846  21368677.3284                   21368677.4804
  -5283076.538 8  -4058525.820 7  21020801.586
 11  8  5 21  4 30.0000000  0  8G07G24G08G04G11G26G28G17
   7445925.282 7   5805004.562 7  22246254.258
    906277.47947    712267.28645  22148252.0474                   22148253.1994
   1724755.69148   1351329.51146  20387171.3204                   20387172.7894
  -2162865.96046  -1629701.42943  24058234.1644                   24058239.6604
   5928617.70147   4623157.48844  22869088.9924                   22869088.8794
   1266019.79647    992491.97844  23051335.6414                   23051338.7734
  -2353798.67848  -1827811.16346  21365269.6254                   21365269.2544
  -5313202.287 8  -4082000.437 7  21015069.063
 11  8  5 21  5  0.0000000  0  8G07G24G08G04G11G26G28G17
   7539867.732 7   5878206.406 7  22264130.773
    946361.53847    743501.59445  22155879.4844                   22155881.4534
   1773251.07648   1389118.07346  20396399.5864                   20396400.9104
  -2276718.42846  -1718417.37643  24036568.9614                   24036574.1174
   6011152.43847   4687470.21144  22884794.7424                   22884795.1844
   1308207.61247   1025365.54344  23059363.3594                   23059366.5554
  -2371628.46548  -1841704.50346  21361876.6884                   21361876.5234
  -5342970.463 8  -4105196.423 7  21009404.141
 11  8  5 21  5 30.0000000  0  8G07G24G08G04G11G26G28G17
   7634134.660 7   5951661.067 7  22282069.164
    986986.98747    775157.77045  22163610.6724                   22163612.6174
   1822311.62248   1427347.02346  20405735.7814                   20405737.1374
  -2390567.55346  -1807130.75343  24014904.6174                   24014908.7934
   6094057.89847   4752071.78344  22900571.6024                   22900571.8634
   1350862.68447   1058603.19044  23067480.2424                   23067484.0554
  -2389382.07248  -1855538.48746  21358498.0234                   21358497.9734
  -5372385.214 8  -4128117.029 7  21003806.820
 11  8  5 21  6  0.0000000  0  8G07G24G08G04G11G26G28G17
   7728725.848 7   6025368.438 7  22300069.680
   1028155.07947    807236.75545  22171444.8834                   22171446.0004
   1871938.85048   1466017.54546  20415179.7344                   20415180.7664
  -2504407.86546  -1895837.29843  23993240.9144                   23993245.0664
   6177334.21147   4816962.34844  22916417.5944                   22916418.7894
   1393984.76647   1092204.73744  23075686.7424                   23075690.1844
  -2407055.87448  -1869310.28146  21355135.1804                   21355134.8674
  -5401444.363 8  -4150760.534 7  20998277.086
 11  8  5 21  6 30.0000000  0  8G07G24G08G04G11G26G28G17
   7823638.941 7   6099326.595 7  22318130.836
   1069864.05847    839737.22445  22179382.3134                   22179383.6804
   1922131.10348   1505128.34846  20424730.8134                   20424732.0004
  -2618237.74746  -1984535.70643  23971579.2194                   23971585.0594
   6260978.01347   4882139.24544  22932334.5474                   22932335.9734
   1437570.71447   1126167.72644  23083981.2114                   23083984.4144
  -2424649.95048  -1883019.95246  21351786.9534                   21351786.5864
  -5430149.360 8  -4173128.065 7  20992814.477
 11  8  5 21  7  0.0000000  0  8G07G24G08G04G11G26G28G17
   7918871.258 7   6173533.521 7  22336253.188
   1112112.17247    872657.80045  22187421.0314                   22187423.6484
   1972886.75548   1544678.15946  20434389.6644                   20434390.3954
  -2732054.69346  -2073224.01943  23949920.8594                   23949926.0704
   6344986.33947   4947600.17144  22948322.1804                   22948322.5394
   1481617.28047   1160489.66744  23092362.4304                   23092366.6684
  -2442164.10348  -1896667.34846  21348454.3364                   21348453.8364
  -5458501.138 8  -4195220.366 7  20987419.500
 11  8  5 21  7 30.0000000  0  8G07G24G08G04G11G26G28G17
   8014420.797 7   6247987.639 7  22354435.414
   1154898.48347    905997.74345  22195562.9384                   22195564.8754
   2024205.45148   1584666.70846  20444155.3834                   20444156.4304
  -2845855.54946  -2161899.83843  23928265.4384                   23928269.9304
   6429357.01347   5013343.47744  22964376.7194                   22964377.8914
   1526122.68547   1195169.11044  23100831.3834                   23100835.3914
  -2459596.60948  -1910251.12746  21345136.8204                   21345136.6214
  -5486499.868 8  -4217037.573 7  20982091.852
 11  8  5 21  8  0.0000000  0  8G07G24G08G04G11G26G28G17
   8110286.260 7   6322687.910 7  22372678.195
   1198222.49747    939756.67045  22203807.1334                   22203809.2384
   2076087.14548   1625093.95546  20454028.0394                   20454029.0784
  -2959636.86246  -2250560.44743  23906613.2894                   23906618.1024
   6514088.21947   5079367.69744  22980500.4144                   22980501.5864
   1571084.71347   1230204.37544  23109387.8134                   23109391.5594
  -2476946.13948  -1923770.23946  21341835.3134                   21341835.2734
  -5514145.583 8  -4238579.703 7  20976830.773
 11  8  5 21  8 30.0000000  0  8G07G24G08G04G11G26G28G17
   8206463.577 7   6397631.186 7  22390980.328
   1242081.37947    973932.39144  22212153.1884                   22212155.7664
   2128528.97648   1665957.67446  20464007.5704                   20464008.1644
  -3073397.36746  -2339204.81343  23884965.6954                   23884969.4614
   6599175.70647   5145669.53544  22996692.1954                   22996693.3164
   1616499.42747   1265592.37645  23118030.1954                   23118034.5124
  -2494213.21348  -1937225.11246  21338549.9694                   21338549.3674
  -5541440.151 8  -4259848.193 7  20971636.672
 11  8  5 21  9  0.0000000  0  8G07G24G08G04G11G26G28G17
   8302952.764 7   6472817.480 7  22409341.461
   1286475.54847   1008525.21645  22220601.5084                   22220603.7114
   2181532.11148   1707258.77046  20474093.4694                   20474094.6914
  -3187132.73346  -2427829.60543  23863322.1334                   23863326.6334
   6684619.01846   5212248.64344  23012952.0554                   23012952.6174
   1662365.84447   1301332.35344  23126758.1254                   23126762.2624
  -2511395.09548  -1950613.60646  21335279.8834                   21335279.8834
  -5568382.485 8  -4280842.227 7  20966509.891
 11  8  5 21  9 30.0000000  0  8G07G24G08G04G11G26G28G17
   8399749.422 7   6548243.372 7  22427761.469
   1331401.78647   1043532.61645  22229151.1174                   22229153.0944
   2235093.64248   1748994.98846  20484285.7274                   20484286.9454
  -3300841.66746  -2516433.81243  23841684.0474                   23841688.3244
   6770413.57446   5279101.44744  23029278.0314                   23029279.1334
   1708679.62147   1337420.90745  23135571.8364                   23135574.7854
  -2528492.98948  -1963936.65546  21332026.0634                   21332026.3244
  -5594975.454 8  -4301564.030 7  20961449.492
 11  8  5 21 10  0.0000000  0  8G07G24G08G04G11G26G28G17
   8496853.115 7   6623908.456 7  22446239.828
   1376860.40047   1078954.86545  22237801.2664                   22237803.2664
   2289214.19848   1791166.79946  20494584.6564                   20494585.9774
  -3414520.13446  -2605014.29343  23820051.4614                   23820055.1884
   6856558.52546   5346227.28544  23045670.4304                   23045671.8134
   1755439.40047   1373857.02645  23144469.2424                   23144473.7774
  -2545504.27248  -1977192.21946  21328789.1954                   21328789.3204
  -5621217.730 8  -4322012.557 7  20956455.438
 11  8  5 21 10 30.0000000  0  8G07G24G08G04G11G26G28G17
   8594260.353 7   6699810.141 6  22464775.594
   1422848.86447   1114789.99245  22246552.6724                   22246554.5744
   2343891.21148   1833772.22146  20504989.5784                   20504990.7234
  -3528166.35446  -2693569.63343  23798426.0314                   23798429.4884
   6943050.06747   5413623.17744  23062129.6094                   23062131.0824
   1802641.78847   1410637.99544  23153451.9454                   23153455.8554
  -2562429.02748  -1990380.36546  21325568.7584                   21325568.4264
  -5647111.142 8  -4342189.246 7  20951528.188
 11  8  5 21 11  0.0000000  0  8G07G24G08G04G11G26G28G17
   8691969.767 7   6775947.243 6  22483369.031
   1469366.82147   1151037.70445  22255405.0554                   22255406.7274
   2399124.50848   1876811.10246  20515500.1804                   20515501.2034
  -3641776.58546  -2782096.87743  23776805.5634                   23776810.2854
   7029886.50046   5481287.83544  23078653.9774                   23078655.4654
   1850284.73747   1447762.29545  23162518.6484                   23162521.9494
  -2579265.46648  -2003499.68946  21322364.7734                   21322364.9614
  -5672655.468 8  -4362093.921 7  20946667.109
 11  8  5 21 11 30.0000000  0  8G07G24G08G04G11G26G28G17
   8789977.541 7   6852316.855 7  22502019.758
   1516411.12447   1187695.55845  22264356.7664                   22264359.2234
   2454911.28848   1920281.27246  20526116.0314                   20526117.3054
  -3755349.78546  -2870595.37443  23755193.4844                   23755198.2504
   7117063.64147   5549217.97544  23095243.4454                   23095244.7384
   1898363.84547   1485226.41544  23171667.5234                   23171670.6914
  -2596014.42648  -2016550.84346  21319177.7274                   21319177.3874
  -5697853.066 8  -4381728.412 7  20941872.172
 11  8  5 21 12  0.0000000  0  8G07G24G08G04G11G26G28G17
   8888282.794 7   6928918.240 6  22520726.641
   1563981.62447   1224763.41845  22273409.5004                   22273411.9384
   2511251.75648   1964182.88746  20536837.5944                   20536838.5234
  -3868881.56746  -2959061.53043  23733588.6174                   23733593.1484
   7204580.25447   5617412.66044  23111897.0634                   23111898.1374
   1946877.94647   1523029.52545  23180899.9844                   23180902.8444
  -2612673.36048  -2029531.85046  21316007.7734                   21316007.0004
  -5722703.309 8  -4401092.260 7  20937143.133
 11  8  5 21 12 30.0000000  0  8G07G24G08G04G11G26G28G17
   8986882.214 7   7005748.877 6  22539489.453
   1612075.84747   1262239.38945  22282560.8984                   22282563.6374
   2568143.88948   2008514.36446  20547663.6174                   20547664.8524
  -3982370.18346  -3047494.10443  23711993.1334                   23711997.3204
   7292433.21147   5685869.43043  23128615.6644                   23128615.7504
   1995823.28247   1561168.64744  23190212.8914                   23190217.2424
  -2629242.18348  -2042442.64046  21312854.7664                   21312854.5354
  -5747207.843 8  -4420186.700 8  20932480.125
 11  8  5 21 13  0.0000000  0  8G07G24G08G04G11G26G28G17
   9085774.080 7   7082807.408 6  22558307.930
   1660693.00247   1300122.82845  22291813.1484                   22291815.4694
   2625587.20048   2053275.33246  20558594.9844                   20558596.0204
  -4095812.18346  -3135890.32543  23690404.8914                   23690409.9574
   7380620.39747   5754586.61843  23145397.1094                   23145397.7624
   2045198.06447   1599642.42344  23199609.2424                   23199612.9184
  -2645719.61448  -2055282.20946  21309718.8914                   21309718.9614
  -5771366.414 8  -4439011.576 7  20927883.047
 11  8  5 21 13 30.0000000  0  8G07G24G08G04G11G26G28G17
   9184955.749 7   7160091.712 6  22577182.055
   1709831.09247   1338412.18945  22301163.7734                   22301165.8874
   2683579.76248   2098464.30546  20569630.4224                   20569631.3404
  -4209205.34946  -3224248.50143  23668827.2194                   23668831.3134
   7469138.14847   5823561.38344  23162241.9304                   23162242.6374
   2094998.59447   1638447.93144  23209085.2974                   23209090.2934
  -2662104.93248  -2068050.00346  21306600.8674                   21306600.8914
  -5795180.492 8  -4457568.008 7  20923351.500
 11  8  5 21 14  0.0000000  0  8G07G24G08G04G11G26G28G17
   9284427.161 7   7237601.819 7  22596110.758
   1759490.89247   1377108.08745  22310613.6254                   22310615.9924
   2742122.73748   2144082.15646  20580770.8364                   20580771.8164
  -4322544.40947  -3312564.57243  23647259.5554                   23647263.2814
   7557986.36947   5892793.67944  23179148.8984                   23179149.8284
   2145224.65447   1677585.01144  23218643.5784                   23218648.0044
  -2678394.96948  -2080743.55346  21303501.3364                   21303501.2704
  -5818648.450 8  -4475854.735 7  20918885.773
 11  8  5 21 14 30.0000000  0  8G07G24G08G04G11G26G28G17
   9384182.784 7   7315333.380 6  22615093.594
   1809667.68048   1416206.81045  22320161.9924                   22320164.5354
   2801211.47848   2190125.27946  20592015.2894                   20592016.2504
  -4435829.80347  -3400838.79843  23625701.7734                   23625706.1914
   7647159.56147   5962279.16344  23196118.0944                   23196118.8554
   2195870.15347   1717048.93044  23228281.2814                   23228285.3984
  -2694591.85848  -2093364.52246  21300418.8674                   21300418.6914
  -5841774.337 8  -4493874.922 7  20914484.656
 11  8  5 21 15  0.0000000  0  8G07G24G08G04G11G26G28G17
   9484220.488 7   7393284.738 6  22634130.180
   1860360.23147   1455707.44445  22329808.7424                   22329810.7344
   2860845.23348   2236593.08046  20603363.1724                   20603364.1844
  -4549058.81147  -3489069.09743  23604155.5004                   23604158.7974
   7736655.24147   6032015.95444  23213148.7734                   23213149.8674
   2246932.52747   1756837.69844  23237998.4144                   23238002.1454
  -2710694.44048  -2105912.00346  21297354.7194                   21297354.8014
  -5864558.530 8  -4511628.846 7  20910149.000
 11  8  5 21 15 30.0000000  0  8G07G24G08G04G11G26G28G17
   9584540.931 7   7471456.418 7  22653220.938
   1911569.62647   1495610.81245  22339553.4774                   22339555.6254
   2921025.34948   2283486.62146  20614815.0634                   20614815.7814
  -4662225.35146  -3577250.73743  23582619.8284                   23582623.7154
   7826473.66347   6102004.21344  23230240.4534                   23230240.9144
   2298411.50447   1796951.07144  23247794.3204                   23247798.5704
  -2726698.80348  -2118382.96346  21294309.2034                   21294309.1954
  -5886998.887 8  -4529114.844 7  20905879.211
 11  8  5 21 16  0.0000000  0  8G07G24G08G04G11G26G28G17
   9685139.048 7   7549844.465 6  22672363.500
   1963291.61347   1535913.59045  22349395.4694                   22349398.3054
   2981747.88548   2330802.83246  20626370.1804                   20626371.0124
  -4775329.33547  -3665383.62543  23561097.2814                   23561100.1294
   7916609.63346   6172239.89843  23247392.4534                   23247393.7734
   2350301.94247   1837385.04244  23257669.0314                   23257672.9104
  -2742606.46748  -2130778.57046  21291282.1024                   21291282.2504
  -5909098.942 8  -4546335.677 7  20901673.563
 11  8  5 21 16 30.0000000  0  8G07G24G08G04G11G26G28G17
   9786013.496 7   7628447.808 6  22691559.984
   2015525.63447   1576615.34645  22359335.4454                   22359337.9694
   3043012.31548   2378541.28746  20638028.9224                   20638029.5824
  -4888366.88846  -3753464.71143  23539586.3834                   23539590.2664
   8007061.24346   6242721.55143  23264605.1254                   23264605.9774
   2402602.00047   1878138.26744  23267621.2194                   23267625.0274
  -2758415.59848  -2143097.39346  21288273.9384                   21288273.5474
  -5930858.574 8  -4563291.242 7  20897532.734
 11  8  5 21 17  0.0000000  0  8G07G24G08G04G11G26G28G17
   9887163.085 7   7707265.553 6  22710807.852
   2068271.39947   1617715.87945  22369372.8444                   22369375.0084
   3104818.24948   2426701.69746  20649789.7734                   20649790.7854
  -5001334.18147  -3841491.08243  23518089.7504                   23518093.0944
   8097827.13847   6313448.08843  23281877.1414                   23281878.4654
   2455309.77447   1919209.11144  23277651.3594                   23277654.7974
  -2774124.35148  -2155338.00846  21285284.6884                   21285284.5664
  -5952277.205 8  -4579981.099 7  20893456.898
 11  8  5 21 17 30.0000000  0  8G07G24G08G04G11G26G28G17
   9988582.090 7   7786293.241 6  22730107.852
   2121523.76447   1659211.15745  22379506.5864                   22379509.3244
   3167161.37648   2475280.69546  20661653.2894                   20661654.4304
  -5114231.50946  -3929462.96243  23496606.2584                   23496609.3634
   8188901.60946   6384415.07843  23299208.5864                   23299209.3674
   2508419.41547   1960593.12944  23287757.3834                   23287761.6804
  -2789734.54448  -2167501.81846  21282313.8834                   21282313.9964
  -5973358.991 8  -4596408.489 7  20889445.219
 11  8  5 21 18  0.0000000  0  8G07G24G08G04G11G26G28G17
  10090270.659 7   7865530.963 6  22749458.000
   2175283.29547   1701101.62145  22389736.9694                   22389739.4224
   3230042.26548   2524278.72446  20673619.3594                   20673620.5314
  -5227053.58446  -4017376.17643  23475136.0314                   23475140.3984
   8280284.50546   6455622.39843  23316598.6954                   23316599.6214
   2561930.48847   2002289.98544  23297940.8364                   23297944.9024
  -2805242.90148  -2179586.27246  21279363.0784                   21279363.0164
  -5994102.371 8  -4612572.166 7  20885498.031
 11  8  5 21 18 30.0000000  0  8G07G24G08G04G11G26G28G17
  10192225.131 7   7944975.876 7  22768859.445
   2229547.06547   1743385.01245  22400062.9614                   22400065.1294
   3293458.34148   2573693.79146  20685687.1484                   20685688.1174
  -5339798.86547  -4105229.57043  23453681.6804                   23453685.4734
   8371971.74846   6527066.87943  23334046.0474                   23334046.3094
   2615838.49846   2044296.09044  23308198.9694                   23308202.8014
  -2820649.16448  -2191591.17946  21276430.9224                   21276431.1054
  -6014509.538 8  -4628473.863 7  20881614.813
 11  8  5 21 19  0.0000000  0  8G07G24G08G04G11G26G28G17
  10294443.954 7   8024626.783 7  22788311.070
   2284314.15947   1786060.59445  22410484.6564                   22410487.3324
   3357408.80748   2623525.26046  20697856.2034                   20697857.7074
  -5452463.79246  -4193020.32544  23432241.9304                   23432246.6094
   8463961.47246   6598747.07343  23351550.8054                   23351552.5084
   2670141.38947   2086609.93044  23318533.3444                   23318535.8834
  -2835952.04448  -2203515.53446  21273519.3524                   21273519.2814
  -6034580.276 8  -4644113.416 7  20877795.102
 11  8  5 21 19 30.0000000  0  8G07G24G08G04G11G26G28G17
  10396924.553 7   8104481.671 6  22807812.922
   2339582.63347   1829126.85345  22421002.1024                   22421004.5514
   3421892.20648   2673772.00146  20710126.8914                   20710128.1644
  -5565045.56846  -4280746.30143  23410819.0314                   23410822.3014
   8556250.73546   6670660.63743  23369113.0944                   23369114.1954
   2724836.07247   2129229.06144  23328941.2664                   23328945.0594
  -2851150.48648  -2215358.49146  21270626.6024                   21270627.1294
  -6054315.764 8  -4659491.733 7  20874040.023
 11  8  5 21 20  0.0000000  0  8G07G24G08G04G11G26G28G17
  10499663.624 7   8184537.970 7  22827363.781
   2395349.99347   1872581.86645  22431614.4224                   22431617.1054
   3486906.06448   2724432.09046  20722498.8984                   20722500.1334
  -5677542.40247  -4368406.10844  23389411.2344                   23389415.0554
   8648836.07346   6742804.90843  23386732.4384                   23386732.9494
   2779918.95847   2172150.67044  23339423.2974                   23339426.2194
  -2866244.38948  -2227120.00946  21267754.8364                   21267754.8984
  -6073717.689 8  -4674610.134 7  20870347.867
 11  8  5 21 20 30.0000000  0  8G07G24G08G04G11G26G28G17
  10602661.264 7   8264795.754 6  22846964.211
   2451616.55047   1916425.87845  22442321.6024                   22442324.2544
   3552451.06848   2775506.06046  20734971.7344                   20734973.2974
  -5789949.00346  -4455995.61644  23368021.2664                   23368024.6764
   8741717.27546   6815179.76043  23404406.7344                   23404407.8674
   2835389.34846   2215374.25843  23349978.5394                   23349982.1644
  -2881230.40948  -2238797.45746  21264903.1414                   21264903.1054
  -6092784.433 8  -4689467.367 7  20866719.883
 11  8  5 21 21  0.0000000  0  8G07G24G08G04G11G26G28G17
  10705913.762 7   8345252.130 6  22866611.836
   2508379.87847   1960656.95944  22453123.1644                   22453125.5394
   3618524.49848   2826991.77846  20747545.3524                   20747546.4654
  -5902263.38947  -4543513.24743  23346647.9384                   23346651.7424
   8834890.47847   6887782.16843  23422136.1884                   23422137.6564
   2891243.09346   2258896.53343  23360607.0784                   23360611.3674
  -2896108.23147  -2250390.59346  21262072.2504                   21262071.9574
  -6111517.707 8  -4704064.729 7  20863154.961
 11  8  5 21 21 30.0000000  0  8G07G24G08G04G11G26G28G17
  10809417.750 7   8425904.431 6  22886307.859
   2565636.95447   2005272.79244  22464018.6564                   22464021.4414
   3685123.57048   2878887.08246  20760218.5314                   20760219.7074
  -6014484.00947  -4630957.83343  23325292.9694                   23325296.4884
   8928352.69647   6960609.72843  23439922.3984                   23439924.0784
   2947476.19746   2302714.43044  23371308.4304                   23371312.3794
  -2910878.14948  -2261899.66046  21259261.2664                   21259261.4414
  -6129919.941 8  -4718404.147 7  20859652.898
 11  8  5 21 22  0.0000000  0  8G07G24G08G04G11G26G28G17
  10913169.606 7   8506749.935 6  22906051.648
   2623384.85947   2050271.07444  22475008.4224                   22475010.1604
   3752246.27148   2931190.42146  20772991.8444                   20772993.3754
  -6126608.98047  -4718327.88944  23303956.2274                   23303960.2734
   9022099.41346   7033659.01743  23457761.6484                   23457763.6134
   3004084.74447   2346824.90143  23382081.0634                   23382084.2544
  -2925540.08248  -2273324.58946  21256471.1804                   21256471.6174
  -6147992.907 8  -4732487.007 7  20856214.047
 11  8  5 21 22 30.0000000  0  8G07G24G08G04G11G26G28G17
  11017171.146 7   8587789.957 6  22925842.398
   2681625.54647   2095653.34344  22486090.9454                   22486093.1954
   3819894.75548   2983903.46046  20785864.7344                   20785866.1644
  -6238631.36347  -4805617.97244  23282639.0314                   23282642.8204
   9116132.04247   7106931.03444  23475655.5944                   23475657.7974
   3061069.58447   2391228.54344  23392924.8834                   23392928.3874
  -2940088.77448  -2284661.27246  21253702.7664                   21253702.8554
  -6165733.491 8  -4746310.861 7  20852838.000
 11  8  5 21 23  0.0000000  0  8G07G24G08G04G11G26G28G17
  11121417.606 7   8669020.844 6  22945680.461
   2740355.14747   2141416.57244  22497266.8364                   22497269.2624
   3888064.46948   3037022.65246  20798836.9064                   20798838.3954
  -6350550.51447  -4892827.63843  23261340.8914                   23261345.2624
   9210446.23547   7180422.48343  23493603.7504                   23493605.3674
   3118425.57846   2435921.41443  23403838.8284                   23403842.9384
  -2954525.43748  -2295910.66446  21250955.5004                   21250955.5004
  -6183144.629 8  -4759877.998 7  20849524.766
 11  8  5 21 23 30.0000000  0  8G07G24G08G04G11G26G28G17
  11225904.061 7   8750438.725 6  22965562.805
   2799569.47447   2187557.51344  22508535.0554                   22508537.7274
   3956751.85648   3090545.21846  20811907.9224                   20811909.9024
  -6462365.80847  -4979956.43144  23240064.1174                   23240066.8714
   9305036.68346   7254129.13944  23511603.4844                   23511606.2074
   3176147.66047   2480899.53044  23414824.0234                   23414827.7424
  -2968851.05047  -2307073.52446  21248229.5164                   21248229.9574
  -6200229.677 7  -4773191.046 7  20846273.523
 11  8  5 21 24  0.0000000  0  8G07G24G08G04G11G26G28G17
  11330632.434 7   8832045.104 6  22985493.078
   2859270.70947   2234077.89444  22519895.8204                   22519897.7934
   4025959.34748   3144473.06846  20825077.7034                   20825079.1174
  -6574070.34947  -5066998.86044  23218807.5704                   23218810.7114
   9399904.68546   7328052.10243  23529655.5554                   23529658.3984
   3234236.75747   2526163.69644  23425878.4774                   23425880.9694
  -2983060.48848  -2318145.85646  21245526.0394                   21245525.4844
  -6216985.519 8  -4786247.568 8  20843084.867
 11  8  5 21 24 30.0000000  0  8G07G24G08G04G11G26G28G17
  11435598.354 7   8913836.592 6  23005466.844
   2919455.06747   2280974.71644  22531348.5164                   22531351.2304
   4095683.36348   3198803.40246  20838345.7504                   20838347.3284
  -6685663.03047  -5153954.13243  23197571.5474                   23197575.3444
   9495046.43146   7402188.34343  23547761.5474                   23547763.6804
   3292687.74147   2571709.79944  23437000.2344                   23437004.2814
  -2997154.60048  -2329128.32146  21242843.5704                   21242843.7154
  -6233414.734 8  -4799049.574 8  20839958.633
 11  8  5 21 25  0.0000000  0  8G07G24G08G04G11G26G28G17
  11540797.898 7   8995810.098 6  23025485.578
   2980118.92347   2328245.17844  22542892.7814                   22542895.0784
   4165920.32748   3253533.42946  20851711.4844                   20851713.3834
  -6797142.62947  -5240821.29643  23176357.8754                   23176361.3954
   9590457.12747   7476534.19944  23565917.0554                   23565919.8324
   3351496.35247   2617534.56844  23448192.0784                   23448194.6844
  -3011133.78748  -2340021.23046  21240183.6174                   21240183.4964
  -6249519.948 8  -4811599.115 7  20836893.789
 11  8  5 21 25 30.0000000  0  8G07G24G08G04G11G26G28G17
  11646231.780 7   9077966.245 6  23045549.297
   3041263.81647   2375890.48744  22554528.5634                   22554530.7624
   4236672.18748   3308664.66346  20865175.1414                   20865176.9694
  -6908502.73547  -5327595.38444  23155166.6724                   23155170.1644
   9686137.64546   7551090.23643  23584125.1484                   23584127.4494
   3410662.52047   2663637.96544  23459450.8524                   23459454.4454
  -3024993.53048  -2350821.06446  21237545.8834                   21237546.1454
  -6265298.605 8  -4823894.196 8  20833891.313
 11  8  5 21 26  0.0000000  0  9G07G24G08G04G11G26G28G27G17
  11751894.618 7   9160300.775 6  23065656.797
   3102884.88347   2423906.80445  22566255.0704                   22566257.3554
   4307934.14248   3364193.38646  20878736.2584                   20878737.3914
  -7019743.38047  -5414276.35144  23133998.0634                   23134001.5004
   9782082.21447   7625852.07543  23602382.6024                   23602385.0634
   3470180.69847   2710015.65244  23470776.9224                   23470780.1994
  -3038735.45548  -2361529.08946  21234931.0704                   21234931.1484
   -807686.356 5                  25094599.727
  -6280754.519 8  -4835937.787 8  20830950.328
 11  8  5 21 26 30.0000000  0  9G07G24G08G04G11G26G28G27G17
  11857786.146 7   9242813.503 6  23085806.852
   3164982.05247   2472294.11945  22578071.2274                   22578074.6844
   4379706.11448   3420119.52946  20892393.5784                   20892395.7154
  -7130859.89147  -5500860.61744  23112852.8914                   23112856.9694
   9878290.19946   7700819.18743  23620690.5704                   23620692.3364
   3530049.35446   2756666.41844  23482169.2194                   23482173.0864
  -3052356.51648  -2372142.93446  21232338.9924                   21232339.4104
   -899473.21345   -152089.91442  25077135.2424                   25077140.0744
  -6295886.949 8  -4847729.305 7  20828070.461
 11  8  5 21 27  0.0000000  0  9G07G24G08G04G11G26G28G27G17
  11963900.929 7   9325500.185 6  23106000.234
   3227550.68847   2521048.81844  22589977.2424                   22589980.6914
   4451983.65248   3476439.59546  20906147.7664                   20906149.4884
  -7241851.88947  -5587347.83544  23091732.1484                   23091735.7774
   9974756.63947   7775987.65143  23639047.9064                   23639049.5044
   3590263.24847   2803586.17744  23493628.4534                   23493631.7814
  -3065858.45548  -2382663.94746  21229769.9304                   21229770.1414
   -991152.69646   -223528.40743  25059690.1174                   25059695.8134
  -6310699.346 8  -4859271.440 7  20825251.781
 11  8  5 21 27 30.0000000  0  9G07G24G08G04G11G26G28G27G17
  12070239.006 7   9408360.881 6  23126235.211
   3290591.08847   2570171.10744  22601974.0084                   22601976.3444
   4524767.08548   3533153.88646  20919997.7194                   20919999.7584
  -7352714.40547  -5673734.18744  23070635.3204                   23070639.6254
  10071480.98847   7851357.15243  23657453.4144                   23657454.8404
   3650821.41847   2850774.26944  23505151.8524                   23505155.5164
  -3079237.58947  -2393089.26146  21227223.8674                   21227224.4964
  -1082720.55546   -294879.95443  25042264.9534                   25042271.6294
  -6325190.454 7  -4870563.233 7  20822493.984
 11  8  5 21 28  0.0000000  0  9G07G24G08G04G11G26G28G27G17
  12176797.558 7   9491393.347 6  23146513.188
   3354100.65647   2619658.99244  22614059.3204                   22614062.6054
   4598054.76847   3590261.08046  20933944.4144                   20933945.9064
  -7463444.68447  -5760017.45144  23049564.6094                   23049568.4144
  10168460.26846   7926925.23843  23675908.1484                   23675910.1844
   3711720.40046   2898227.89344  23516741.3594                   23516745.1334
  -3092493.08748  -2403418.24346  21224701.8914                   21224701.7734
  -1174174.82446   -366142.94843  25024862.6484                   25024868.6724
  -6339361.433 8  -4881605.577 8  20819797.445
 11  8  5 21 28 30.0000000  0  9G07G24G08G04G11G26G28G27G17
  12283573.791 7   9574595.465 6  23166832.211
   3418077.33147   2669510.86844  22626233.7344                   22626236.5274
   4671844.08647   3647759.16646  20947985.8594                   20947987.5634
  -7574040.03247  -5846195.61344  23028518.7664                   23028522.8014
  10265691.50847   8002689.70843  23694411.1724                   23694412.2424
   3772956.87147   2945944.48544  23528393.7114                   23528398.3754
  -3105623.89448  -2413650.06346  21222202.7734                   21222203.1174
  -1265513.37446   -437315.84044  25007481.1954                   25007487.4614
  -6353213.670 8  -4892399.549 7  20817161.625
 11  8  5 21 29  0.0000000  0  9G07G24G08G04G11G26G28G27G17
  12390564.876 7   9657964.957 6  23187191.781
   3482518.71547   2719724.84044  22638496.7424                   22638499.7704
   4746132.39547   3705646.07446  20962122.8914                   20962124.8094
  -7684497.82447  -5932266.57444  23007499.7114                   23007503.3754
  10363171.70546   8078648.15943  23712960.9844                   23712962.2344
   3834527.22847   2993921.25844  23540110.7974                   23540115.2624
  -3118629.54948  -2423784.35446  21219727.5864                   21219727.8164
  -1356734.57646   -508397.25043  24990122.8364                   24990128.6724
  -6366748.495 8  -4902946.185 8  20814585.984
 11  8  5 21 29 30.0000000  0  9G07G24G08G04G11G26G28G27G17
  12497768.436 7   9741500.028 6  23207592.031
   3547423.02047   2770299.53944  22650847.7974                   22650850.8134
   4820918.72848   3763921.06346  20976353.8754                   20976355.9184
  -7794815.16147  -6018228.11444  22986507.4144                   22986510.7304
  10460898.50746   8154798.77443  23731557.4694                   23731560.0004
   3896428.84147   3042156.15944  23551889.9454                   23551894.2774
  -3131508.37848  -2433819.82346  21217276.8834                   21217277.1804
  -1447835.84846   -579385.21643  24972786.2344                   24972792.4884
  -6379966.527 8  -4913245.979 7  20812070.852
 11  8  5 21 30  0.0000000  0  9G07G24G08G04G11G26G28G27G17
  12605182.346 7   9825199.035 6  23228032.430
   3612788.54147   2821233.59744  22663286.9454                   22663289.0634
   4896201.14947   3822582.59446  20990679.9774                   20990681.9654
  -7904988.64547  -6104077.52344  22965541.2194                   22965544.8754
  10558869.77947   8231139.86443  23750201.2274                   23750203.6414
   3958658.97547   3090647.05644  23563731.9144                   23563736.7194
  -3144258.65948  -2443755.12246  21214851.0234                   21214851.2504
  -1538814.69046   -650277.78943  24955474.0784                   24955479.0274
  -6392868.366 8  -4923299.383 7  20809615.367
 11  8  5 21 30 30.0000000  0  9G07G24G08G04G11G26G28G27G17
  12712804.217 7   9909060.058 6  23248513.031
   3678612.80047   2872525.11544  22675812.8444                   22675815.2664
   4971977.43547   3881628.96246  21005100.0634                   21005101.2624
  -8015015.61347  -6189812.79644  22944603.1724                   22944607.7814
  10657082.54846   8307669.11543  23768889.8984                   23768891.9884
   4021214.00947   3139391.07344  23575635.9304                   23575640.8284
  -3156879.79248  -2453589.79146  21212449.2114                   21212449.9184
  -1629669.21746   -721073.47143  24938184.3444                   24938189.2304
  -6405455.295 8  -4933107.411 7  20807220.406
 11  8  5 21 31  0.0000000  0  9G07G24G08G04G11G26G28G27G17
  12820630.457 7   9993080.337 6  23269031.602
   3744892.95447   2924171.90444  22688425.5164                   22688427.8834
   5048244.98248   3941058.12646  21019613.0004                   21019614.9024
  -8124893.82647  -6275432.14144  22923694.5004                   22923698.4224
  10755533.45846   8384383.92043  23787625.8204                   23787627.1484
   4084090.28647   3188385.45144  23587601.3444                   23587605.6334
  -3169371.07548  -2463323.27346  21210072.4924                   21210072.5594
  -1720397.92546   -791771.16443  24920919.7344                   24920923.7464
  -6417729.104 8  -4942671.430 7  20804884.797
 11  8  5 21 31 30.0000000  0  9G07G24G08G04G11G26G28G27G17
  12928660.646 7  10077259.536 6  23289589.414
   3811628.86447   2976173.81844  22701125.1174                   22701127.2704
   5125004.07748   4000870.32046  21034219.7344                   21034221.7934
  -8234618.07947  -6360931.54944  22902814.5004                   22902818.0164
  10854221.83746   8461283.81743  23806405.0864                   23806407.2034
   4147286.59747   3237629.17844  23599626.9304                   23599632.0394
  -3181729.30948  -2472953.08946  21207720.6254                   21207720.8204
  -1810996.54346   -862367.48043  24903679.4614                   24903682.3444
  -6429688.814 8  -4951990.714 8  20802609.164
 11  8  5 21 32  0.0000000  0  9G07G24G08G04G11G26G28G27G17
  13036890.720 7  10161594.476 6  23310184.492
   3878816.39047   3028527.63644  22713910.1724                   22713912.3714
   5202250.13648   4061061.95945  21048919.3914                   21048921.0204
  -8344187.92347  -6446310.60944  22881965.0004                   22881968.1764
  10953142.95746   8538365.00043  23825229.6644                   23825231.9344
   4210797.74647   3287118.22844  23611712.2974                   23611717.6214
  -3193955.01648  -2482479.61846  21205393.9924                   21205394.0354
  -1901464.98146   -932862.38143  24886463.9454                   24886466.9804
  -6441337.169 8  -4961067.376 7  20800392.813
 11  8  5 21 32 30.0000000  0  9G07G24G08G04G11G26G28G27G17
  13145318.163 7  10246083.217 6  23330818.297
   3946453.88647   3081232.08744  22726780.4614                   22726783.6844
   5279981.86348   4121632.04345  21063711.6484                   21063712.7774
  -8453599.52547  -6531566.38844  22861143.5394                   22861147.4884
  11052295.12446   8615626.24643  23844097.7344                   23844100.5044
   4274621.25247   3336850.66844  23623857.4924                   23623862.7114
  -3206046.70648  -2491901.72346  21203093.0234                   21203092.9224
  -1991800.39046  -1003253.63542  24869274.1484                   24869276.2344
  -6452674.699 8  -4969901.833 7  20798235.023
 11  8  5 21 33  0.0000000  0  9G07G24G08G04G11G26G28G27G17
  13253939.874 7  10330723.315 6  23351488.250
   4014538.96447   3134285.25444  22739737.7424                   22739740.0004
   5358196.70948   4182578.58345  21078595.2504                   21078596.8484
  -8562850.82247  -6616697.24244  22840354.4064                   22840357.0434
  11151675.16446   8693065.01143  23863009.3054                   23863011.8134
   4338753.50347   3386823.66744  23636061.9774                   23636067.0944
  -3218004.01447  -2501219.11646  21200817.7504                   21200817.4384
  -2082001.32245  -1073540.10842  24852108.2194                   24852112.2424
  -6463703.456 8  -4978495.686 7  20796136.055
 11  8  5 21 33 30.0000000  0  9G07G24G08G04G11G26G28G27G17
  13362754.572 7  10415513.852 6  23372195.266
   4083070.55447   3187686.41844  22752778.4844                   22752781.6134
   5436893.75048   4243900.86346  21093570.5784                   21093572.5474
  -8671937.53647  -6701699.86744  22819596.2034                   22819599.1564
  11251281.14146   8770679.87543  23881963.3364                   23881966.3594
   4403192.38347   3437035.64644  23648323.7114                   23648329.3834
  -3229824.03548  -2510429.53346  21198568.5084                   21198568.5704
  -3747484.05645  -2371318.86542  24834968.9534                   24834974.9614
  -6474422.894 8  -4986848.512 7  20794096.367
 11  8  5 21 34  0.0000000  0  9G07G24G08G04G11G26G28G27G17
  13471759.205 7  10500452.308 6  23392938.383
   4152045.70147   3241433.17544  22765903.8364                   22765907.3954
   5516070.04048   4305596.57645  21108637.7504                   21108639.2154
  -8780857.51847  -6786572.53144  22798868.8444                   22798872.7274
  11351109.65946   8848468.13643  23900960.9064                   23900963.8834
   4467933.88547   3487483.40344  23660644.8524                   23660649.5314
  -3241506.49048  -2519532.76146  21196345.4844                   21196345.5314
  -3837407.40046  -2441388.97342  24817857.4304                   24817864.4884
  -6484835.123 8  -4994961.955 8  20792114.766
 11  8  5 21 34 30.0000000  0  9G07G24G08G04G11G26G28G27G17
  13580952.486 7  10585537.777 6  23413717.133
   4221463.37147   3295524.79644  22779113.8054                   22779116.8094
   5595724.97748   4367665.26046  21123795.5784                   21123797.7194
  -8889606.61747  -6871312.08144  22778174.6334                   22778178.1914
  11451159.56546   8926428.91443  23919999.4694                   23920002.6644
   4532976.31047   3538165.64044  23673021.9774                   23673026.7704
  -3253048.59948  -2528526.63646  21194148.7664                   21194149.4384
  -3927187.48846  -2511347.55742  24800772.7894                   24800780.3244
  -6494939.658 8  -5002835.627 7  20790192.258
 11  8  5 21 35  0.0000000  0  9G07G24G08G04G11G26G28G27G17
  13690328.817 7  10670765.926 6  23434530.672
   4291318.26947   3349957.08544  22792406.9224                   22792409.8164
   5675853.42648   4430102.92145  21139043.7894                   21139045.3754
  -8998184.92347  -6955918.54644  22757513.1024                   22757516.6174
  11551425.23646   9004557.82443  23939080.2584                   23939082.0944
   4598313.45846   3589077.52444  23685454.9694                   23685460.2274
  -3264452.18548  -2537412.55446  21191978.9614                   21191979.2814
  -4016825.13246  -2581195.14643  24783717.3524                   24783722.8444
  -6504740.694 8  -5010472.824 7  20788326.797
 11  8  5 21 35 30.0000000  0  9G07G24G08G04G11G26G28G27G17
  13799886.614 6  10756135.427 6  23455378.398
   4361609.19447   3404729.12044  22805782.8674                   22805785.7424
   5756453.76748   4492908.29745  21154381.2894                   21154383.6374
  -9106588.41347  -7040388.76544  22736884.1484                   22736887.5744
  11651905.29847   9082853.77443  23958200.7504                   23958203.8834
   4663943.13347   3640217.37244  23697944.1954                   23697948.5554
  -3275715.11748  -2546188.89046  21189835.7664                   21189835.7194
  -4106316.94846  -2650929.09743  24766686.5634                   24766692.8954
  -6514238.159 8  -5017873.463 7  20786519.594
 11  8  5 21 36  0.0000000  0  9G07G24G08G04G11G26G28G27G17
  13909625.852 6  10841646.370 6  23476261.578
   4432336.50247   3459841.23044  22819241.7734                   22819245.0084
   5837526.56947   4556081.81045  21169809.1414                   21169810.9104
  -9214811.84247  -7124718.68944  22716290.0234                   22716293.2814
  11752599.40947   9161316.53043  23977362.3754                   23977365.3834
   4729864.59747   3691584.55444  23710489.2194                   23710493.4694
  -3286833.59648  -2554852.66546  21187720.0004                   21187719.9224
  -4195658.72246  -2720546.07743  24749685.0084                   24749691.3164
  -6523430.624 8  -5025036.441 7  20784770.664
 11  8  5 21 36 30.0000000  0  9G07G24G08G04G11G26G28G27G17
  14019541.826 6  10927294.983 6  23497177.711
   4503495.61747   3515289.78244  22832783.3444                   22832786.3714
   5919067.17648   4619619.85145  21185325.6254                   21185327.6024
  -9322854.55547  -7208907.78844  22695729.9614                   22695733.3014
  11853502.72747   9239942.28143  23996564.1174                   23996566.4454
   4796072.25247   3743174.74744  23723088.5634                   23723093.0554
  -3297808.70547  -2563404.73146  21185631.6644                   21185631.2704
  -4284850.20147  -2790045.99843  24732712.9304                   24732718.1024
  -6532321.712 7  -5031964.589 7  20783078.836
 11  8  5 21 37  0.0000000  0  9G07G24G08G04G11G26G28G27G17
  14129633.290 6  11013080.339 6  23518127.898
   4575085.64547   3571074.13444  22846406.5004                   22846409.6724
   6001075.39348   4683522.26945  21200931.8834                   21200933.8554
  -9430712.00847  -7292952.53644  22675205.5864                   22675209.0864
  11954614.00646   9318730.08943  24015804.8594                   24015807.7194
   4862564.23947   3794986.54244  23735741.1334                   23735745.4694
  -3308637.56147  -2571842.82546  21183571.0164                   21183570.7814
  -4373887.59646  -2859425.78643  24715770.1334                   24715775.5434
  -6540910.912 7  -5038657.484 7  20781444.352
 11  8  5 21 37 30.0000000  0  9G07G24G08G04G11G26G28G27G17
  14239895.411 6  11098998.654 6  23539110.453
   4647101.83847   3627190.52844  22860110.4064                   22860114.0944
   6083546.01547   4747785.00545  21216625.0084                   21216627.3794
  -9538383.91147  -7376852.70244  22654716.4384                   22654720.1094
  12055928.31046   9397676.11443  24035084.8984                   24035087.2974
   4929335.11447   3847015.60544  23748447.1024                   23748452.2234
  -3319321.51847  -2580168.01946  21181538.0474                   21181537.7464
  -4462771.09846  -2928685.66243  24698856.0634                   24698861.4884
  -6549201.696 7  -5045117.860 7  20779866.898
 11  8  5 21 38  0.0000000  0  9G07G24G08G04G11G26G28G27G17
  14350327.563 6  11185049.553 6  23560124.164
   4719544.18847   3683638.97644  22873896.2814                   22873899.6644
   6166478.90747   4812407.93945  21232407.0394                   21232408.9534
  -9645865.02747  -7460604.18744  22634263.0004                   22634267.3404
  12157445.15546   9476779.94243  24054402.5164                   24054405.3014
   4996383.82646   3899261.21543  23761205.8984                   23761210.6994
  -3329857.15548  -2588377.64846  21179533.1484                   21179533.3094
  -4551496.42846  -2997822.27343  24681971.0784                   24681977.4964
  -6557193.039 8  -5051344.908 7  20778346.078
 11  8  5 21 38 30.0000000  0  9G07G24G08G04G11G26G28G27G17
  14460927.012 6  11271230.753 6  23581171.547
   4792409.93947   3740417.38144  22887762.1884                   22887765.7624
   6249871.79548   4877389.30845  21248276.2734                   21248278.3284
  -9753152.80547  -7544205.03744  22613846.9304                   22613850.8674
  12259161.80846   9556039.45143  24073758.0634                   24073762.3524
   5063707.10047   3951720.71643  23774017.4614                   23774022.5514
  -3340243.38048  -2596470.85546  21177556.3134                   21177556.5164
  -4640061.56646  -3066834.05543  24665118.2974                   24665124.1054
  -6564886.383 8  -5057339.752 7  20776882.141
 11  8  5 21 39  0.0000000  0  9G07G24G08G04G11G26G28G27G17
  14571690.792 6  11357540.023 6  23602249.781
   4865696.31647   3797523.52644  22901708.4614                   22901711.4964
   6333721.86148   4942726.93145  21264232.1484                   21264234.5234
  -9860244.87647  -7627653.38944  22593467.7274                   22593471.2154
  12361074.84646   9635452.00843  24093152.3134                   24093154.9144
   5131300.75247   4004390.93243  23786880.9384                   23786884.7234
  -3350479.32948  -2604446.95546  21175608.8984                   21175608.6954
  -4728464.90046  -3135719.72243  24648296.6094                   24648301.5124
  -6572283.406 8  -5063103.676 8  20775474.344
 11  8  5 21 39 30.0000000  0  9G07G24G08G04G11G26G28G27G17
  14682616.209 6  11443975.209 6  23623357.891
   4939401.02147   3854955.65044  22915734.1484                   22915737.3634
   6418026.74148   5008418.94545  21280275.2894                   21280277.4924
  -9967138.11547  -7710946.80544  22573127.0864                   22573131.1254
  12463181.77346   9715015.66542  24112582.3754                   24112585.9774
   5199161.93547   4057269.60744  23799794.7034                   23799798.6454
  -3360564.04348  -2612305.21446  21173689.6484                   21173690.0984
  -4816704.09646  -3204477.46743  24631504.9774                   24631508.6994
  -6579384.951 8  -5068637.358 7  20774122.883
 11  8  5 21 40  0.0000000  0  9G07G24G08G04G11G26G28G27G17
  14793699.694 6  11530533.601 6  23644496.344
   5013520.87747   3912711.28844  22929838.1174                   22929842.0744
   6502782.91747   5074462.61445  21296403.3674                   21296405.7274
 -10073830.77447  -7794083.91744  22552824.3134                   22552827.2734
  12565478.78946   9794727.36343  24132048.5634                   24132052.7344
   5267286.17846   4110353.29844  23812757.6804                   23812762.8444
  -3370496.75948  -2620045.03446  21171799.8054                   21171799.8364
  -4904777.88846  -3273106.35643  24614745.5784                   24614749.3094
  -6586193.137 8  -5073942.452 8  20772827.250
 11  8  5 21 40 30.0000000  0  9G07G24G08G04G11G26G28G27G17
  14904941.138 6  11617215.039 6  23665664.539
   5088055.78047   3970790.32044  22944022.2344                   22944025.7464
   6587990.81747   5140858.28445  21312618.1334                   21312620.2544
 -10180317.71947  -7877060.75844  22532560.6724                   22532563.9454
  12667965.89146   9874587.21343  24151552.7814                   24151555.5594
   5335672.72447   4163641.35543  23825770.9064                   23825776.4024
  -3380274.05148  -2627663.75446  21169938.9774                   21169939.4534
  -4992681.77246  -3341602.75743  24598016.3834                   24598021.7544
  -6592707.148 8  -5079018.308 7  20771588.156
 11  8  5 21 41  0.0000000  0  9G07G24G08G04G11G26G28G27G17
  15016336.792 6  11704016.645 6  23686862.977
   5163002.33747   4029190.10944  22958283.4844                   22958288.0634
   6673647.06747   5207603.31645  21328918.2584                   21328920.7584
 -10286596.80747  -7959875.62244  22512336.2894                   22512339.1844
  12770639.56346   9954592.43243  24171089.7424                   24171093.8634
   5404317.30747   4217130.45744  23838834.1024                   23838839.0164
  -3389895.48648  -2635161.01446  21168107.8594                   21168108.8134
  -5080414.43646  -3409965.76343  24581321.3984                   24581326.4344
  -6598928.702 8  -5083866.280 7  20770404.023
 11  8  5 21 41 30.0000000  0  9G07G24G08G04G11G26G28G27G17
  15127883.939 6  11790936.300 6  23708090.242
   5238357.77447   4087908.51544  22972623.4844                   22972627.4614
   6759748.58147   5274695.30645  21345302.9844                   21345305.1294
 -10392665.45747  -8042526.51644  22492152.1954                   22492154.7194
  12873496.74846  10034740.61843  24190663.3524                   24190666.8134
   5473216.26247   4270817.78744  23851945.2814                   23851950.2274
  -3399360.08948  -2642536.07146  21166307.1644                   21166307.3364
  -5167973.85646  -3478193.79143  24564660.0784                   24564664.5234
  -6604859.559 8  -5088487.726 8  20769275.641
 11  8  5 21 42  0.0000000  0  9G07G24G08G04G11G26G28G27G17
  15239580.115 6  11877972.066 6  23729345.063
   5314119.69047   4146943.65544  22987040.8524                   22987044.6804
   6846293.29347   5342132.63945  21361771.9534                   21361774.0354
 -10498520.82647  -8125011.20144  22472008.2114                   22472011.1214
  12976534.94646  10115029.85343  24210270.7504                   24210274.6134
   5542366.39747   4324700.85844  23865104.3524                   23865109.4734
  -3408666.66447  -2649787.98946  21164535.9924                   21164536.7034
  -5255357.70046  -3546285.00343  24548032.1804                   24548037.0664
  -6610500.635 8  -5092883.388 8  20768201.883
 11  8  5 21 42 30.0000000  0  9G07G24G08G04G11G26G28G27G17
  15351422.898 6  11965122.043 6  23750627.484
   5390286.15647   4206294.04144  23001535.1484                   23001538.7034
   6933278.95447   5409913.56945  21378324.9454                   21378326.9844
 -10604159.71247  -8207327.21344  22451905.7664                   22451908.8484
  13079751.78246  10195458.31143  24229913.4844                   24229916.5234
   5611764.92647   4378777.46643  23878310.7034                   23878315.5744
  -3417813.52748  -2656915.44646  21162795.7114                   21162796.1804
  -5342563.69646  -3614237.65743  24531436.4224                   24531441.0314
  -6615852.788 8  -5097053.899 8  20767183.352
 11  8  5 21 43  0.0000000  0  9G07G24G08G04G11G26G28G27G17
  15463409.516 6  12052384.127 6  23771939.000
   5466854.85447   4265957.85444  23016105.4144                   23016108.9694
   7020703.40147   5478036.41545  21394961.2664                   21394963.4574
 -10709579.25647  -8289472.28444  22431844.8364                   22431848.5554
  13183144.89646  10276024.09743  24249587.7034                   24249591.7664
   5681408.57547   4433045.07744  23891563.3984                   23891569.0004
  -3426799.32948  -2663917.40346  21161085.7814                   21161085.6994
  -5429589.46846  -3682049.80843  24514876.3674                   24514881.5554
  -6620917.304 8  -5101000.304 8  20766219.602
 11  8  5 21 43 30.0000000  0  9G07G24G08G04G11G26G28G27G17
  15575535.447 6  12139754.763 6  23793275.125
   5543821.16047   4325931.49344  23030752.0234                   23030755.3834
   7108561.88147   5546497.47145  21411679.8834                   21411682.1094
 -10814778.40247  -8371445.64344  22411826.1804                   22411829.4694
  13286709.49846  10356723.51143  24269295.0474                   24269299.8094
   5751291.85447   4487499.41944  23904862.1334                   23904867.1374
  -3435624.86948  -2670794.48046  21159406.6564                   21159406.6294
  -5516434.85146  -3749721.46143  24498350.2274                   24498354.9494
  -6625697.260 8  -5104724.964 7  20765310.313
 11  8  5 21 44  0.0000000  0  9G07G24G08G04G11G26G28G27G17
  15687802.516 7  12227235.391 6  23814640.336
   5621187.06147   4386216.51044  23045474.4064                   23045477.2034
   7196856.24348   5615298.16445  21428481.9144                   21428484.4384
 -10919750.37447  -8453241.95744  22391850.9304                   22391853.9184
  13390447.37746  10437557.96243  24289037.3914                   24289040.0314
   5821415.93047   4542141.37244  23918205.9224                   23918211.6214
  -3444284.47548  -2677542.25246  21157758.8524                   21157758.3524
  -5603093.41746  -3817247.50643  24481859.4144                   24481865.0554
  -6630189.562 8  -5108225.472 7  20764455.477
 11  8  5 21 44 30.0000000  0  9G07G24G08G04G11G26G28G27G17
  15800205.070 6  12314821.573 6  23836029.203
   5698946.90147   4446808.48644  23060271.3834                   23060275.1994
   7285581.01847   5684434.23545  21445366.1954                   21445368.2274
 -11024495.04547  -8534861.17245  22371918.5944                   22371921.5314
  13494352.72746  10518522.83643  24308810.2114                   24308813.3954
   5891774.31947   4596965.92344  23931594.8984                   23931600.7114
  -3452779.95148  -2684162.11146  21156141.9534                   21156141.8914
  -5689565.81847  -3884628.50144  24465404.2274                   24465408.7584
  -6634398.555 8  -5111505.234 7  20763654.297
 11  8  5 21 45  0.0000000  0  9G07G24G08G04G11G26G28G27G17
  15912740.856 7  12402511.592 6  23857444.633
   5777098.53947   4507705.73744  23075142.8284                   23075147.2854
   7374734.26947   5753904.20045  21462331.3134                   21462333.3404
 -11129009.18647  -8616300.75544  22352030.3524                   22352033.9774
  13598423.31646  10599616.51443  24328613.8364                   24328617.4144
   5962364.09747   4651970.80943  23945028.1174                   23945032.9494
  -3461109.60348  -2690652.77246  21154556.9304                   21154556.5864
  -5775849.35146  -3951862.29744  24448984.8364                   24448989.9734
  -6638325.011 8  -5114564.820 7  20762907.289
 11  8  5 21 45 30.0000000  0  9G07G24G08G04G11G26G28G27G17
  16025409.049 7  12490304.766 6  23878884.430
   5855641.31647   4568907.77144  23090090.0314                   23090093.2894
   7464314.72447   5823707.04145  21479378.1174                   21479380.5904
 -11233288.29647  -8697557.16245  22332186.6564                   22332189.5944
  13702658.34446  10680838.34443  24348449.0864                   24348453.5664
   6033183.64047   4707154.67944  23958503.8594                   23958509.6094
  -3469270.39348  -2697011.85746  21153004.0004                   21153004.2664
  -5861940.23346  -4018945.99944  24432602.7344                   24432606.7734
  -6641968.430 8  -5117403.875 7  20762213.977
 11  8  5 21 46  0.0000000  0 10G07G24G08G04G11G26G28G27G20G17
  16138202.332 7  12578195.407 6  23900349.016
   5934568.01647   4630408.98944  23105108.6804                   23105112.6684
   7554315.66247   5893837.53745  21496504.4224                   21496506.7664
 -11337333.90447  -8778631.66545  22312387.1644                   22312390.3954
  13807050.72446  10762182.63642  24368314.4614                   24368319.5474
   6104225.41747   4762511.73243  23972023.3054                   23972029.2424
  -3477265.73248  -2703242.01546  21151482.2734                   21151482.6414
  -5947840.72946  -4085881.37943  24416257.3674                   24416260.9264
    -55297.23245     15356.76542  24615666.1024                   24615670.0164
  -6645334.643 7  -5120026.930 7  20761573.180
 11  8  5 21 46 30.0000000  0 10G07G24G08G04G11G26G28G27G20G17
  16251123.909 6  12666186.044 6  23921837.063
   6013882.34747   4692212.28044  23120202.1484                   23120205.5084
   7644740.32347   5964298.19945  21513711.8364                   21513714.4844
 -11441137.02147  -8859517.19044  22292634.3754                   22292637.5164
  13911603.96146  10843652.40642  24388211.0554                   24388215.1804
   6175492.03747   4818043.96244  23985584.8594                   23985591.2704
  -3485088.01948  -2709337.32346  21149993.6414                   21149993.9774
  -6033542.64346  -4152661.95143  24399947.6884                   24399951.5124
   -101627.72546    -20744.96542  24606849.6414                   24606853.9734
  -6648418.725 8  -5122430.139 8  20760986.039
 11  8  5 21 47  0.0000000  0 10G07G24G08G04G11G26G28G27G20G17
  16364166.422 7  12754270.881 6  23943349.195
   6093576.45947   4754311.47944  23135367.6024                   23135370.6454
   7735581.08147   6035083.09745  21530998.4924                   21531000.8244
 -11544700.42847  -8940215.93645  22272926.7504                   22272930.4064
  14016310.24146  10925241.41842  24408135.1484                   24408140.2074
   6246974.77347   4873744.66244  23999187.6884                   23999193.8444
  -3492740.98148  -2715300.70246  21148537.7344                   21148538.0554
  -6119048.93546  -4219290.12743  24383675.0474                   24383680.7304
   -147724.40546    -56664.47642  24598077.2504                   24598082.7304
  -6651226.866 7  -5124618.345 7  20760452.328
 11  8  5 21 47 30.0000000  0 10G07G24G08G04G11G26G28G27G20G17
  16477332.915 6  12842452.333 6  23964882.906
   6173653.76647   4816709.26944  23150605.3674                   23150609.1764
   7826841.24347   6106194.79745  21548364.6334                   21548367.4924
 -11648015.12147  -9020720.88145  22253266.3834                   22253269.8674
  14121172.90946  11006952.25742  24428091.1954                   24428095.2624
   6318676.49046   4929615.93543  24012832.6804                   24012838.5984
  -3500217.79848  -2721126.83446  21147114.9224                   21147115.2074
  -6204351.63246  -4285759.62643  24367443.0554                   24367448.5474
   -193578.62346    -92395.08642  24589351.9454                   24589356.8054
  -6653754.360 8  -5126587.861 7  20759971.422
 11  8  5 21 48  0.0000000  0 10G07G24G08G04G11G26G28G27G20G17
  16590616.267 6  12930724.826 6  23986440.281
   6254106.96946   4879399.98144  23165914.8984                   23165918.6844
   7918513.74047   6177627.80645  21565809.9224                   21565811.6684
 -11751082.92347  -9101033.44145  22233653.3754                   22233656.7774
  14226184.53446  11088779.13442  24448074.3444                   24448079.7194
   6390588.90746   4985651.39043  24026516.4224                   24026522.8634
  -3507521.87348  -2726818.35946  21145724.7584                   21145725.1644
  -6289453.19946  -4352072.42743  24351247.7814                   24351253.3674
   -239192.21246   -127938.16642  24580671.4224                   24580676.4064
  -6656007.716 8  -5128343.763 7  20759542.445
 11  8  5 21 48 30.0000000  0 10G07G24G08G04G11G26G28G27G20G17
  16704014.962 6  13019087.189 6  24008020.094
   6334935.12547   4942382.79244  23181297.3054                   23181300.9344
   8010597.21947   6249381.07545  21583332.3754                   21583334.9654
 -11853899.63547  -9181150.33445  22214087.7274                   22214091.3954
  14331344.08746  11170721.29042  24468086.0314                   24468091.3754
   6462710.49447   5041849.83443  24040241.5234                   24040247.3754
  -3514650.18248  -2732372.93746  21144368.6564                   21144368.9694
  -6374349.82346  -4418225.55043  24335092.8754                   24335097.1604
   -284561.20846   -163290.66442  24572037.9614                   24572042.8054
  -6657986.266 8  -5129885.534 7  20759165.711
 11  8  5 21 49  0.0000000  0 10G07G24G08G04G11G26G28G27G20G17
  16817526.734 6  13107537.661 6  24029621.250
   6416135.71246   5005655.86644  23196748.5394                   23196752.7154
   8103089.17347   6321452.59845  21600933.7974                   21600936.0084
 -11956462.16047  -9261069.16445  22194571.1804                   22194573.9614
  14436649.16846  11252776.83342  24488125.1564                   24488131.0204
   6535037.79846   5098208.58743  24054004.6094                   24054010.7074
  -3521601.10748  -2737789.28446  21143045.9924                   21143046.8484
  -6459039.04246  -4484217.10543  24318977.3834                   24318981.0354
   -329682.84246   -198450.43443  24563452.0944                   24563456.6644
  -6659691.053 8  -5131213.961 7  20758841.531
 11  8  5 21 49 30.0000000  0 10G07G24G08G04G11G26G28G27G20G17
  16931148.348 6  13196073.735 6  24051242.500
   6497705.53147   5069216.61044  23212270.7034                   23212274.7504
   8195986.78247   6393840.24345  21618611.4224                   21618613.6724
 -12058768.34947  -9340788.24844  22175102.5234                   22175106.2114
  14542097.12746  11334943.69642  24508191.5164                   24508197.1134
   6607567.21346   5154724.81743  24067807.6484                   24067813.7274
  -3528374.01048  -2743066.92246  21141756.7814                   21141757.7154
  -6543519.40047  -4550045.89743  24302901.0704                   24302905.5434
   -374554.78046   -233415.57743  24554913.6254                   24554917.7154
  -6661124.086 8  -5132330.641 7  20758568.742
 11  8  5 21 50  0.0000000  0 10G07G24G08G04G11G26G28G27G20G17
  17044878.469 7  13284694.343 6  24072885.227
   6579643.66447   5133064.36444  23227863.0474                   23227867.6724
   8289288.63747   6466542.87645  21636366.5634                   21636368.6604
 -12160813.92547  -9420304.26045  22155683.5944                   22155687.7814
  14647686.15546  11417220.49343  24528285.2114                   24528289.7344
   6680296.62446   5211396.91044  24081647.3444                   24081653.4964
  -3534966.26448  -2748203.78546  21140502.5234                   21140502.8834
  -6627787.24047  -4615709.13043  24286866.0704                   24286869.1024
   -419173.26246   -268183.24143  24546423.0164                   24546427.1844
  -6662285.265 8  -5133235.486 8  20758347.867
 11  8  5 21 50 30.0000000  0  9G07G24G08G04G26G28G27G20G17
  17158713.106 6  13373396.404 6  24094546.906
   6661945.66747   5197195.66544  23243524.7504                   23243529.0664
   8382990.10547   6539556.89745  21654197.1884                   21654199.4224
 -12262597.69847  -9499616.27045  22136315.2424                   22136318.6524
   6753221.02946   5268220.89343  24095524.8134                   24095530.2424
  -3541378.40548  -2753200.29746  21139282.6414                   21139282.3554
  -6711842.05747  -4681206.35343  24270870.4614                   24270874.4344
   -463537.56846   -302752.86343  24537980.5394                   24537984.8984
  -6663177.316 8  -5133930.606 8  20758178.250
 11  8  5 21 51  0.0000000  0  9G07G24G08G04G26G28G27G20G17
  17272650.032 7  13462178.180 6  24116228.578
   6744609.79547   5261609.10044  23259255.5004                   23259259.4264
   8477089.29947   6612880.83345  21672103.5234                   21672105.9614
 -12364116.14847  -9578721.50545  22116996.8284                   22117000.4304
   6826337.69146   5325194.74943  24109438.5084                   24109444.2734
  -3547608.20448  -2758054.72246  21138096.6024                   21138097.0044
  -6795680.74747  -4746535.16443  24254916.2194                   24254920.5004
   -507644.29546   -337121.75343  24529587.6414                   24529591.4774
  -6663800.839 8  -5134416.471 7  20758059.594
 11  8  5 21 51 30.0000000  0  9G07G24G08G04G26G28G27G20G17
  17386686.044 7  13551037.183 6  24137928.695
   6827632.90847   5326302.28044  23275054.2814                   23275058.3284
   8571583.19448   6686512.32045  21690084.8594                   21690087.8444
 -12465366.94347  -9657618.20545  22097729.6954                   22097732.9534
   6899643.10146   5382315.63443  24123387.9144                   24123394.3444
  -3553654.73748  -2762766.33646  21136946.1024                   21136946.5554
  -6879301.79646  -4811694.40643  24239003.7584                   24239008.0314
   -551491.09246   -371288.12243  24521243.8364                   24521248.0124
  -6664157.699 8  -5134694.550 7  20757991.766
 11  8  5 21 52  0.0000000  0  9G07G24G08G04G26G28G27G20G17
  17500819.977 7  13639972.410 6  24159648.906
   6911013.74147   5391274.18344  23290921.3674                   23290926.0274
   8666470.04747   6760450.00845  21708141.9614                   21708144.3164
 -12566346.05947  -9736303.20045  22078513.7274                   22078517.5594
   6973135.11547   5439581.89944  24137373.7424                   24137379.8634
  -3559515.50448  -2767333.19046  21135831.0634                   21135831.1954
  -6962701.68546  -4876681.27443  24223133.5634                   24223137.8984
   -595074.14346   -405248.96943  24512949.9534                   24512954.1024
  -6664247.845 8  -5134764.792 7  20757974.875
 11  8  5 21 52 30.0000000  0  9G07G24G08G04G26G28G27G20G17
  17615049.042 7  13728981.800 6  24181386.234
   6994749.46947   5456522.61444  23306856.4064                   23306860.5234
   8761747.31047   6834691.91245  21726273.1884                   21726274.9964
 -12667050.84548  -9814774.41145  22059350.1254                   22059353.8794
   7046810.29946   5496990.90343  24151394.1644                   24151399.7894
  -3565189.33148  -2771754.35946  21134751.5164                   21134752.0944
  -7045878.30846  -4941494.18343  24207305.0864                   24207309.8164
   -638391.10546   -439002.46543  24504706.6094                   24504711.4384
  -6664072.632 8  -5134628.255 7  20758008.039
 11  8  5 21 53  0.0000000  0  9G07G24G08G04G26G28G27G20G17
  17729370.881 7  13818063.488 6  24203140.875
   7078837.97847   5522045.93344  23322858.1254                   23322862.5784
   8857412.28347   6909235.93045  21744477.2274                   21744479.4734
 -12767478.29847  -9893029.54845  22040239.9064                   22040243.1644
   7120665.35846   5554540.12943  24165447.9064                   24165454.0164
  -3570674.66648  -2776028.66046  21133707.5314                   21133707.8754
  -7128829.10246  -5006131.15343  24191519.9384                   24191524.5164
   -681439.17646   -472546.45043  24496515.2034                   24496519.6094
  -6663632.813 8  -5134285.529 7  20758091.281
 11  8  5 21 53 30.0000000  0  9G07G24G08G04G26G28G27G20G17
  17843780.943 6  13907213.925 5  24224911.766
   7163274.59647   5587840.52044  23338925.3674                   23338930.1094
   8953460.58947   6984078.65045  21762754.0704                   21762757.1954
 -12867627.23347  -9971067.63945  22021181.6724                   22021185.2704
   7194695.33046   5612225.59643  24179535.1414                   24179541.3164
  -3575971.89548  -2780156.39446  21132699.7664                   21132700.1024
  -7211553.77746  -5070591.81943  24175778.4144                   24175782.1414
   -724217.43246   -505880.17243  24488374.9844                   24488378.8364
  -6662931.828 8  -5133739.298 7  20758225.039
 11  8  5 21 54  0.0000000  0  9G07G24G08G04G26G28G27G20G17
  17958279.474 6  13996433.330 6  24246701.242
   7248059.54447   5653906.49344  23355059.9774                   23355064.4414
   9049892.21047   7059220.05545  21781105.0944                   21781108.3164
 -12967492.36548 -10048884.58745  22002177.7894                   22002181.4104
   7268899.50246   5670046.87643  24193655.4534                   24193662.4924
  -3581077.03148  -2784134.43646  21131728.0704                   21131728.6374
  -7294047.43147  -5134872.57143  24160079.6094                   24160083.0354
   -766721.04846   -538999.90143  24480287.2114                   24480291.4064
  -6661968.201 8  -5132988.419 7  20758408.391
 11  8  5 21 54 30.0000000  0  9G07G24G08G04G26G28G27G20G17
  18072861.974 6  14085718.101 5  24268504.906
   7333188.47347   5720240.52544  23371259.8674                   23371264.4384
   9146702.60247   7134656.60045  21799527.4384                   21799529.8954
 -13067072.41847 -10126479.38945  21983228.3834                   21983232.0084
   7343272.97146   5728000.01043  24207808.5474                   24207815.3794
  -3585990.08048  -2787962.81346  21130793.2664                   21130793.6684
  -7376309.57146  -5198972.84943  24144425.0164                   24144429.6024
   -808948.62146   -571904.54743  24472251.0944                   24472255.2424
  -6660744.732 8  -5132035.044 7  20758641.125
 11  8  5 21 55  0.0000000  0  9G07G24G08G04G26G28G27G20G17
  18187526.384 6  14175066.788 5  24290324.984
   7418658.90647   5786840.61244  23387524.5004                   23387529.2734
   9243889.45647   7210386.48845  21818021.6254                   21818024.3324
 -13166364.32347 -10203849.66645  21964333.7664                   21964336.9224
   7417812.72146   5786082.72543  24221993.0314                   24221999.3754
  -3590709.53548  -2791640.33946  21129895.2734                   21129896.0514
  -7458337.56147  -5262890.72144  24128816.7424                   24128821.0664
   -850897.64646   -604592.13043  24464268.5004                   24464273.1454
  -6659262.327 8  -5130879.909 7  20758923.266
 11  8  5 21 55 30.0000000  0  9G07G24G08G04G26G28G27G20G17
  18302269.804 6  14264476.977 6  24312161.156
   7504467.89547   5853704.50244  23403853.1254                   23403858.0554
   9341449.81747   7286407.43245  21836586.8134                   21836589.8984
 -13265365.48747 -10280993.39145  21945494.6724                   21945497.7384
   7492515.03047   5844292.09643  24236209.0474                   24236215.4184
  -3595234.44848  -2795166.27946  21129034.2424                   21129034.4184
  -7540129.65047  -5326624.75944  24113252.0314                   24113257.2624
   -892565.66646   -637060.80043  24456339.3914                   24456343.6334
  -6657522.706 8  -5129524.349 7  20759254.094
 11  8  5 21 56  0.0000000  0  9G07G24G08G04G26G28G27G20G17
  18417090.021 6  14353947.005 6  24334011.016
   7590613.43646   5920830.63244  23420246.7664                   23420251.5314
   9439381.23747   7362717.49845  21855222.4774                   21855225.5634
 -13364072.71847 -10357908.07845  21926711.2344                   21926714.3014
   7567377.40246   5902626.19143  24250454.3754                   24250461.8244
  -3599562.87548  -2798539.13046  21128210.5004                   21128210.5824
  -7621682.79947  -5390172.57444  24097732.9224                   24097737.9804
   -933949.59246   -669308.02843  24448464.0004                   24448468.9064
  -6655526.294 8  -5127968.701 7  20759634.164
 11  8  5 21 56 30.0000000  0  9G07G24G08G04G26G28G27G20G17
  18531984.430 6  14443474.813 6  24355874.375
   7677093.33946   5988217.30344  23436703.1334                   23436707.8674
   9537681.17248   7439314.73445  21873928.5164                   21873931.5904
 -13462482.87647 -10434591.27345  21907984.2344                   21907987.9804
   7642396.69647   5961082.60243  24264730.6804                   24264738.0744
  -3603693.44148  -2801757.80046  21127424.8364                   21127424.8204
  -7702994.72747  -5453532.45844  24082259.7814                   24082264.7934
   -975046.68346   -701331.74843  24440643.0944                   24440648.4924
  -6653274.449 8  -5126214.005 7  20760062.703
 11  8  5 21 57  0.0000000  0  9G07G24G08G04G26G28G27G20G17
  18646949.967 6  14533058.038 6  24377751.859
   7763904.25546   6055861.94444  23453222.7814                   23453227.7234
   9636346.23548   7516196.47745  21892703.7274                   21892706.7344
 -13560594.00147 -10511041.47145  21889314.3284                   21889317.5514
   7717568.71847   6019658.00943  24279034.9304                   24279042.3674
  -3607625.27247  -2804821.61346  21126676.3674                   21126676.8244
  -7784064.04047  -5516703.28244  24066832.7734                   24066837.7974
  -1015855.01146   -733130.43143  24432878.1564                   24432883.3674
  -6650769.064 8  -5124261.752 7  20760539.430
 11  8  5 21 57 30.0000000  0  9G07G24G08G04G26G28G27G20G17
  18761985.164 6  14622695.619 6  24399641.992
   7851044.75146   6123763.38244  23469804.9534                   23469810.2734
   9735374.53247   7593361.26045  21911548.2894                   21911551.7934
 -13658402.07147 -10587255.49845  21870702.0784                   21870705.3834
   7792891.51947   6078350.87143  24293369.2584                   24293376.1174
  -3611355.69448  -2807728.50346  21125966.5784                   21125967.0984
  -7864887.28047  -5579682.36144  24051452.2194                   24051456.6334
  -1056370.95946   -764701.34543  24425168.1094                   24425172.8834
  -6648010.159 7  -5122111.950 7  20761064.570
 11  8  5 21 58  0.0000000  0  9G07G24G08G04G26G28G27G20G17
  18877087.354 6  14712385.354 6  24421546.164
   7938511.42546   6191918.95443  23486449.8524                   23486454.3554
   9834763.11447   7670806.79045  21930461.4144                   21930464.2934
 -13755904.71747 -10663231.55345  21852147.7734                   21852150.9654
   7868361.47846   6137158.45043  24307731.0634                   24307737.8204
  -3614883.67548  -2810477.63146  21125295.3134                   21125295.4414
  -7945462.41647  -5642468.15944  24036119.3204                   24036123.9184
  -1096592.44646   -796042.75843  24417515.0944                   24417519.0204
  -6644999.239 8  -5119765.775 7  20761637.250
 11  8  5 21 58 30.0000000  0  9G07G24G08G04G26G28G27G20G17
  18992251.652 6  14802123.481 6  24443461.813
   8026300.12246   6260325.45643  23503155.9144                   23503160.2424
   9934507.26747   7748529.38645  21949442.3674                   21949445.6024
 -13853100.56847 -10738968.51445  21833652.2424                   21833655.6294
   7943973.56647   6196076.70643  24322119.4694                   24322126.8094
  -3618209.69848  -2813069.38746  21124662.4844                   21124662.6374
  -8025789.04647  -5705060.26643  24020833.3594                   24020837.9494
  -1136518.58346   -827154.06743  24409916.5394                   24409921.6334
  -6641739.377 8  -5117225.616 8  20762257.289
 11  8  5 21 59  0.0000000  0  9G07G24G08G04G26G28G27G20G17
  19107478.318 6  14891910.242 6  24465388.719
   8114410.81846   6328982.87843  23519922.6334                   23519927.5474
  10034606.83247   7826528.92445  21968490.3984                   21968493.6024
 -13949984.90347 -10814462.75845  21815215.4224                   21815219.2584
   8019726.89947   6255105.00643  24336535.7734                   24336542.5354
  -3621329.89648  -2815500.77346  21124068.8674                   21124069.1644
  -8105862.57347  -5767455.17344  24005596.1334                   24005600.6604
  -1176144.38746   -858031.30943  24402375.6564                   24402380.4964
  -6638229.172 8  -5114490.406 7  20762925.492
 11  8  5 21 59 30.0000000  0  9G07G24G08G04G26G28G27G20G17
  19222762.942 6  14981742.176 6  24487326.555
   8202838.97147   6397887.70644  23536750.2974                   23536754.8594
  10135057.35548   7904801.92545  21987605.6254                   21987608.7734
 -14046556.39747 -10889713.22645  21796838.7664                   21796841.7544
   8095616.55046   6314239.64143  24350976.6484                   24350983.7234
  -3624244.39948  -2817771.86746  21123514.0394                   21123514.5904
  -8185682.47547  -5829652.44944  23990406.4614                   23990410.9774
  -1215469.21846   -888674.03443  24394892.8204                   24394897.0864
  -6634471.982 8  -5111562.733 7  20763640.547
 11  8  5 22  0  0.0000000  0  9G07G24G08G04G26G28G27G20G17
  19338104.597 6  15071618.510 6  24509275.328
   8291583.69147   6467039.17943  23553638.5944                   23553643.2624
  10235857.31947   7983347.22745  22006787.4304                   22006790.9384
 -14142810.75647 -10964716.57545  21778522.2974                   21778525.5004
   8171640.73647   6373479.04443  24365444.4454                   24365450.5234
  -3626950.70148  -2819880.73046  21122999.0944                   21122999.6564
  -8265245.10047  -5891649.23744  23975267.1564                   23975270.7774
  -1254489.25846   -919079.30043  24387467.0634                   24387472.0744
  -6630467.692 8  -5108442.511 7  20764402.766
 11  8  5 22  0 30.0000000  0  9G07G24G08G04G26G28G27G20G17
  19453498.447 6  15161535.549 5  24531234.688
   8380639.73047   6536433.30644  23570585.2274                   23570589.8834
  10337001.49747   8062160.74845  22026034.3524                   22026037.8134
 -14238747.81147 -11039472.66345  21760265.9534                   21760269.4734
   8247793.63546   6432818.74543  24379935.9534                   24379941.8284
  -3629449.43147  -2821827.85346  21122523.4144                   21122523.9064
  -8344550.37446  -5953445.52544  23960175.9224                   23960179.6644
  -1293204.02746   -949246.69043  24380100.4694                   24380104.6564
  -6626219.404 8  -5105132.172 7  20765210.844
 11  8  5 22  1  0.0000000  0  9G07G24G08G04G26G28G27G20G17
  19568944.340 6  15251493.160 5  24553203.070
   8470007.26247   6606070.16843  23587591.6254                   23587595.7304
  10438490.12347   8141242.65445  22045347.6564                   22045350.3364
 -14334361.70447 -11113976.94245  21742070.9694                   21742074.3914
   8324075.08646   6492258.63343  24394451.2584                   24394458.3284
  -3631736.65047  -2823610.15346  21122088.8204                   21122089.0824
  -8423593.40647  -6015037.43244  23945134.5864                   23945138.2194
  -1331608.42746   -979172.22443  24372793.6884                   24372797.1374
  -6621725.488 8  -5101630.430 7  20766066.188
 11  8  5 22  1 30.0000000  0  9G07G24G08G04G26G28G27G20G17
  19684438.032 6  15341487.929 5  24575181.461
   8559681.90747   6675946.32043  23604656.1174                   23604661.0164
  10540318.24947   8220589.14345  22064724.8524                   22064728.0554
 -14429651.61947 -11188228.77245  21723937.9144                   21723941.2194
   8400479.96846   6551794.67643  24408991.5704                   24408997.7274
  -3633812.38448  -2825227.65246  21121693.3134                   21121693.6604
  -8502373.95947  -6076424.81043  23930142.2504                   23930146.7894
  -1369701.62946  -1008855.24343  24365543.2814                   24365548.1884
  -6616989.355 8  -5097939.945 7  20766967.156
 11  8  5 22  2  0.0000000  0  8G24G08G04G26G28G27G20G17
   8649663.91847   6746062.01143  23621778.8754                   23621783.4964
  10642486.05147   8300200.28444  22084166.8674                   22084169.9064
 -14524611.92947 -11262223.77045  21705867.8444                   21705870.7274
   8477007.97846   6611426.68443  24423554.1644                   24423560.1644
  -3635672.40948  -2826677.06546  21121339.2664                   21121339.9614
  -8580886.91746  -6137603.67943  23915202.0314                   23915206.1644
  -1407478.36945  -1038291.69343  24358355.6334                   24358359.4804
  -6612009.380 8  -5094059.476 8  20767915.273
 11  8  5 22  2 30.0000000  0  8G24G08G04G26G28G27G20G17
   8739947.73847   6816412.81343  23638959.3204                   23638965.0204
  10744987.84247   8380071.67445  22103672.2424                   22103675.7974
 -14619242.88647 -11335962.11545  21687860.0554                   21687863.1884
   8553652.63946   6671149.50543  24438139.8284                   24438145.8524
  -3637318.45948  -2827959.73046  21121026.4224                   21121026.8324
  -8659132.87947  -6198574.52243  23900311.4384                   23900315.6024
  -1444939.18946  -1067481.95843  24351226.1094                   24351230.6954
  -6606789.395 8  -5089991.990 7  20768908.469
 11  8  5 22  3  0.0000000  0  8G24G08G04G26G28G27G20G17
   8830531.30546   6886997.21743  23656197.2194                   23656202.2584
  10847821.16547   8460201.43545  22123240.8594                   22123244.3754
 -14713541.00147 -11409441.09945  21669915.4844                   21669918.9224
   8630411.44746   6730961.37743  24452746.8204                   24452752.7384
  -3638748.85448  -2829074.35046  21120754.0784                   21120754.7814
  -8737109.02847  -6259335.09543  23885473.8134                   23885477.8984
  -1482081.05146  -1096423.62243  24344158.4224                   24344163.4804
  -6601330.519 8  -5085738.350 7  20769947.297
 11  8  5 22  3 30.0000000  0  8G24G08G04G26G28G27G20G17
   8921411.68946   6957812.94743  23673490.6564                   23673496.6954
  10950983.13247   8540587.24645  22142871.9924                   22142875.7664
 -14807503.97447 -11482658.96245  21652034.7584                   21652038.2344
   8707280.73346   6790859.31043  24467373.4694                   24467380.7034
  -3639962.16848  -2830019.82046  21120523.0234                   21120523.9144
  -8814813.53946  -6319884.02444  23870687.4534                   23870691.3204
  -1518901.66446  -1125115.11242  24337152.5474                   24337156.3524
  -6595634.062 8  -5081299.592 7  20771031.367
 11  8  5 22  4  0.0000000  0  8G24G08G04G26G28G27G20G17
   9012587.20646   7028858.66743  23690841.2424                   23690846.8484
  11054471.30647   8621227.25545  22162565.5004                   22162568.4734
 -14901128.28847 -11555612.90545  21634218.5234                   21634221.9534
   8784258.49746   6850841.74143  24482022.7664                   24482029.4924
  -3640955.81048  -2830794.10846  21120334.2194                   21120334.6054
  -8892243.37447  -6380218.92844  23855952.7424                   23855957.2384
  -1555397.80346  -1153553.61242  24330207.3914                   24330211.6604
  -6589700.390 8  -5076676.004 8  20772160.602
 11  8  5 22  4 30.0000000  0  8G24G08G04G26G28G27G20G17
   9104054.71346   7100131.89543  23708246.8984                   23708252.7194
  11158282.60547   8702119.03945  22182320.4064                   22182324.2544
 -14994411.22447 -11628300.85845  21616467.5784                   21616470.5594
   8861340.80946   6910905.69643  24496691.1954                   24496697.5744
  -3641728.71248  -2831396.38646  21120187.1644                   21120187.8014
  -8969396.47047  -6440338.16444  23841271.1644                   23841275.0634
  -1591567.33846  -1181737.66742  24323323.9924                   24323328.4064
  -6583530.852 8  -5071868.617 8  20773334.859
 11  8  5 22  5  0.0000000  0  8G24G08G04G26G28G27G20G17
   9195811.57746   7171630.67543  23725708.3984                   23725713.6484
  11262414.03547   8783260.29444  22202136.0864                   22202139.4414
 -15087350.39747 -11700720.92945  21598781.7034                   21598785.1094
   8938524.47446   6971048.57143  24511378.8754                   24511385.7074
  -3642279.72948  -2831825.77746  21120082.6724                   21120083.3164
  -9046270.84247  -6500240.25944  23826641.4844                   23826646.5474
  -1627408.07946  -1209665.56642  24316503.7664                   24316508.5664
  -6577127.213 8  -5066878.832 8  20774553.078
 11  8  5 22  5 30.0000000  0  8G24G08G04G26G28G27G20G17
   9287854.73046   7243352.53243  23743223.0004                   23743228.6804
  11366862.75447   8864648.80445  22222011.3914                   22222015.5434
 -15179943.31547 -11772871.20145  21581161.7584                   21581165.1054
   9015806.40046   7031268.00144  24526085.0164                   24526093.0084
  -3642607.68748  -2832081.33646  21120019.9924                   21120020.6094
  -9122864.45847  -6559923.54844  23812066.6724                   23812070.7774
  -1662917.68846  -1237335.41542  24309746.7344                   24309750.9304
  -6570490.304 8  -5061707.276 8  20775816.109
 11  8  5 22  6  0.0000000  0  8G24G08G04G26G28G27G20G17
   9380181.87246   7315295.67643  23760792.6024                   23760797.7154
  11471625.69247   8946282.11545  22241947.7194                   22241952.1294
 -15272187.15847 -11844749.45645  21563608.2584                   21563611.4804
   9093183.04446   7091561.24143  24540809.5474                   24540816.9924
  -3642711.20148  -2832162.00646  21120000.3134                   21120000.8204
  -9199175.04247  -6619386.33744  23797544.9304                   23797548.8984
  -1698093.92845  -1264745.42142  24303052.3674                   24303057.9734
  -6563621.604 8  -5056355.095 7  20777122.898
 11  8  5 22  6 30.0000000  0  8G24G08G04G26G28G27G20G17
   9472789.80446   7387457.66943  23778415.5704                   23778420.7624
  11576699.53047   9028157.70244  22261942.8524                   22261945.8954
 -15364079.32347 -11916353.68045  21546121.8284                   21546124.6884
   9170651.42146   7151926.00843  24555551.7894                   24555559.0394
  -3642588.86748  -2832066.69546  21120023.7034                   21120023.5824
  -9275200.45447  -6678626.90444  23783078.6644                   23783081.4614
  -1732934.46046  -1291893.96043  24296423.1414                   24296427.7344
  -6556522.663 8  -5050823.514 8  20778474.250
 11  8  5 22  7  0.0000000  0  8G24G08G04G26G28G27G20G17
   9565676.77246   7459837.10343  23796091.6254                   23796096.4844
  11682082.34347   9110274.06344  22281996.3914                   22281999.7034
 -15455616.52647 -11987681.32545  21528702.7974                   21528705.8834
   9248208.94447   7212360.24443  24570310.4694                   24570317.4144
  -3642238.42248  -2831793.63946  21120090.2974                   21120090.5984
  -9350937.90347  -6737643.10944  23768665.9614                   23768669.6174
  -1767436.28946  -1318778.51943  24289857.3834                   24289862.5124
  -6549193.760 8  -5045112.735 7  20779869.164
 11  8  5 22  7 30.0000000  0  8G24G08G04G26G28G27G20G17
   9658839.49746   7532431.44343  23813820.2894                   23813824.9264
  11787770.45447   9192628.31744  22302107.7504                   22302111.9224
 -15546796.84047 -12058730.87245  21511351.4614                   21511354.8244
   9325851.79046   7272860.92143  24585085.3984                   24585093.4614
  -3641659.11748  -2831342.25746  21120200.4224                   21120200.8794
  -9426385.86247  -6796433.70144  23754308.6804                   23754312.2894
  -1801597.55546  -1345397.75042  24283356.4534                   24283361.3674
  -6541636.625 8  -5039224.112 7  20781307.234
 11  8  5 22  8  0.0000000  0  8G24G08G04G26G28G27G20G17
   9752276.47347   7605239.47643  23831600.3914                   23831605.3954
  11893762.22047   9275219.15944  22322278.1174                   22322281.6764
 -15637616.20847 -12129499.16245  21494069.2584                   21494072.5274
   9403577.47046   7333426.16043  24599876.5314                   24599884.3984
  -3640848.72148  -2830710.80746  21120354.6644                   21120355.3284
  -9501541.22247  -6854996.29644  23740007.1724                   23740010.7234
  -1835414.58746  -1371748.67342  24276921.6024                   24276926.7504
  -6533851.974 8  -5033158.195 7  20782788.391
 11  8  5 22  8 30.0000000  0  8G24G08G04G26G28G27G20G17
   9845983.31947   7678257.81843  23849432.6254                   23849436.7854
  12000053.26647   9358043.23145  22342504.3284                   22342508.0594
 -15728073.76947 -12199985.50945  21476856.0634                   21476858.4104
   9481381.22046   7394052.27443  24614682.3364                   24614689.4804
  -3639807.28048  -2829899.32846  21120553.1414                   21120553.5474
  -9576403.54147  -6913330.56544  23725761.4384                   23725764.7774
  -1868886.92546  -1397831.01942  24270552.2664                   24270557.2704
  -6525841.972 8  -5026916.675 8  20784312.797
 11  8  5 22  9  0.0000000  0  8G24G08G04G26G28G27G20G17
   9939958.00146   7751484.85043  23867314.7504                   23867320.1954
  12106640.98447   9441098.44544  22362787.5784                   22362791.0864
 -15818166.10248 -12270187.26745  21459711.3054                   21459714.6254
   9559260.82846   7454737.48743  24629502.3204                   24629508.9344
  -3638532.52148  -2828906.04046  21120795.6884                   21120796.4964
  -9650969.63247  -6971433.95344  23711571.2734                   23711575.5944
  -1902011.66446  -1423642.58542  24264248.7344                   24264253.8674
  -6517607.367 8  -5020500.154 7  20785879.586
 11  8  5 22  9 30.0000000  0  9G09G24G08G04G26G28G27G20G17
   -254715.98346     53702.74243  24162650.9454                   24162655.4774
  10034199.25047   7824919.55343  23885248.6174                   23885253.6564
  12213523.92347   9524383.75544  22383126.4064                   22383129.9264
 -15907889.30248 -12340101.37845  21442638.0704                   21442640.4384
   9637214.41146   7515480.37943  24644336.2194                   24644344.0904
  -3637021.84648  -2827728.92746  21121082.7344                   21121083.8634
  -9725235.76247  -7029303.63944  23697439.5704                   23697443.2664
  -1934785.39646  -1449180.50542  24258011.8834                   24258017.3164
  -6509148.261 8  -5013908.682 7  20787489.461
 11  8  5 22 10  0.0000000  0  9G09G24G08G04G26G28G27G20G17
   -356449.93845    -25570.14842  24143289.7974                   24143297.5744
  10128701.62746   7898557.83143  23903231.4694                   23903236.5084
  12320696.03747   9607894.35944  22403520.9774                   22403524.8164
 -15997243.65547 -12409728.08745  21425634.3444                   21425637.2974
   9715235.56646   7576275.83943  24659183.7504                   24659191.2194
  -3635276.80148  -2826369.18546  21121414.9384                   21121415.9224
  -9799203.18947  -7086940.53144  23683364.5084                   23683367.5164
  -1967208.21946  -1474445.08243  24251842.4384                   24251846.7734
  -6500468.733 8  -5007145.436 7  20789141.055
 11  8  5 22 10 30.0000000  0  9G09G24G08G04G26G28G27G20G17
   -457884.87545   -104610.15843  24123987.8284                   24123994.5394
  10223465.51246   7972399.83543  23921264.1954                   23921269.3444
  12428157.61447   9691630.53344  22423970.2894                   22423974.5864
 -16086223.53348 -12479062.98745  21408701.9774                   21408705.0744
   9793324.81546   7637124.42743  24674043.0554                   24674050.9574
  -3633292.61148  -2824823.10246  21121792.9384                   21121793.5474
  -9872866.54047  -7144340.49044  23669345.8834                   23669350.0164
  -1999274.72946  -1499431.94543  24245739.9384                   24245744.5634
  -6491566.853 8  -5000208.935 7  20790835.164
 11  8  5 22 11  0.0000000  0  9G09G24G08G04G26G28G27G20G17
   -559021.13846   -183417.41143  24104742.4064                   24104747.8404
  10318484.77446   8046440.83543  23939346.0634                   23939352.2624
  12535901.89147   9775586.97844  22444473.1414                   22444477.0274
 -16174829.54247 -12548106.56945  21391840.7114                   21391843.7734
   9871475.26546   7698020.73942  24688914.6024                   24688922.0084
  -3631071.54748  -2823092.44146  21122215.5234                   21122215.9184
  -9946226.89647  -7201504.32844  23655385.9534                   23655389.8324
  -2030986.48646  -1524142.55043  24239705.6954                   24239710.4454
  -6482447.173 8  -4993102.724 8  20792570.664
 11  8  5 22 11 30.0000000  0  9G09G24G08G04G26G28G27G20G17
   -659853.10046   -261987.52343  24085553.7584                   24085560.6764
  10413759.40746   8120680.85243  23957475.3594                   23957481.8754
  12643928.97547   9859763.78944  22465030.1644                   22465034.2464
 -16263056.51448 -12616854.79345  21375051.8364                   21375054.8054
   9949686.39646   7758964.27843  24703798.6334                   24703805.5594
  -3628609.64847  -2821174.13146  21122684.1644                   21122685.0084
 -10019279.46947  -7258428.35844  23641484.6414                   23641488.0514
  -2062338.22946  -1548572.51043  24233739.2034                   24233743.4454
  -6473108.480 8  -4985825.846 7  20794347.422
 11  8  5 22 12  0.0000000  0  9G09G24G08G04G26G28G27G20G17
   -760377.43746   -340317.90343  24066424.4144                   24066431.1024
  10509286.89345   8195117.89843  23975653.7034                   23975660.0514
  12752235.72247   9944158.49444  22485640.8674                   22485645.0904
 -16350901.70148 -12685305.52945  21358335.1334                   21358338.2034
  10027955.05746   7819952.61743  24718692.3054                   24718700.4694
  -3625905.34148  -2819066.91446  21123198.5394                   21123199.0634
 -10092022.18247  -7315110.91144  23627641.5164                   23627645.7504
  -2093328.25446  -1572720.62143  24227842.8594                   24227847.1994
  -6463551.674 8  -4978378.999 7  20796166.352
 11  8  5 22 12 30.0000000  0  9G09G24G08G04G26G28G27G20G17
   -860593.29046   -418407.92044  24047354.5944                   24047360.5004
  10605062.42546   8269748.21043  23993879.1174                   23993885.4924
  12860817.23847  10028767.32744  22506303.1024                   22506307.1054
 -16438364.70048 -12753458.44245  21341691.3754                   21341694.3634
  10106276.06346   7880981.73143  24733596.4924                   24733604.5044
  -3622958.92448  -2816771.04546  21123759.1954                   21123759.9654
 -10164454.90547  -7371551.93044  23613858.5944                   23613861.7854
  -2123955.81446  -1596586.28143  24222014.3444                   24222018.7384
  -6453779.985 8  -4970764.728 7  20798025.758
 11  8  5 22 13  0.0000000  0  9G09G24G08G04G26G28G27G20G17
   -960494.84347   -496253.04144  24028343.3594                   24028348.7074
  10701085.87246   8344571.64243  24012152.6564                   24012158.1844
  12969673.54747  10113590.27044  22527017.6414                   22527023.0124
 -16525440.29248 -12821309.49345  21325121.4924                   21325124.4844
  10184648.94846   7942051.34343  24748510.0944                   24748519.0634
  -3619766.66148  -2814283.59946  21124366.6884                   21124367.6604
 -10236572.90647  -7427747.68244  23600135.1954                   23600138.0664
  -2154215.82646  -1620165.55743  24216255.3914                   24216260.5274
  -6443792.145 8  -4962982.003 7  20799926.766
 11  8  5 22 13 30.0000000  0  9G09G24G08G04G26G28G27G20G17
  -1060081.37047   -573852.73843  24009392.5314                   24009396.8444
  10797352.01446   8419584.20743  24030470.8754                   24030477.1914
  13078798.77147  10198622.74244  22547784.1024                   22547787.9614
 -16612128.34148 -12888858.55145  21308625.2974                   21308628.1294
  10263068.19946   8003157.05943  24763433.3524                   24763441.8914
  -3616329.39447  -2811605.22546  21125020.6564                   21125021.5904
 -10308376.47147  -7483698.40944  23586471.0864                   23586473.3674
  -2184108.89346  -1643458.92143  24210567.3674                   24210572.3874
  -6433591.644 8  -4955033.580 7  20801867.805
 11  8  5 22 14  0.0000000  0  9G09G24G08G04G26G28G27G20G17
  -1159349.27446   -651204.17743  23990502.8674                   23990506.0354
  10893858.83546   8494784.30343  24048836.1804                   24048841.9734
  13188190.65547  10283863.02944  22568600.4304                   22568604.9844
 -16698425.79348 -12956103.26145  21292203.4774                   21292206.4454
  10341531.13446   8064296.76942  24778364.6414                   24778373.1994
  -3612645.24348  -2808734.48646  21125721.9224                   21125722.8324
 -10379863.03447  -7539402.11544  23572867.4224                   23572870.5434
  -2213632.22746  -1666464.09843  24204949.8204                   24204954.4414
  -6423179.427 8  -4946920.173 7  20803848.898
 11  8  5 22 14 30.0000000  0  9G09G24G08G04G26G28G27G20G17
  -1258294.56047   -728304.21343  23971674.1094                   23971677.4264
  10990604.90846   8570170.86944  24067246.2504                   24067251.5314
  13297847.25047  10369309.56644  22589467.4304                   22589472.1254
 -16784328.91548 -13023040.68945  21275856.3754                   21275859.1804
  10420035.86746   8125469.11443  24793303.0394                   24793312.1454
  -3608711.67148  -2805669.39746  21126470.5864                   21126470.5084
 -10451029.15747  -7594856.07944  23559324.7424                   23559328.2974
  -2242782.69146  -1689178.80042  24199402.3284                   24199406.3054
  -6412555.445 8  -4938641.763 7  20805870.781
 11  8  5 22 15  0.0000000  0  9G09G24G08G04G26G28G27G20G17
  -1356914.59446   -805150.82343  23952907.3054                   23952910.4454
  11087587.15746   8645741.44544  24085701.5004                   24085706.7344
  13407765.04447  10454959.66744  22610384.1174                   22610389.2234
 -16869835.61948 -13089669.21245  21259585.3284                   21259587.9964
  10498578.66746   8186671.13343  24808251.0164                   24808258.6414
  -3604527.90548  -2802409.34746  21127266.7424                   21127267.3094
 -10521873.22147  -7650059.13344  23545843.0944                   23545846.6764
  -2271558.48546  -1711601.54942  24193925.6884                   24193930.6684
  -6401721.342 8  -4930199.609 7  20807932.469
 11  8  5 22 15 30.0000000  0  9G09G24G08G04G26G28G27G20G17
  -1455206.88746   -881741.94243  23934202.0944                   23934207.4494
  11184802.07546   8721493.27544  24104200.8834                   24104206.1804
  13517940.41647  10540810.43344  22631350.1094                   22631354.0434
 -16954943.81548 -13155987.21945  21243389.2584                   21243392.3674
  10577156.07446   8247900.07743  24823203.2114                   24823211.4144
  -3600092.99448  -2798953.60346  21128110.9844                   21128111.2194
 -10592393.69047  -7705010.00344  23532423.8754                   23532427.7304
  -2299957.75545  -1733730.85143  24188522.3204                   24188527.2544
  -6390678.653 8  -4921594.932 7  20810033.922
 11  8  5 22 16  0.0000000  0  9G09G24G08G04G26G28G27G20G17
  -1553168.33246   -958075.33842  23915560.9534                   23915566.4024
  11282246.99346   8797424.34544  24122744.1804                   24122749.2504
  13628370.28547  10626859.57144  22652364.7664                   22652368.8484
 -17039651.18448 -13221992.90345  21227270.3524                   21227272.7504
  10655764.63146   8309153.31443  24838162.2894                   24838170.6884
  -3595405.57148  -2795301.09046  21129002.6804                   21129003.5084
 -10662588.70947  -7759707.28144  23519066.2664                   23519069.4104
  -2327978.79845  -1755565.47442  24183189.5784                   24183194.6724
  -6379428.915 8  -4912828.919 7  20812174.555
 11  8  5 22 16 30.0000000  0  9G09G24G08G04G26G28G27G20G17
  -1650794.36746  -1034147.34643  23896982.0314                   23896988.6954
  11379921.04446   8873533.88043  24141330.2274                   24141336.7114
  13739053.62247  10713106.19344  22673427.0314                   22673431.2234
 -17123953.69048 -13287683.10245  21211227.5944                   21211230.6804
  10734402.79446   8370429.62843  24853126.9694                   24853134.3754
  -3590462.57748  -2791449.41546  21129943.1174                   21129944.3164
 -10732454.44247  -7814147.95344  23505770.5944                   23505773.8634
  -2355617.57446  -1777102.20843  24177931.3134                   24177935.0314
  -6367971.538 8  -4903901.082 8  20814355.016
 11  8  5 22 17  0.0000000  0  9G09G24G08G04G26G28G27G20G17
  -1748083.44646  -1109956.80042  23878468.4454                   23878474.4184
  11477820.18046   8949818.77243  24159960.8524                   24159966.4384
  13849985.65847  10799546.60844  22694536.7274                   22694541.2154
 -17207850.42548 -13353057.12446  21195262.5554                   21195265.6804
  10813066.17546   8431725.60243  24868095.1724                   24868104.6484
  -3585264.01148  -2787398.60146  21130932.3834                   21130933.5744
 -10801990.42147  -7868331.67744  23492538.0234                   23492541.9964
  -2382873.72746  -1798340.81443  24172743.9224                   24172748.9104
  -6356309.459 8  -4894813.748 7  20816574.047
 11  8  5 22 17 30.0000000  0 10G09G24G08G04G02G26G28G27G20G17
  -1845036.17546  -1185504.19343  23860019.8054                   23860024.1334
  11575937.49146   9026273.72443  24178631.8524                   24178637.4024
  13961159.42147  10886175.38144  22715692.4144                   22715697.3094
 -17291342.66948 -13418115.93345  21179375.0004                   21179376.9184
    283538.85346    269839.26442  24721330.7114                   24721338.6334
  10891747.95646   8493035.86443  24883068.9534                   24883077.2424
  -3579812.92148  -2783151.01246  21131969.8834                   21131970.7584
 -10871198.59747  -7922259.98244  23479368.6094                   23479371.8324
  -2409749.00946  -1819282.65142  24167630.2274                   24167635.1374
  -6344447.772 8  -4885570.881 7  20818831.359
 11  8  5 22 18  0.0000000  0 10G09G24G08G04G02G26G28G27G20G17
  -1941641.78746  -1260781.08343  23841635.9224                   23841640.3164
  11674278.19946   9102902.64642  24197345.0634                   24197351.2074
  14072579.59947  10972996.17244  22736895.1254                   22736899.4804
 -17374420.12448 -13482851.55245  21163565.9144                   21163568.3284
    180391.96746    189465.24943  24701703.4694                   24701709.5044
  10970452.28346   8554363.72843  24898046.2344                   24898054.3714
  -3574099.70748  -2778699.16846  21133057.2344                   21133057.9264
 -10940068.92047  -7975925.00144  23466263.2894                   23466265.6884
  -2436233.37146  -1839919.81843  24162590.7114                   24162594.8794
  -6332379.788 8  -4876167.238 7  20821127.750
 11  8  5 22 18 30.0000000  0 10G09G24G08G04G02G26G28G27G20G17
  -2037900.38346  -1335787.66342  23823318.5004                   23823321.6414
  11772836.54946   9179701.26442  24216100.4614                   24216106.7624
  14184239.72947  11060003.94544  22758143.5554                   22758147.9304
 -17457083.64348 -13547264.60946  21147835.4454                   21147837.9384
     77296.76247    109131.52243  24682085.0784                   24682091.3094
  11049173.41746   8615704.62743  24913026.0474                   24913034.6684
  -3568126.36048  -2774044.62246  21134193.9224                   21134194.4024
 -11008602.56547  -8029327.70344  23453221.1884                   23453224.5704
  -2462328.04246  -1860253.36743  24157624.6334                   24157629.0394
  -6320109.941 8  -4866606.305 7  20823462.516
 11  8  5 22 19  0.0000000  0 10G09G24G08G04G02G26G28G27G20G17
  -2133809.68946  -1410522.11243  23805068.3364                   23805069.7074
  11871609.40846   9256666.95942  24234896.2424                   24234902.4924
  14296136.49547  11147196.10244  22779436.3364                   22779441.2734
 -17539331.50248 -13611353.77945  21132183.8134                   21132186.4224
    -25745.24947     28839.28944  24662476.1564                   24662483.6954
  11127907.31246   8677055.53543  24928008.7114                   24928017.0704
  -3561892.01948  -2769186.70646  21135379.9614                   21135380.7934
 -11076798.23347  -8082467.06244  23440243.7114                   23440247.6954
  -2488031.70046  -1880282.13343  24152733.3364                   24152738.1564
  -6307639.754 8  -4856889.260 7  20825835.273
 11  8  5 22 19 30.0000000  0 10G09G24G08G04G02G26G28G27G20G17
  -2229367.01346  -1484982.20842  23786883.8594                   23786885.3594
  11970593.45046   9333797.15143  24253732.2734                   24253738.8324
  14408266.71447  11234570.19144  22800774.6334                   22800779.0314
 -17621161.49348 -13675117.33845  21116611.7894                   21116614.5594
   -128732.09647    -51409.94643  24642878.5634                   24642885.5784
  11206650.79546   8738413.91543  24942993.7424                   24943001.5824
  -3555395.36348  -2764124.38246  21136616.5314                   21136617.2194
 -11144654.08047  -8135341.58744  23427331.0784                   23427335.0634
  -2513342.37246  -1900004.82443  24147916.4534                   24147921.6724
  -6294971.000 8  -4847017.449 7  20828245.797
 11  8  5 22 20  0.0000000  0 10G09G24G08G04G02G26G28G27G20G17
  -2324567.74046  -1559164.44543  23768767.1414                   23768770.7584
  12069787.48846   9411090.94943  24272609.2584                   24272615.0314
  14520628.47547  11322124.68044  22822156.4924                   22822161.5084
 -17702570.06548 -13738552.52446  21101120.3594                   21101123.2544
   -231660.68347   -131613.83544  24623291.7424                   24623298.3524
  11285401.94846   8799778.22543  24957979.0704                   24957987.4024
  -3548634.19048  -2758855.93146  21137902.9144                   21137903.7734
 -11212166.87747  -8187948.83644  23414484.0944                   23414487.8874
  -2538257.02046  -1919418.82843  24143175.8524                   24143180.5474
  -6282103.509 8  -4836990.788 7  20830694.898
 11  8  5 22 20 30.0000000  0 10G09G24G08G04G02G26G28G27G20G17
  -2419410.03447  -1633067.36843  23750719.1954                   23750723.4964
  12169188.09445   9488545.72942  24291524.2664                   24291531.1484
  14633217.85547  11409856.53744  22843581.9774                   22843586.0204
 -17783555.40348 -13801657.90746  21085709.5864                   21085712.1724
   -334529.74347   -211771.28944  24603716.2734                   24603722.3594
  11364156.92046   8861145.54143  24972966.6174                   24972974.5904
  -3541607.86948  -2753380.87346  21139239.9694                   21139240.9844
 -11279335.40547  -8240287.79944  23401702.2894                   23401705.6914
  -2562774.48046  -1938523.29643  24138510.6414                   24138515.0044
  -6269039.201 8  -4826810.762 7  20833180.773
 11  8  5 22 21  0.0000000  0 10G09G24G08G04G02G26G28G27G20G17
  -2513891.02246  -1706688.73643  23732739.4844                   23732743.9384
  12268792.09546   9566158.97443  24310478.6564                   24310484.6724
  14746031.62547  11497763.23144  22865049.7424                   22865053.8714
 -17864115.46748 -13864431.92946  21070379.2974                   21070382.0704
   -437337.45447   -291880.92944  24584152.4224                   24584158.9184
  11442912.48046   8922513.30543  24987952.8594                   24987961.6954
  -3534314.82548  -2747697.96446  21140627.6804                   21140628.8674
 -11346157.80947  -8292357.07144  23388986.1174                   23388989.6604
  -2586892.83846  -1957316.84643  24133920.8364                   24133925.4494
  -6255779.671 8  -4816478.612 7  20835704.180
 11  8  5 22 21 30.0000000  0 10G09G24G08G04G02G26G28G27G20G17
  -2608007.01246  -1780025.71143  23714830.1484                   23714833.8404
  12368597.67846   9643929.23743  24329472.0164                   24329476.7274
  14859067.35247  11585842.94344  22886559.2114                   22886562.6214
 -17944247.39648 -13926872.32646  21055130.8984                   21055133.2934
   -540081.13746   -371940.66444  24564600.4144                   24564606.9924
  11521666.00746   8983879.49743  25002938.7424                   25002947.9224
  -3526753.55748  -2741806.04146  21142066.4454                   21142067.5944
 -11412631.63247  -8344154.70544  23376336.1094                   23376340.3634
  -2610609.61546  -1975797.46143  24129408.2734                   24129412.1094
  -6242325.477 8  -4805994.783 7  20838264.172
 11  8  5 22 22  0.0000000  0 10G09G24G08G04G02G26G28G27G20G17
  -2701755.66246  -1853076.42943  23696989.3914                   23696994.7274
  12468601.54446   9721854.01943  24348501.6094                   24348507.5514
  14972321.61147  11674092.84744  22908111.3594                   22908115.6334
 -18023949.13647 -13988977.51646  21039963.5864                   21039966.1174
   -642759.43746   -451949.46944  24545061.6644                   24545067.9614
  11600414.20146   9045241.47442  25017925.4384                   25017933.0514
  -3518923.09248  -2735704.34846  21143556.6174                   21143557.5944
 -11478755.12847  -8395679.37244  23363753.2344                   23363757.4574
  -2633923.24746  -1993963.90043  24124971.2424                   24124975.5664
  -6228678.147 8  -4795360.436 7  20840861.148
 11  8  5 22 22 30.0000000  0 10G09G24G08G04G02G26G28G27G20G17
  -2795132.79246  -1925837.65743  23679220.5784                   23679225.7344
  12568802.35646   9799932.27143  24367569.6174                   24367575.6024
  15085792.28147  11762511.43344  22929703.7974                   22929709.2894
 -18103217.54147 -14050745.05346  21024879.7194                   21024882.1604
   -745369.26346   -531904.91443  24525535.3674                   24525541.2704
  11679154.98946   9106597.69342  25032909.1724                   25032917.4144
  -3510820.94848  -2729390.94946  21145099.0704                   21145099.5474
 -11544525.46647  -8446928.86444  23351237.2194                   23351241.5904
  -2656830.73046  -2011813.85143  24120612.2114                   24120616.6914
  -6214837.751 8  -4784575.657 7  20843494.906
 11  8  5 22 23  0.0000000  0 10G09G24G08G04G02G26G28G27G20G17
  -2888137.29546  -1998308.58843  23661522.4924                   23661527.5944
  12669195.43646   9878160.35543  24386673.9144                   24386680.1684
  15199474.44847  11851094.82044  22951337.1644                   22951342.0514
 -18182051.98848 -14112174.43546  21009877.8284                   21009880.6024
   -847910.26446   -611806.67943  24506021.1724                   24506028.7074
  11757883.28746   9167944.15142  25047889.9924                   25047899.4844
  -3502447.78448  -2722866.36646  21146691.9144                   21146692.6214
 -11609942.52247  -8497903.06044  23338788.5234                   23338793.0594
  -2679332.41746  -2029347.60743  24116328.7504                   24116334.4384
  -6200807.552 8  -4773642.972 7  20846164.664
 11  8  5 22 23 30.0000000  0 10G09G24G08G04G02G26G28G27G20G17
  -2980764.19746  -2070485.22643  23643896.3444                   23643901.0514
  12769780.33146   9956537.84644  24405814.6884                   24405820.5514
  15313367.45247  11939842.51844  22973010.2584                   22973014.8554
 -18260448.08148 -14173262.24646  20994959.5864                   20994961.7704
   -950378.25146   -691651.59443  24486522.6414                   24486528.7114
  11836598.37446   9229280.39442  25062868.6954                   25062878.8984
  -3493800.11848  -2716127.88546  21148337.5164                   21148338.1094
 -11675002.16947  -8548598.77944  23326407.9694                   23326411.8714
  -2701424.05246  -2046561.84343  24112126.4614                   24112130.9614
  -6186586.507 8  -4762561.567 7  20848870.852
 11  8  5 22 24  0.0000000  0 10G09G24G08G04G02G26G28G27G20G17
  -3073012.22546  -2142366.70543  23626341.4924                   23626346.5004
  12870552.55546  10035061.35744  24424991.2974                   24424997.9024
  15427465.98647  12028750.33644  22994722.7894                   22994727.4304
 -18338405.67348 -14234008.35846  20980124.7814                   20980126.7504
  -1052773.17046   -771439.53443  24467036.9694                   24467043.5004
  11915295.20546   9290602.39843  25077844.9454                   25077854.7894
  -3484878.54848  -2709175.96846  21150035.3754                   21150036.0514
 -11739704.56447  -8599016.10644  23314095.3754                   23314099.1174
  -2723105.72746  -2063456.61843  24108000.3674                   24108004.8834
  -6172177.828 8  -4751333.930 7  20851612.977
 11  8  5 22 24 30.0000000  0 10G09G24G08G04G02G26G28G27G20G17
  -3164874.80446  -2213947.85843  23608860.7814                   23608865.2424
  12971513.02346  10113731.50943  24444203.2034                   24444210.3164
  15541770.46847  12117818.66843  23016474.0394                   23016478.7384
 -18415918.56847 -14294407.96346  20965374.1094                   20965376.4344
  -1155089.51646   -851166.28143  24447565.6484                   24447572.5944
  11993974.57746   9351910.82342  25092817.5944                   25092827.2154
  -3475678.16548  -2702006.78246  21151785.9694                   21151786.6294
 -11804044.04247  -8649150.65744  23301852.6414                   23301855.2194
  -2744371.91146  -2080027.59943  24103953.3134                   24103958.2304
  -6157579.057 8  -4739958.193 7  20854390.656
 11  8  5 22 25  0.0000000  0  9G09G24G08G04G02G28G27G20G17
  -3256353.16646  -2285229.66543  23591452.4304                   23591457.1914
  13072654.72046  10192542.88343  24463450.4694                   24463457.0124
  15656273.57747  12207041.72944  23038263.4774                   23038268.0164
 -18492989.00747 -14354462.78846  20950708.0394                   20950710.7034
  -1257329.45746   -930833.42943  24428110.7894                   24428116.2894
  -3466202.01648  -2694622.72446  21153589.0554                   21153590.1484
 -11868022.97547  -8699004.25444  23289677.5554                   23289680.2624
  -2765224.94746  -2096276.68743  24099984.9384                   24099989.6374
  -6142795.460 8  -4728438.426 7  20857203.727
 11  8  5 22 25 30.0000000  0  9G09G24G08G04G02G28G27G20G17
  -3347443.93746  -2356209.43543  23574119.1954                   23574123.3954
  13173975.56446  10271493.78643  24482730.8754                   24482737.6954
  15770972.67447  12296417.56043  23060090.0944                   23060094.6994
 -18569613.94248 -14414170.47246  20936126.8524                   20936129.3554
  -1359490.45446  -1010439.10843  24408669.4774                   24408675.8524
  -3456448.03148  -2687022.17246  21155445.4774                   21155445.8404
 -11931638.90147  -8748575.01044  23277571.5554                   23277574.6174
  -2785662.51246  -2112202.01143  24096095.5474                   24096100.0354
  -6127827.793 8  -4716775.231 7  20860051.930
 11  8  5 22 26  0.0000000  0  9G09G24G08G04G02G28G27G20G17
  -3438142.79447  -2426883.87943  23556859.8524                   23556863.4844
  13275474.14846  10350583.14743  24502046.3674                   24502052.6994
  15885866.01447  12385944.71343  23081953.5704                   23081958.2664
 -18645790.25648 -14473528.58246  20921630.8204                   20921633.4144
  -1461568.90946  -1089980.44543  24389245.0634                   24389250.6454
  -3446413.69048  -2679203.16246  21157354.9614                   21157355.3484
 -11994888.48247  -8797860.31644  23265535.5234                   23265538.9144
  -2805681.41946  -2127801.11243  24092285.8914                   24092290.8834
  -6112675.778 8  -4704968.405 7  20862935.375
 11  8  5 22 26 30.0000000  0  9G09G24G08G04G02G28G27G20G17
  -3528448.00047  -2497251.53643  23539675.4844                   23539680.0164
  13377146.75146  10429808.12943  24521394.1254                   24521400.9694
  16000949.91447  12475620.38344  23103853.4534                   23103858.7424
 -18721516.42348 -14532535.92246  20907220.8984                   20907223.5394
  -1563564.25646  -1169457.04343  24369836.3364                   24369840.9184
  -3436098.98648  -2671165.68946  21159317.7894                   21159318.1954
 -12057771.10747  -8846859.67244  23253569.5314                   23253572.7344
  -2825281.06846  -2143073.52343  24088555.7344                   24088561.3204
  -6097341.658 8  -4693019.677 7  20865852.977
 11  8  5 22 27  0.0000000  0  9G09G24G08G04G02G28G27G20G17
  -3618353.96647  -2567308.16043  23522566.9064                   23522571.1644
  13478993.47545  10509168.68142  24540776.3984                   24540782.4454
  16116223.66947  12565443.96844  23125789.8284                   23125793.8444
 -18796787.88648 -14591188.95146  20892897.0944                   20892899.6214
  -1665471.95346  -1248865.31943  24350442.7344                   24350448.4104
  -3425499.78548  -2662906.52546  21161334.4064                   21161335.1024
 -12120282.28147  -8895569.58544  23241674.3364                   23241677.0004
  -2844457.27846  -2158015.97743  24084907.2424                   24084912.2424
  -6081824.341 8  -4680928.206 7  20868806.039
 11  8  5 22 27 30.0000000  0  9G09G24G08G04G02G28G27G20G17
  -3707861.51647  -2637054.27243  23505533.9224                   23505538.2544
  13581007.97546  10588660.03142  24560187.2974                   24560195.4344
  16231680.62247  12655410.32644  23147760.4064                   23147765.1724
 -18871606.18848 -14649488.87546  20878659.6484                   20878661.9494
  -1767293.51446  -1328206.44644  24331067.4534                   24331071.8404
  -3414618.35548  -2654427.45946  21163404.9924                   21163405.8054
 -12182423.75147  -8943991.44144  23229849.2274                   23229852.2854
  -2863212.00146  -2172630.04443  24081338.2734                   24081342.9064
  -6066128.438 8  -4668697.573 7  20871792.273
 11  8  5 22 28  0.0000000  0  9G09G24G08G04G02G28G27G20G17
  -3796965.45447  -2706485.89444  23488578.6484                   23488582.2074
  13683189.94546  10668281.90042  24579633.8204                   24579640.8984
  16347319.73547  12745518.61944  23169765.5234                   23169770.6844
 -18945966.89748 -14707432.22646  20864509.2734                   20864511.5634
  -1869024.67146  -1407477.18243  24311708.1564                   24311713.0204
  -3403451.52748  -2645725.99646  21165529.8364                   21165530.5354
 -12244191.52347  -8992122.09544  23218094.9064                   23218098.0044
  -2881540.96446  -2186912.31543  24077850.7974                   24077855.3634
  -6050252.850 8  -4656326.946 7  20874813.758
 11  8  5 22 28 30.0000000  0  9G09G24G08G04G02G28G27G20G17
  -3885662.28846  -2775600.29944  23471699.7504                   23471703.8324
  13785537.34946  10748032.73942  24599110.1804                   24599117.9064
  16463138.54647  12835766.92844  23191805.5394                   23191810.4694
 -19019867.03248 -14765016.69146  20850446.4384                   20850448.7624
  -1970662.57846  -1486675.18843  24292366.1094                   24292371.5944
  -3391997.13148  -2636800.48246  21167709.8914                   21167710.4574
 -12305582.84847  -9039959.40644  23206412.1724                   23206416.3714
  -2899441.86346  -2200861.07643  24074443.5474                   24074448.3794
  -6034197.893 8  -4643816.535 7  20877868.844
 11  8  5 22 29  0.0000000  0  9G09G24G08G04G02G28G27G20G17
  -3973949.93046  -2844395.78943  23454899.0704                   23454903.7194
  13888046.64646  10827909.80743  24618617.1174                   24618624.4534
  16579133.38847  12926152.40144  23213878.1884                   23213883.8794
 -19093305.42648 -14822241.36646  20836471.6094                   20836473.7504
  -2072206.57446  -1565799.98543  24273042.8444                   24273048.6374
  -3380254.73648  -2627650.55446  21169944.1644                   21169944.8444
 -12366596.80947  -9087502.69444  23194801.4774                   23194805.1134
  -2916914.16246  -2214475.82243  24071119.3834                   24071124.0554
  -6017965.676 8  -4631168.015 7  20880957.688
 11  8  5 22 29 30.0000000  0  9G09G24G08G04G02G28G27G20G17
  -4061822.70146  -2912868.02744  23438176.8834                   23438181.5904
  13990717.95046  10907913.03542  24638154.8284                   24638162.4734
  16695303.67247  13016674.58543  23235985.3914                   23235990.3094
 -19166277.18748 -14879102.42146  20822585.2194                   20822587.1454
  -2173651.69846  -1644847.76443  24253737.8204                   24253743.6254
  -3368220.56748  -2618273.26646  21172234.4304                   21172234.5084
 -12427228.94747  -9134748.46944  23183263.9694                   23183267.2074
  -2933953.18546  -2227753.00143  24067876.1254                   24067881.8094
  -6001554.937 8  -4618380.409 7  20884080.219
 11  8  5 22 30  0.0000000  0  8G09G08G04G02G28G27G20G17
  -4149283.45646  -2981019.20043  23421534.7894                   23421538.3364
  16811640.45947  13107326.50343  23258122.7114                   23258128.5634
 -19238785.99948 -14935602.74146  20808786.9924                   20808789.7304
  -2275001.40646  -1723821.19043  24234451.3444                   24234457.1024
  -3355898.83548  -2608671.90646  21174579.0704                   21174579.2704
 -12487483.03347  -9181699.65944  23171797.6414                   23171801.5944
  -2950562.73946  -2240695.53143  24064716.0784                   24064721.0434
  -5984972.240 8  -4605458.802 7  20887236.117
 11  8  5 22 30 30.0000000  0  8G09G08G04G02G28G27G20G17
  -4236324.85546  -3048843.64443  23404970.1954                   23404973.9414
  16928145.45947  13198109.52244  23280293.3134                   23280298.3484
 -19310825.25348 -14991737.17346  20795078.5004                   20795081.1564
  -2376249.12246  -1802715.11443  24215185.2504                   24215189.5704
  -3343283.79348  -2598841.99246  21176979.6024                   21176979.9774
 -12547352.72647  -9228351.32845  23160404.7664                   23160408.2704
  -2966736.98946  -2253298.90743  24061638.1644                   24061643.1174
  -5968213.919 8  -4592400.354 7  20890425.141
 11  8  5 22 31  0.0000000  0  8G09G08G04G02G28G27G20G17
  -4322946.11546  -3116340.67143  23388485.9384                   23388491.0514
  17044812.89746  13289019.10143  23302494.2344                   23302499.3444
 -19382395.12948 -15047505.84446  20781459.2034                   20781461.9264
  -2477395.52347  -1881530.13943  24195936.7734                   24195941.7464
  -3330376.41048  -2588784.29146  21179435.6254                   21179436.0514
 -12606838.71247  -9274704.01244  23149084.5944                   23149087.5944
  -2982476.55246  -2265563.50043  24058643.4224                   24058648.1134
  -5951283.683 8  -4579207.962 7  20893646.922
 11  8  5 22 31 30.0000000  0  8G09G08G04G02G28G27G20G17
  -4409144.07846  -3183507.88643  23372084.1334                   23372087.3954
  17161641.00746  13380053.88043  23324726.3444                   23324732.0164
 -19453493.03748 -15102906.75646  20767929.9064                   20767932.1174
  -2578438.16647  -1960264.31943  24176708.8914                   24176713.7584
  -3317175.08648  -2578497.54046  21181947.9614                   21181948.6374
 -12665938.34347  -9320755.67644  23137838.7894                   23137841.5234
  -2997779.09446  -2277487.61043  24055731.2344                   24055736.1524
  -5934181.909 8  -4565881.900 7  20896901.305
 11  8  5 22 32  0.0000000  0  8G09G08G04G02G28G27G20G17
  -4494914.83646  -3250342.18143  23355761.6954                   23355765.9924
  17278627.58446  13471212.12143  23346988.1804                   23346993.6524
 -19524115.76448 -15157937.41046  20754490.6884                   20754493.4024
  -2679373.36147  -2038914.76443  24157502.1094                   24157505.6414
  -3303677.10248  -2567979.64146  21184516.3914                   21184516.8164
 -12724648.69247  -9366503.99245  23126666.3134                   23126670.1294
  -3012642.09346  -2289069.20143  24052902.9064                   24052907.5474
  -5916908.720 8  -4552422.308 7  20900188.156
 11  8  5 22 32 30.0000000  0  8G09G08G04G02G28G27G20G17
  -4580256.94847  -3316842.54644  23339522.6724                   23339525.8324
  17395767.67146  13562490.05843  23369279.5474                   23369284.2344
 -19594262.98048 -15212597.52746  20741142.3594                   20741144.7464
  -2780201.22747  -2117481.58344  24138314.4454                   24138318.7544
  -3289883.17748  -2557231.12746  21187141.5944                   21187141.7274
 -12782969.78947  -9411949.00845  23115568.4614                   23115571.2274
  -3027065.25646  -2300308.10443  24050158.1414                   24050163.0084
  -5899466.621 7  -4538831.066 7  20903507.172
 11  8  5 22 33  0.0000000  0  8G09G08G04G02G28G27G20G17
  -4665167.26647  -3383006.42544  23323364.2274                   23323368.1454
  17513058.41646  13653885.34643  23391597.9694                   23391603.9064
 -19663932.32548 -15266885.27246  20727884.4454                   20727887.1604
  -2880919.45946  -2195962.96643  24119148.9224                   24119152.3914
  -3275791.58047  -2546250.67746  21189822.6884                   21189823.4494
 -12840899.64947  -9457089.16845  23104544.8914                   23104547.7384
  -3041047.13746  -2311203.13543  24047498.0784                   24047502.5984
  -5881856.662 7  -4525109.029 7  20906858.422
 11  8  5 22 33 30.0000000  0  8G09G08G04G02G28G27G20G17
  -4749641.14147  -3448830.23644  23307289.5314                   23307293.9694
  17630498.45447  13745396.94443  23413947.3984                   23413952.1334
 -19733120.36248 -15320797.96846  20714718.6954                   20714720.9774
  -2981524.37146  -2274356.03043  24100002.9144                   24100007.1644
  -3261399.66548  -2535036.21246  21192561.6094                   21192562.4104
 -12898434.78447  -9501921.73945  23093596.4224                   23093599.5044
  -3054584.43946  -2321751.76643  24044921.9304                   24044926.5274
  -5864078.184 8  -4511255.677 7  20910241.617
 11  8  5 22 34  0.0000000  0  8G09G08G04G02G28G27G20G17
  -4833677.92547  -3514313.47243  23291297.1804                   23291301.7814
  17748083.01246  13837021.20443  23436323.3284                   23436327.4144
 -19801826.87348 -15374335.45046  20701643.9694                   20701646.1804
  -3082015.73846  -2352660.61744  24080880.4384                   24080884.1804
  -3246708.11648  -2523588.27246  21195357.1254                   21195358.2544
 -12955575.33847  -9546446.85145  23082722.3054                   23082726.1954
  -3067677.71046  -2331954.42643  24042430.4694                   24042434.9844
  -5846134.212 8  -4497273.380 7  20913656.250
 11  8  5 22 34 30.0000000  0  8G09G08G04G02G28G27G20G17
  -4917273.74747  -3579453.11844  23275390.4064                   23275393.9964
  17865810.59547  13928756.90143  23458726.0554                   23458730.8134
 -19870048.54348 -15427495.13846  20688661.9924                   20688664.2234
  -3182390.24646  -2430874.17344  24061779.5704                   24061782.8404
  -3231714.01848  -2511904.57546  21198210.3524                   21198211.2854
 -13012318.18147  -9590662.06744  23071924.5474                   23071927.8634
  -3080323.86346  -2341808.69643  24040024.1644                   24040028.4614
  -5828024.714 8  -4483162.108 7  20917102.680
 11  8  5 22 35  0.0000000  0  8G09G08G04G02G28G27G20G17
  -5000426.69347  -3644247.70843  23259566.7894                   23259569.9344
  17983676.64446  14020600.49343  23481154.6024                   23481160.4844
 -19937784.59748 -15480276.43046  20675771.8834                   20675774.2974
  -3282647.04646  -2508996.00344  24042700.7664                   24042704.4264
  -3216417.64048  -2499985.33346  21201121.4304                   21201121.9454
 -13068662.64147  -9634566.86644  23061202.9384                   23061205.8594
  -3092522.52546  -2351314.25843  24037702.4304                   24037706.8634
  -5809751.548 8  -4468923.324 7  20920579.898
 11  8  5 22 35 30.0000000  0  8G09G08G04G02G28G27G20G17
  -5083132.59547  -3708693.98543  23243828.3914                   23243831.1414
  18101679.51946  14112550.66843  23503610.5554                   23503615.9024
 -20005031.54548 -15532676.59646  20662975.3834                   20662977.4024
  -3382782.74446  -2587023.47544  24023645.7504                   24023649.4694
  -3200816.21048  -2487828.39746  21204090.5944                   21204091.2344
 -13124605.70747  -9678158.87445  23050557.3914                   23050559.8164
  -3104270.62746  -2360468.77943  24035467.5084                   24035471.7774
  -5791314.546 8  -4454556.875 7  20924088.000
 11  8  5 22 36  0.0000000  0  8G09G08G04G02G28G27G20G17
  -5165389.90347  -3772790.71643  23228175.8204                   23228177.9384
  18219814.89146  14204604.12643  23526091.2344                   23526096.5474
 -20071788.98548 -15584695.33946  20650271.8914                   20650273.7194
  -3482797.01446  -2664956.33844  24004612.8754                   24004616.9264
  -3184909.89748  -2475433.88646  21207117.1484                   21207117.9184
 -13180147.02547  -9721437.84144  23039987.8524                   23039990.7584
  -3115568.06246  -2369272.06143  24033317.8284                   24033321.9734
  -5772715.869 8  -4440064.461 7  20927627.117
 11  8  5 22 36 30.0000000  0  8G09G08G04G02G28G27G20G17
  -5247194.88847  -3836534.95743  23212608.6414                   23212610.5354
  18338080.68446  14296759.14843  23548595.8914                   23548601.4534
 -20138053.95948 -15636330.34246  20637661.8524                   20637664.0084
  -3582686.72946  -2742792.19944  23985604.2424                   23985608.0234
  -3168696.51348  -2462800.11046  21210202.3834                   21210203.0744
 -13235283.98247  -9764401.69745  23029495.8754                   23029499.2894
  -3126412.72146  -2377722.55943  24031254.1414                   24031258.6174
  -5753955.816 8  -4425446.276 7  20931197.273
 11  8  5 22 37  0.0000000  0  8G09G08G04G02G28G27G20G17
  -5328545.19446  -3899924.93143  23197129.2504                   23197130.9264
  18456473.47546  14389013.15743  23571125.9534                   23571131.6024
 -20203824.85548 -15687580.33846  20625145.8674                   20625148.1684
  -3682449.87546  -2820529.39744  23966619.5164                   23966623.1174
  -3152175.12048  -2449926.32346  21213346.1414                   21213347.0784
 -13290015.22347  -9807049.44045  23019080.4384                   23019083.5744
  -3136803.31846  -2385819.28443  24029277.2894                   24029281.5704
  -5735035.558 8  -4410703.266 7  20934797.695
 11  8  5 22 37 30.0000000  0  8G09G08G04G02G28G27G20G17
  -5409438.91347  -3962959.06443  23181734.9774                   23181737.8204
  18574989.25746  14481362.97643  23593679.1414                   23593684.0164
 -20269100.99848 -15738444.83246  20612724.0004                   20612726.5554
  -3782085.52046  -2898167.27944  23947659.4844                   23947662.6564
  -3135345.67547  -2436812.51046  21216549.0474                   21216549.8594
 -13344340.15547  -9849380.56145  23008742.9534                   23008746.5084
  -3146739.77646  -2393562.05543  24027385.5864                   24027390.8244
  -5715957.289 7  -4395837.115 7  20938428.438
 11  8  5 22 38  0.0000000  0  8G09G08G04G02G28G27G20G17
  -5489871.51547  -4025633.91644  23166429.0084                   23166433.2934
  18693626.97246  14573807.84843  23616254.9144                   23616260.4184
 -20333878.66148 -15788920.90146  20600397.6024                   20600400.1254
  -3881590.05046  -2975703.01744  23928724.2584                   23928727.7234
  -3118205.29948  -2423456.41346  21219810.8524                   21219811.4534
 -13398255.31447  -9891392.38845  22998483.6564                   22998486.9414
  -3156218.77446  -2400948.42943  24025582.6094                   24025586.8444
  -5696720.199 8  -4380847.209 7  20942088.789
 11  8  5 22 38 30.0000000  0  8G09G08G04G02G28G27G20G17
  -5569841.52446  -4087948.30043  23151210.9064                   23151215.8714
  18812382.30746  14666344.31843  23638853.4774                   23638859.0594
 -20398157.23048 -15839008.07046  20588165.5944                   20588167.7624
  -3980962.88747  -3053136.14543  23909814.6804                   23909817.4304
  -3100753.68148  -2409857.78146  21223131.4844                   21223132.3674
 -13451760.02547  -9933084.40045  22988301.8834                   22988305.1764
  -3165239.76846  -2407977.89843  24023865.9534                   24023870.0944
  -5677326.481 8  -4365735.276 7  20945779.477
 11  8  5 22 39  0.0000000  0  8G09G08G04G02G28G27G20G17
  -5649346.18246  -4149900.06543  23136082.0234                   23136086.4414
  18931252.34346  14758970.16843  23661473.7194                   23661479.4734
 -20461934.88248 -15888704.90846  20576029.4384                   20576031.3554
  -4080201.91947  -3130465.07244  23890929.2814                   23890932.1994
  -3082989.69748  -2396015.75846  21226512.1094                   21226513.0824
 -13504852.69047  -9974455.32545  22978198.6644                   22978201.4654
  -3173801.51646  -2414649.52143  24022235.9774                   24022240.8914
  -5657777.021 8  -4350502.012 7  20949499.531
 11  8  5 22 39 30.0000000  0  8G09G08G04G02G28G27G20G17
  -5728381.75547  -4211486.32044  23121042.1414                   23121047.1374
  19050234.54346  14851683.47243  23684115.2344                   23684119.8914
 -20525208.81248 -15938009.23246  20563988.3134                   20563990.7504
  -4179304.26646  -3207687.47944  23872070.4224                   23872073.5904
  -3064911.20048  -2381928.66146  21229952.2664                   21229952.8834
 -13557530.86647 -10015503.28345  22968174.5084                   22968177.3054
  -3181901.94846  -2420961.67243  24020694.7114                   24020699.8794
  -5638072.119 8  -4335147.615 7  20953249.023
 11  8  5 22 40  0.0000000  0  8G09G08G04G02G28G27G20G17
  -5806946.74547  -4272705.88044  23106091.5634                   23106097.0704
  19169325.38846  14944481.38543  23706777.7814                   23706782.3634
 -20587978.68748 -15986920.78846  20552043.7424                   20552045.9184
  -4278269.13146  -3284802.76644  23853238.6254                   23853241.5514
  -3046518.30548  -2367596.58046  21233452.1804                   21233453.1374
 -13609794.10147 -10056227.88845  22958229.4384                   22958232.2854
  -3189540.63546  -2426914.03643  24019241.4924                   24019245.9534
  -5618213.862 8  -4319673.731 7  20957028.555
 11  8  5 22 40 30.0000000  0  8G09G08G04G02G28G27G20G17
  -5885038.74147  -4333556.85144  23091231.5704                   23091236.5434
  19288521.36346  15037361.26643  23729459.7734                   23729465.4384
 -20650242.19948 -16035437.76846  20540195.1094                   20540197.5634
  -4377094.08347  -3361809.05144  23834432.2664                   23834434.7304
  -3027809.81248  -2353018.57746  21237012.5394                   21237013.2074
 -13661640.64048 -10096627.81945  22948363.1564                   22948365.8594
  -3196716.53146  -2432505.81443  24017876.4844                   24017880.9144
  -5598203.202 8  -4304081.105 7  20960836.523
 11  8  5 22 41  0.0000000  0  8G09G08G04G02G28G27G20G17
  -5962653.20747  -4394035.75244  23076461.1644                   23076466.1954
  19407821.25946  15130322.11643  23752161.9224                   23752167.1214
 -20711996.47848 -16083557.94946  20528444.0864                   20528446.3874
  -4475776.24347  -3438704.09044  23815654.1094                   23815656.9024
  -3008783.28748  -2338192.75746  21240633.0554                   21240633.4734
 -13713067.40747 -10136700.65745  22938576.8594                   22938580.1374
  -3203426.98346  -2437734.91243  24016599.3524                   24016604.3484
  -5578039.639 8  -4288369.326 7  20964673.406
 11  8  5 22 41 30.0000000  0  8G09G08G04G02G28G27G20G17
  -6039789.17547  -4454141.80044  23061783.8444                   23061787.7734
  19527220.41046  15223360.23043  23774883.3284                   23774889.1484
 -20773241.36448 -16131281.20346  20516789.6334                   20516792.1334
  -4574314.85347  -3515487.29344  23796901.8444                   23796904.3714
  -2989439.06048  -2323119.37946  21244314.2504                   21244315.1214
 -13764074.46447 -10176446.42845  22928870.6414                   22928874.0234
  -3209672.23746  -2442601.53943  24015410.9454                   24015416.6914
  -5557725.720 8  -4272540.381 7  20968539.125
 11  8  5 22 42  0.0000000  0  8G09G08G04G02G28G27G20G17
  -6116443.36647  -4513872.41044  23047196.5554                   23047201.2274
  19646716.28346  15316473.74943  23797622.2814                   23797628.8634
 -20833974.30848 -16178605.54046  20505232.5004                   20505234.4614
  -4672707.38747  -3592156.67444  23778178.6644                   23778181.3484
  -2969774.87848  -2307796.69246  21248056.6564                   21248056.9454
 -13814659.42547 -10215863.31145  22919244.6484                   22919247.7234
  -3215450.21246  -2447104.00543  24014312.6334                   24014316.6914
  -5537261.860 8  -4256594.592 7  20972433.242
 11  8  5 22 42 30.0000000  0  8G09G08G04G02G28G27G20G17
  -6192614.37247  -4573226.47144  23032701.1954                   23032705.6484
  19766304.99746  15409659.63143  23820379.3984                   23820385.7194
 -20894194.98448 -16225530.71846  20493772.6254                   20493774.6844
  -4770953.06947  -3668711.63944  23759482.7194                   23759486.2194
  -2949791.51048  -2292225.28746  21251858.9144                   21251859.8134
 -13864822.07947 -10254951.11345  22909699.1804                   22909701.6724
  -3220760.95946  -2451242.43843  24013301.9224                   24013306.6294
  -5516649.866 8  -4240533.389 7  20976355.719
 11  8  5 22 43  0.0000000  0  8G09G08G04G02G28G27G20G17
  -6268296.77647  -4632199.83444  23018299.9304                   23018304.3094
  19885986.13646  15502917.48343  23843153.9844                   23843159.9774
 -20953898.80248 -16272053.13546  20482411.6414                   20482413.7274
  -4869047.39646  -3745148.66944  23740815.5234                   23740818.8244
  -2929484.97048  -2276402.06546  21255723.1174                   21255724.0394
 -13914558.14147 -10293706.51745  22900234.5704                   22900237.4224
  -3225600.53746  -2455013.71943  24012380.7734                   24012385.6884
  -5495888.123 8  -4224355.499 7  20980306.289
 11  8  5 22 43 30.0000000  0  8G09G08G04G02G28G27G20G17
  -6343491.82647  -4690793.40444  23003990.8914                   23003995.1604
  20005752.60146  15596241.81943  23865945.7114                   23865951.5514
 -21013088.18748 -16318174.71046  20471147.9304                   20471149.9694
  -4966992.03846  -3821469.05844  23722176.9384                   23722180.6914
  -2908857.42848  -2260328.71146  21259648.4694                   21259649.3484
 -13963869.92547 -10332131.32945  22890850.6174                   22890853.8444
  -3229971.66946  -2458420.02643  24011548.7894                   24011554.6804
  -5474981.451 8  -4208064.710 7  20984285.086
 11  8  5 22 44  0.0000000  0  8G09G08G04G02G28G27G20G17
  -6418192.64647  -4749001.86144  22989775.7664                   22989779.8914
  20125605.94746  15689633.84943  23888753.0314                   23888759.2034
 -21071757.37148 -16363890.92946  20459984.0704                   20459986.1414
  -5064780.70347  -3897667.96244  23703568.5634                   23703571.8014
  -2887903.98248  -2244001.41946  21263636.1724                   21263637.0204
 -14012751.83247 -10370221.17345  22881548.8984                   22881552.1844
  -3233868.79146  -2461456.97343  24010807.5234                   24010812.5354
  -5453926.691 8  -4191658.495 7  20988291.750
 11  8  5 22 44 30.0000000  0  8G09G08G04G02G28G27G20G17
  -6492400.77947  -4806826.39244  22975654.6174                   22975658.6454
  20245539.32146  15783088.25043  23911575.1414                   23911581.6684
 -21129908.55348 -16409203.52146  20448918.0474                   20448919.4224
  -5162415.39847  -3973746.85744  23684989.7894                   23684991.8874
  -2866627.36148  -2227422.28446  21267685.2584                   21267685.5044
 -14061206.23947 -10407977.88345  22872328.2894                   22872331.7854
  -3237294.94646  -2464126.99443  24010155.8984                   24010160.8634
  -5432728.573 8  -4175140.583 7  20992325.695
 11  8  5 22 45  0.0000000  0  8G09G08G04G02G28G27G20G17
  -6566111.13647  -4864263.05144  22961628.2894                   22961632.1374
  20365552.16946  15876604.51543  23934413.1954                   23934419.8404
 -21187537.62348 -16454109.27346  20437951.4384                   20437953.6414
  -5259892.14247  -4049702.68444  23666439.8594                   23666443.6024
  -2845024.22048  -2210588.73346  21271795.6254                   21271796.6024
 -14109229.21647 -10445398.42745  22863189.9304                   22863193.6684
  -3240246.50846  -2466427.17143  24009595.0704                   24009599.3324
  -5411385.627 8  -4158509.741 7  20996386.938
 11  8  5 22 45 30.0000000  0  8G09G08G04G02G28G27G20G17
  -6639321.58247  -4921310.13444  22947696.7034                   22947701.1134
  20485640.67746  15970179.81943  23957265.3754                   23957271.8874
 -21244643.72148 -16498607.50946  20427084.3834                   20427086.8284
  -5357209.33447  -4125534.22544  23647921.9144                   23647924.1254
  -2823094.06848  -2193500.35946  21275969.0944                   21275969.6294
 -14156819.84647 -10482482.05645  22854133.6954                   22854137.4454
  -3242722.78246  -2468356.98343  24009123.9304                   24009128.9224
  -5389899.420 8  -4141767.327 7  21000476.023
 11  8  5 22 46  0.0000000  0  8G09G08G04G02G28G27G20G17
  -6712030.52747  -4977966.46144  22933860.0554                   22933865.4344
  20605800.93346  16063810.99043  23980130.7814                   23980137.7734
 -21301226.04348 -16542697.61346  20416317.3914                   20416319.5514
  -5454365.97847  -4201240.66444  23629433.5314                   23629436.1294
  -2800836.72948  -2176157.02446  21280204.6564                   21280205.3954
 -14203977.34147 -10519228.19545  22845159.9384                   22845164.1334
  -3244723.60446  -2469916.30643  24008743.2814                   24008748.2114
  -5368271.463 8  -4124914.403 7  21004591.414
 11  8  5 22 46 30.0000000  0  8G09G08G04G02G28G27G20G17
  -6784233.29047  -5034228.32244  22920120.9844                   22920125.9844
  20726032.57746  16157497.76243  24003011.1644                   24003016.4694
 -21357280.88448 -16586376.70146  20405650.2664                   20405652.1804
  -5551357.92047  -4276818.75744  23610976.3204                   23610978.9574
  -2778248.50648  -2158555.86746  21284503.0394                   21284503.7114
 -14250698.03147 -10555633.97245  22836269.4144                   22836273.3914
  -3246245.66946  -2471102.57443  24008453.3674                   24008458.6414
  -5346500.705 8  -4107950.263 7  21008734.773
 11  8  5 22 47  0.0000000  0  8G09G08G04G02G28G27G20G17
  -6855931.13046  -5090096.73244  22906476.8674                   22906481.7774
  20846328.81746  16251234.91643  24025901.5004                   24025908.7814
 -21412810.44748 -16629646.49246  20395083.6024                   20395085.5824
  -5648186.60547  -4352269.64244  23592550.4224                   23592553.2734
  -2755332.08448  -2140698.98946  21288863.9924                   21288864.4964
 -14296984.24847 -10591701.19145  22827461.3834                   22827465.4804
  -3247291.59446  -2471917.81843  24008254.1174                   24008259.7234
  -5324591.580 8  -4090878.278 7  21012903.555
 11  8  5 22 47 30.0000000  0  8G09G08G04G02G28G27G20G17
  -6927118.98747  -5145567.77044  22892930.0164                   22892934.9184
  20966689.28546  16345022.07943  24048805.7814                   24048812.4414
 -21467810.85048 -16672503.95546  20384616.8834                   20384619.1024
  -5744847.88047  -4427590.09844  23574155.7584                   23574158.9884
  -2732084.41948  -2122583.99846  21293287.8134                   21293288.4734
 -14342832.29547 -10627427.00645  22818736.4774                   22818740.7384
  -3247858.19146  -2472359.56443  24008146.5394                   24008152.3594
  -5302542.843 8  -4073697.515 7  21017099.195
 11  8  5 22 48  0.0000000  0  8G09G08G04G02G28G27G20G17
  -6997793.60447  -5200638.86943  22879480.8134                   22879485.2704
  21087111.60446  16438857.38743  24071721.9924                   24071728.7194
 -21522279.75248 -16714947.25946  20374252.1644                   20374254.1604
  -5841339.00147  -4502777.97444  23555795.2664                   23555797.4614
  -2708503.54847  -2104209.34646  21297774.8984                   21297775.8164
 -14388239.98147 -10662809.68845  22810095.9144                   22810099.6134
  -3247943.55246  -2472426.31143  24008130.7664                   24008136.0904
  -5280354.404 7  -4056407.949 7  21021321.609
 11  8  5 22 48 30.0000000  0  8G09G08G04G02G28G27G20G17
  -7067954.42947  -5255309.59844  22866129.6254                   22866133.4804
  21207591.00646  16532737.28442  24094648.2894                   24094654.2974
 -21576217.47148 -16756976.65346  20363987.9534                   20363989.9144
  -5937659.90347  -4577833.20744  23537465.4144                   23537467.9804
  -2684590.12048  -2085575.57646  21302325.6414                   21302326.9774
 -14433207.66947 -10697849.50945  22801538.8204                   22801542.6524
  -3247548.41046  -2472118.64243  24008205.5004                   24008211.0824
  -5258028.871 8  -4039011.539 7  21025570.500
 11  8  5 22 49  0.0000000  0  8G09G08G04G02G28G27G20G17
  -7137597.85647  -5309577.18644  22852877.2814                   22852880.6254
  21328125.53746  16626660.00043  24117586.1644                   24117591.3834
 -21629621.61448 -16798590.27746  20353825.3984                   20353827.4734
  -6033807.44447  -4652753.34544  23519169.1884                   23519172.3014
  -2660342.14648  -2066681.11946  21306940.0944                   21306941.3094
 -14477733.08347 -10732544.71545  22793066.6644                   22793069.6954
  -3246670.70646  -2471434.90243  24008373.9144                   24008379.0554
  -5235566.094 8  -4021508.220 7  21029845.336
 11  8  5 22 49 30.0000000  0  8G09G08G04G02G28G27G20G17
  -7206723.37347  -5363441.18544  22839723.9694                   22839726.7194
  21448710.89246  16720622.41043  24140532.9924                   24140539.2424
 -21682492.57348 -16839788.43946  20343764.6414                   20343766.4494
  -6129781.78247  -4727538.51144  23500905.7894                   23500908.1804
  -2635760.43848  -2047526.61446  21311618.0084                   21311618.6844
 -14521816.47947 -10766895.49345  22784678.0704                   22784681.3554
  -3245311.25946  -2470375.78443  24008632.3204                   24008637.8054
  -5212968.846 8  -4003900.065 7  21034145.430
 11  8  5 22 50  0.0000000  0  8G09G08G04G02G28G27G20G17
  -7275326.84547  -5416898.38444  22826668.3054                   22826672.4024
  21569344.84746  16814622.67243  24163489.1484                   24163494.7584
 -21734827.38048 -16880568.81846  20333805.6484                   20333807.8324
  -6225579.57847  -4802186.16044  23482676.3914                   23482678.7384
  -2610842.09648  -2028109.79146  21316359.8134                   21316360.7934
 -14565454.93247 -10800899.54245  22776373.8834                   22776376.7304
  -3243467.62946  -2468939.36443  24008982.7194                   24008989.1454
  -5190236.404 8  -3986186.611 7  21038471.336
 11  8  5 22 50 30.0000000  0  8G09G08G04G02G28G27G20G17
  -7343406.35847  -5469947.28544  22813713.9224                   22813717.4924
  21690024.62446  16908658.63643  24186454.0004                   24186459.2424
 -21786625.27348 -16920930.82346  20323948.5164                   20323950.7624
  -6321198.84247  -4876694.66144  23464480.7194                   23464482.9414
  -2585586.86948  -2008430.45646  21321165.7034                   21321166.7194
 -14608647.53347 -10834556.17545  22768154.2974                   22768157.2624
  -3241139.53246  -2467125.40643  24009426.0474                   24009432.6374
  -5167369.689 8  -3968368.495 7  21042822.547
 11  8  5 22 51  0.0000000  0  8G09G08G04G02G28G27G20G17
  -7410959.14047  -5522585.74144  22800858.6094                   22800863.4184
  21810747.86446  17002728.43843  24209426.8984                   24209433.5434
 -21837884.07248 -16960872.74846  20314194.7424                   20314196.5594
  -6416637.19447  -4951062.16144  23446319.1484                   23446321.8054
  -2559993.26948  -1988487.47446  21326036.1564                   21326037.1054
 -14651392.40247 -10867863.93445  22760020.4534                   22760023.0394
  -3238325.60746  -2464932.91143  24009962.3204                   24009967.7034
  -5144369.284 8  -3950446.172 7  21047199.570
 11  8  5 22 51 30.0000000  0  8G09G08G04G02G28G27G20G17
  -7477983.44047  -5574812.38744  22788104.3364                   22788109.1524
  21931510.91846  17096829.27943  24232407.7424                   24232413.8284
 -21888603.15848 -17000394.11346  20304543.1334                   20304545.1804
  -6511893.90847  -5025288.14144  23428191.7504                   23428194.9774
  -2534061.06448  -1968280.62946  21330970.6174                   21330972.2544
 -14693689.19147 -10900822.52945  22751971.6644                   22751974.3244
  -3235025.28946  -2462361.43043  24010589.5864                   24010596.5824
  -5121236.822 8  -3932420.939 7  21051601.563
 11  8  5 22 52  0.0000000  0  8G09G08G04G02G28G27G20G17
  -7544475.94647  -5626624.64844  22775451.2814                   22775455.8674
  22052311.97646  17190959.72643  24255395.0314                   24255402.4024
 -21938780.37648 -17039493.24946  20294994.6094                   20294996.5434
  -6606965.82647  -5099370.12044  23410100.3364                   23410103.6804
  -2507788.19948  -1947808.34246  21335970.1254                   21335971.3834
 -14735535.39447 -10933430.04045  22744008.9774                   22744011.1884
  -3231237.20046  -2459409.84243  24011310.8834                   24011316.9534
  -5097971.946 8  -3914292.509 7  21056028.633
 11  8  5 22 52 30.0000000  0  9G09G10G08G04G02G28G27G20G17
  -7610434.58747  -5678020.90044  22762898.9454                   22762904.8284
     80241.95146    109369.41843  24610330.3754                   24610336.5514
  22173147.72346  17285117.19943  24278390.3834                   24278397.0204
 -21988414.75848 -17078169.39346  20285549.5394                   20285551.8984
  -6701851.26747  -5173306.80644  23392044.5004                   23392047.7974
  -2481173.94948  -1927070.05546  21341035.1174                   21341036.0944
 -14776930.06047 -10965685.66545  22736131.2034                   22736134.1724
  -3226960.61646  -2456077.65243  24012124.6334                   24012130.9144
  -5074575.880 8  -3896061.849 7  21060481.008
 11  8  5 22 53  0.0000000  0  9G09G10G08G04G02G28G27G20G17
  -7675858.98047  -5729000.86844  22750449.4064                   22750454.2034
    -10301.78945     38815.98643  24593100.1884                   24593106.4104
  22294013.29646  17379297.92643  24301390.3444                   24301396.8634
 -22037506.91248 -17116423.02246  20276207.3594                   20276209.4064
  -6796550.42247  -5247098.32945  23374024.3284                   23374027.4844
  -2454219.16548  -1906066.40146  21346164.5474                   21346165.4224
 -14817873.83647 -10997589.95145  22728339.7504                   22728343.5634
  -3222196.86046  -2452365.85743  24013031.1804                   24013036.9694
  -5051051.417 8  -3877731.114 7  21064957.422
 11  8  5 22 53 30.0000000  0  9G09G10G08G04G02G28G27G20G17
  -7740744.58947  -5779561.01744  22738101.9534                   22738106.4414
   -100974.86146    -31838.22643  24575845.2734                   24575852.0234
  22414907.94146  17473501.31343  24324395.3444                   24324402.0044
 -22086053.45948 -17154251.49046  20266969.5234                   20266971.4924
  -6891059.09547  -5320741.41345  23356039.4614                   23356043.3874
  -2426921.03348  -1884795.20046  21351359.0634                   21351360.0984
 -14858363.33547 -11029140.23745  22720635.1564                   22720638.4184
  -3216942.68046  -2448271.81443  24014030.7894                   24014037.2934
  -5027397.072 8  -3859299.223 7  21069458.836
 11  8  5 22 54  0.0000000  0  9G09G10G08G04G02G28G27G20G17
  -7805091.03847  -5829701.08044  22725857.7814                   22725860.6644
   -191776.50146   -102592.60843  24558566.2734                   24558573.5984
  22535827.51746  17567724.13242  24347405.5944                   24347412.2114
 -22134054.97448 -17191655.25846  20257835.2974                   20257837.3954
  -6985377.29647  -5394236.06244  23338090.9844                   23338094.1294
  -2399280.36548  -1863257.10046  21356619.0004                   21356620.2814
 -14898399.21147 -11060337.05445  22713016.6644                   22713020.1414
  -3211199.28146  -2443796.54843  24015124.0004                   24015130.6844
  -5003615.135 8  -3840767.825 7  21073984.141
 11  8  5 22 54 30.0000000  0  9G09G10G08G04G02G28G27G20G17
  -7868894.63647  -5879418.09444  22713715.8594                   22713719.2344
   -282702.56546   -173444.01743  24541263.9454                   24541270.5864
  22656770.14746  17661964.88443  24370420.1884                   24370428.1174
 -22181508.87448 -17228632.32246  20248804.8444                   20248806.5394
  -7079501.76147  -5467579.77444  23320180.1884                   23320182.9454
  -2371294.71748  -1841450.18146  21361944.8984                   21361946.0394
 -14937978.76147 -11091178.27645  22705485.1644                   22705488.6214
  -3204964.36546  -2438938.23443  24016309.9924                   24016318.0594
  -4979705.375 8  -3822136.899 7  21078534.250
 11  8  5 22 55  0.0000000  0  9G09G10G08G04G02G28G27G20G17
  -7932154.16347  -5928711.16544  22701678.0394                   22701681.4454
   -373751.65246   -244391.28543  24523937.7274                   24523944.2194
  22777731.77645  17756220.41343  24393438.5004                   24393446.1844
 -22228414.84248 -17265182.41046  20239879.1024                   20239880.8284
  -7173431.55247  -5540771.76944  23302305.3984                   23302309.7074
  -2342964.18948  -1819374.53746  21367335.6644                   21367337.0664
 -14977101.75147 -11121663.73645  22698039.4614                   22698043.5664
  -3198238.33446  -2433697.27143  24017591.0554                   24017597.2304
  -4955669.441 8  -3803407.636 7  21083108.258
 11  8  5 22 55 30.0000000  0  9G09G10G08G04G02G28G27G20G17
  -7994867.33847  -5977578.51844  22689744.2034                   22689747.1604
   -464920.77146   -315432.11843  24506587.8674                   24506595.0704
  22898709.85845  17850488.83442  24416461.8594                   24416467.6094
 -22274771.97848 -17301304.83146  20231057.4224                   20231059.8244
  -7267164.62947  -5613810.46844  23284468.7114                   23284472.2774
  -2314287.91748  -1797029.47946  21372792.7194                   21372794.1764
 -15015767.16447 -11151792.62745  22690681.7734                   22690686.3014
  -3191020.74346  -2428073.24043  24018964.1644                   24018970.1524
  -4931508.217 8  -3784580.760 7  21087706.180
 11  8  5 22 56  0.0000000  0  9G09G10G08G04G02G28G27G20G17
  -8057034.72147  -6026020.55544  22677913.7034                   22677917.4844
   -556209.78546   -386566.37343  24489216.7344                   24489223.4224
  23019698.77546  17944765.67242  24439484.0474                   24439491.3674
 -22320581.41948 -17337000.47846  20222340.1954                   20222342.2034
  -7360701.87646  -5686696.55844  23266669.1334                   23266672.3444
  -2285267.47948  -1774416.24046  21378315.3524                   21378316.8634
 -15053976.25347 -11181565.95945  22683411.5314                   22683415.1374
  -3183313.09146  -2422067.36343  24020430.8914                   24020436.8914
  -4907225.165 8  -3765658.943 7  21092326.852
 11  8  5 22 56 30.0000000  0  8G09G10G04G02G28G27G20G17
  -8118648.26547  -6074031.03444  22666188.6804                   22666192.9384
   -647610.19946   -457787.41443  24471823.4454                   24471830.4654
 -22365836.34848 -17372264.03146  20213728.1564                   20213730.4414
  -7454035.63547  -5759424.11544  23248908.0084                   23248911.4184
  -2255896.17748  -1751529.59046  21383904.4064                   21383906.1094
 -15091722.16447 -11210978.37545  22676228.6484                   22676232.1294
  -3175108.88846  -2415674.54243  24021992.3444                   24021998.8014
  -4882814.767 8  -3746637.872 7  21096972.281
 11  8  5 22 57  0.0000000  0  8G09G10G04G02G28G27G20G17
  -8179708.24347  -6121610.15844  22654569.8054                   22654572.9494
   -739122.07546   -529095.35843  24454409.4384                   24454416.1954
 -22410538.28848 -17407096.69346  20205221.7584                   20205224.0394
  -7547166.71647  -5831993.72044  23231186.2424                   23231189.9534
  -2226175.82648  -1728370.95746  21389560.2114                   21389561.4264
 -15129006.32747 -11240030.96445  22669133.9304                   22669137.2074
  -3166410.80246  -2408896.89243  24023648.2974                   24023654.5274
  -4858280.391 8  -3727520.227 7  21101641.227
 11  8  5 22 57 30.0000000  0  8G09G10G04G02G28G27G20G17
  -8240213.39547  -6168756.96644  22643055.3444                   22643059.3324
   -830743.09346   -600488.30243  24436975.1024                   24436980.9924
 -22454686.92448 -17441498.20446  20196820.4614                   20196822.5984
  -7640094.22347  -5904404.68744  23213502.4064                   23213505.9414
  -2196106.45748  -1704940.36046  21395282.2114                   21395283.4144
 -15165828.54847 -11268723.61545  22662126.3594                   22662130.6524
  -3157218.29947  -2401734.03543  24025396.4924                   24025403.3364
  -4833623.806 8  -3708307.319 7  21106332.836
 11  8  5 22 58  0.0000000  0  8G09G10G04G02G28G27G20G17
  -8300160.82247  -6215469.13944  22631647.9534                   22631651.8634
   -922470.47146   -671964.15643  24419519.3134                   24419526.4144
 -22498280.53048 -17475467.23646  20188525.1884                   20188527.3874
  -7732815.44747  -5976654.92144  23195857.7894                   23195860.8954
  -2165686.19248  -1681236.32946  21401070.6334                   21401072.2074
 -15202186.91247 -11297054.82645  22655207.4304                   22655211.4454
  -3147530.21146  -2394185.00643  24027241.0164                   24027247.4344
  -4808845.260 8  -3688999.382 7  21111048.219
 11  8  5 22 58 30.0000000  0  8G09G10G04G02G28G27G20G17
  -8359549.49947  -6261745.96044  22620346.6174                   22620350.9454
  -1014302.10446   -743521.25343  24402045.1414                   24402051.0704
 -22541319.09948 -17509003.77646  20180335.4304                   20180337.3984
  -7825329.41447  -6048743.63944  23178253.4844                   23178256.6724
  -2134915.54048  -1657259.27246  21406926.5634                   21406928.0234
 -15238081.34047 -11325024.53945  22648376.8204                   22648381.0394
  -3137346.96246  -2386250.13843  24029178.5234                   24029185.2034
  -4783945.995 8  -3669597.366 7  21115786.063
 11  8  5 22 59  0.0000000  0  8G09G10G04G02G28G27G20G17
  -8418377.09347  -6307585.59844  22609151.9304                   22609155.5744
  -1106235.06546   -815157.34243  24384550.4454                   24384556.5314
 -22583801.50248 -17542106.93646  20172250.9924                   20172253.3134
  -7917634.06347  -6120669.26244  23160688.0004                   23160690.6764
  -2103793.38048  -1633008.29246  21412849.0394                   21412850.5084
 -15273510.46047 -11352631.67545  22641635.2114                   22641639.0434
  -3126667.83546  -2377928.83143  24031210.8134                   24031217.2384
  -4758926.588 8  -3650101.725 7  21120547.711
 11  8  5 22 59 30.0000000  0  8G09G10G04G02G28G27G20G17
  -8476640.71747  -6352985.75944  22598065.2344                   22598068.2584
  -1198265.66445   -886869.47942  24367036.2894                   24367043.6134
 -22625726.07748 -17574775.42746  20164273.1414                   20164275.1604
  -8009726.99347  -6192429.89644  23143163.0164                   23143166.4534
  -2072317.99148  -1608482.08345  21418838.6254                   21418839.9024
 -15308472.62747 -11379874.95645  22634982.1954                   22634985.9654
  -3115491.53947  -2369220.10943  24033338.0784                   24033344.2974
  -4733786.830 8  -3630512.273 7  21125330.930
 11  8  5 23  0  0.0000000  0  8G09G10G04G02G28G27G20G17
  -8534339.98047  -6397946.15944  22587085.5864                   22587089.0274
  -1290392.51345   -958656.66642  24349505.6024                   24349513.3014
 -22667092.90948 -17607009.32146  20156400.9614                   20156403.3634
  -8101607.45547  -6264024.95144  23125678.9384                   23125682.3634
  -2040489.98348  -1583681.10146  21424895.1484                   21424896.7234
 -15342968.11047 -11406754.57745  22628418.0864                   22628421.3054
  -3103819.09747  -2360124.78943  24035558.7974                   24035566.4614
  -4708529.061 8  -3610830.868 7  21130137.141
 11  8  5 23  0 30.0000000  0  8G09G10G04G02G28G27G20G17
  -8591471.40147  -6442464.09144  22576213.9304                   22576217.7194
  -1382611.94146  -1030516.02343  24331956.7734                   24331963.7544
 -22707900.16248 -17638807.18346  20148635.6024                   20148637.8954
  -8193272.90747  -6335452.49644  23108235.6644                   23108238.2734
  -2008307.55348  -1558603.94746  21431019.2664                   21431021.0984
 -15376994.75747 -11433268.84345  22621942.3444                   22621946.1724
  -3091648.82246  -2350641.53943  24037874.3674                   24037882.2234
  -4683152.996 8  -3591057.290 7  21134966.977
 11  8  5 23  1  0.0000000  0  8G09G10G04G02G28G27G20G17
  -8648034.60847  -6486539.26344  22565449.7194                   22565454.7034
  -1474922.02746  -1102445.97343  24314390.7814                   24314396.9264
 -22748148.04948 -17670169.17446  20140977.0394                   20140978.8134
  -8284722.52947  -6406711.84445  23090832.8984                   23090835.9104
  -1975771.11948  -1533250.93745  21437211.2584                   21437212.9614
 -15410552.86047 -11459418.03545  22615556.6954                   22615559.8014
  -3078981.35647  -2340770.87243  24040285.1644                   24040292.3484
  -4657660.570 8  -3571193.065 7  21139817.867
 11  8  5 23  1 30.0000000  0  8G09G10G04G02G28G27G20G17
  -8704026.26747  -6530169.05544  22554795.3754                   22554799.6994
  -1567318.94346  -1174443.64943  24296808.6484                   24296815.0784
 -22787834.52248 -17701093.69446  20133424.9144                   20133426.7504
  -8375953.07847  -6477800.49244  23073472.1024                   23073475.8834
  -1942878.55448  -1507620.42245  21443470.3204                   21443471.5274
 -15443640.33747 -11485200.48545  22609260.4144                   22609263.4844
  -3065815.22846  -2330511.56743  24042790.7814                   24042798.3674
  -4632050.973 8  -3551237.509 7  21144691.164
 11  8  5 23  2  0.0000000  0  8G09G10G04G02G28G27G20G17
  -8759444.05147  -6573351.67444  22544249.0784                   22544253.7974
  -1659800.03046  -1246506.77943  24279209.7274                   24279216.8794
 -22826958.80748 -17731580.14646  20125979.6884                   20125981.9844
  -8466963.56447  -6548717.62845  23056154.3834                   23056156.8284
  -1909629.12948  -1481711.83346  21449797.4694                   21449799.4654
 -15476256.01447 -11510615.30245  22603053.9614                   22603056.9694
  -3052150.19046  -2319863.56643  24045391.6254                   24045398.3834
  -4606324.848 8  -3531191.183 7  21149586.242
 11  8  5 23  2 30.0000000  0  8G09G10G04G02G28G27G20G17
  -8814288.39147  -6616087.50244  22533813.0394                   22533816.6054
  -1752364.28446  -1318634.88543  24261596.3054                   24261602.2734
 -22865521.88848 -17761629.29446  20118641.2664                   20118643.3794
  -8557753.80947  -6619463.18845  23038876.5394                   23038880.3054
  -1876024.23048  -1455526.25846  21456192.1254                   21456193.5784
 -15508401.04747 -11535663.36645  22596937.2114                   22596939.9064
  -3037987.59646  -2308827.86143  24048086.7034                   24048093.3874
  -4580484.729 8  -3511056.036 7  21154503.156
 11  8  5 23  3  0.0000000  0  8G09G10G04G02G28G27G20G17
  -8868555.18947  -6658373.32444  22523486.3134                   22523489.4844
  -1845006.60546  -1390823.73743  24243966.9614                   24243973.4924
 -22903520.81448 -17791238.83946  20111410.3984                   20111412.6374
  -8648319.53247  -6690033.75544  23021642.9304                   23021645.6524
  -1842060.75348  -1429061.28046  21462655.4224                   21462657.0784
 -15540072.10247 -11560342.08345  22590910.6024                   22590913.5354
  -3023324.92646  -2297402.49243  24050876.8754                   24050883.8094
  -4554529.486 8  -3490831.206 7  21159442.664
 11  8  5 23  3 30.0000000  0  8G09G10G04G02G28G27G20G17
  -8922243.34247  -6700208.23944  22513269.9454                   22513273.2894
  -1937725.39146  -1463072.14343  24226323.6174                   24226330.3014
 -22940955.67548 -17820408.84646  20104286.8834                   20104288.9734
  -8738660.09347  -6760428.88245  23004451.2424                   23004454.6804
  -1807738.95648  -1402317.08046  21469186.3524                   21469187.9804
 -15571269.46847 -11584651.67945  22584973.4144                   22584976.9224
  -3008162.85446  -2285588.00143  24053762.1414                   24053769.1564
  -4528460.467 8  -3470517.710 7  21164403.273
 11  8  5 23  4  0.0000000  0  8G09G10G04G02G28G27G20G17
  -8975351.85347  -6741591.49344  22503162.7584                   22503167.1994
  -2030518.46146  -1535378.46843  24208664.7974                   24208671.8754
 -22977826.64348 -17849139.45846  20097270.4534                   20097272.8244
  -8828774.39147  -6830647.68544  22987302.9774                   22987306.2194
  -1773059.06848  -1375293.85046  21475785.9224                   21475788.0394
 -15601992.93147 -11608592.00845  22579127.1884                   22579130.6844
  -2992501.86946  -2273384.74843  24056742.7344                   24056748.8984
  -4502279.065 8  -3450116.656 7  21169385.805
 11  8  5 23  4 30.0000000  0  8G09G10G04G02G28G27G20G17
  -9027877.41347  -6782520.52244  22493167.7974                   22493171.6994
  -2123381.40446  -1607739.22443  24190994.0394                   24191000.9104
 -23014131.50448 -17877428.95546  20090361.6334                   20090364.0124
  -8918659.30047  -6900687.77245  22970198.6884                   22970201.2734
  -1738018.82448  -1347989.82245  21482454.0394                   21482455.3404
 -15632240.30347 -11632161.34845  22573370.6254                   22573374.9964
  -2976340.03346  -2260791.22643  24059818.1094                   24059824.1954
  -4475984.287 8  -3429627.273 7  21174389.367
 11  8  5 23  5  0.0000000  0  8G09G10G04G02G28G27G20G17
  -9079819.59047  -6822994.96644  22483283.5944                   22483287.4614
  -2216312.63246  -1680153.18043  24173309.0554                   24173316.9104
 -23049870.86648 -17905277.79446  20083560.9144                   20083563.0824
  -9008314.61547  -6970548.92245  22953137.2894                   22953140.6454
  -1702618.87048  -1320405.49646  21489189.8754                   21489191.9224
 -15662012.13747 -11655360.13545  22567705.5784                   22567710.0394
  -2959678.52146  -2247808.36643  24062988.2344                   24062995.0314
  -4449578.284 8  -3409051.226 7  21179414.305
 11  8  5 23  5 30.0000000  0  8G09G10G04G02G28G27G20G17
  -9131176.22147  -6863013.13644  22473510.9144                   22473514.4224
  -2309308.47346  -1752617.46943  24155614.0394                   24155619.8524
 -23085043.65848 -17932685.14746  20076867.5864                   20076870.0824
  -9097737.74847  -7040229.18745  22936120.4304                   22936123.6564
  -1666857.90148  -1292539.86145  21495995.8594                   21495997.0704
 -15691307.02247 -11678187.29545  22562130.8984                   22562134.9414
  -2942516.62446  -2234435.59743  24066254.2894                   24066261.5944
  -4423061.395 8  -3388388.775 7  21184460.680
 11  8  5 23  6  0.0000000  0  8G09G10G04G02G28G27G20G17
  -9181945.60247  -6902573.70345  22463849.6644                   22463853.4774
  -2402366.58846  -1825130.27843  24137904.8984                   24137912.0084
 -23119649.05448 -17959650.38346  20070282.5394                   20070284.8014
  -9186927.42647  -7109727.52545  22919148.9924                   22919151.2384
  -1630735.81048  -1264392.82345  21502869.2734                   21502870.8094
 -15720124.31047 -11700642.28745  22556647.2034                   22556651.5354
  -2924854.25746  -2220672.87043  24069615.7894                   24069622.8954
  -4396434.152 8  -3367640.296 7  21189527.219
 11  8  5 23  6 30.0000000  0  8G09G10G04G02G28G27G20G17
  -9232127.27347  -6941676.28845  22454300.5704                   22454304.3754
  -2495485.36846  -1897690.40143  24120185.3204                   24120191.4344
 -23153688.03548 -17986174.24446  20063804.9384                   20063806.9734
  -9275883.31647  -7179043.69745  22902221.0784                   22902223.1764
  -1594252.76148  -1235964.50946  21509812.0314                   21509813.6334
 -15748464.67847 -11722725.65645  22551254.2114                   22551258.2584
  -2906692.33846  -2206520.86643  24073072.4304                   24073079.0984
  -4369698.297 8  -3346807.208 7  21194615.016
 11  8  5 23  7  0.0000000  0  8G09G10G04G02G28G27G20G17
  -9281716.46747  -6980317.21645  22444863.9774                   22444868.0204
  -2588658.77146  -1970293.07643  24102454.5084                   24102461.0824
 -23187156.74648 -18012253.74146  20057435.8284                   20057438.1414
  -9364600.27747  -7248173.70045  22885338.0864                   22885340.3134
  -1557405.19748  -1207252.16546  21516823.7114                   21516825.7304
 -15776324.18947 -11744434.34345  22545953.2344                   22545956.5744
  -2888027.87246  -2191977.25943  24076622.8444                   24076630.3484
  -4342851.370 8  -3325887.527 7  21199723.688
 11  8  5 23  7 30.0000000  0  8G09G10G04G02G28G27G20G17
  -9330714.64647  -7018497.59645  22435540.0314                   22435544.1954
  -2681887.10746  -2042938.47043  24084713.2194                   24084720.9844
 -23220057.83148 -18037890.93746  20051174.9534                   20051177.2234
  -9453080.05247  -7317118.86945  22868500.8284                   22868503.3444
  -1520196.05648  -1178258.05545  21523904.2344                   21523905.7544
 -15803705.17747 -11765770.14845  22540742.7894                   22540747.1804
  -2868863.83246  -2177044.39843  24080270.5864                   24080277.4734
  -4315897.581 8  -3304884.617 7  21204852.977
 11  8  5 23  8  0.0000000  0  8G09G10G04G02G28G27G20G17
  -9379117.31847  -7056213.93145  22426329.1644                   22426332.9344
  -2775164.87046  -2115622.36443  24066964.1724                   24066970.8134
 -23252388.00748 -18063083.25346  20045023.2034                   20045025.1954
  -9541318.20047  -7385875.76245  22851709.8284                   22851712.2544
  -1482621.79048  -1148979.45145  21531054.2274                   21531056.6414
 -15830604.22547 -11786730.41845  22535624.1094                   22535628.5084
  -2849197.50646  -2161720.08143  24084013.2194                   24084020.3134
  -4288834.604 7  -3283796.610 7  21210002.570
 11  8  5 23  8 30.0000000  0  8G09G10G04G02G28G27G20G17
  -9426925.97247  -7093467.39945  22417231.3524                   22417235.6374
  -2868491.70946  -2188344.54143  24049203.2894                   24049210.7074
 -23284149.77748 -18087832.65546  20038978.9924                   20038981.1684
  -9629315.69547  -7454445.13745  22834964.7034                   22834966.8134
  -1444684.82348  -1119418.22046  21538273.6884                   21538275.7504
 -15857023.60147 -11807316.89445  22530596.2504                   22530600.1604
  -2829031.37046  -2146006.42443  24087851.0164                   24087858.2154
  -4261665.713 8  -3262626.055 7  21215173.102
 11  8  5 23  9  0.0000000  0  8G09G10G04G02G28G27G20G17
  -9474136.36947  -7130254.70345  22408248.0314                   22408251.7734
  -2961862.28346  -2261100.73943  24031435.1564                   24031443.2114
 -23315339.87748 -18112136.59846  20033044.0084                   20033045.6804
  -9717068.72347  -7522824.03045  22818265.3914                   22818267.9734
  -1406381.88148  -1089571.82145  21545562.4924                   21545564.3244
 -15882960.00747 -11827527.04445  22525660.7194                   22525664.6024
  -2808363.08346  -2129901.46343  24091782.6334                   24091790.8984
  -4234388.881 7  -3241371.400 7  21220363.570
 11  8  5 23  9 30.0000000  0  8G09G10G04G02G28G27G20G17
  -9520748.71647  -7166575.98745  22399377.4844                   22399381.1564
  -3055275.70346  -2333890.33343  24013660.7974                   24013666.9384
 -23345960.03848 -18135996.43646  20027216.7894                   20027219.0394
  -9804577.61847  -7591012.68045  22801613.0394                   22801615.5704
  -1367714.47748  -1059441.42645  21552921.0864                   21552923.0004
 -15908414.87147 -11847361.94245  22520816.7194                   22520820.6884
  -2787194.42146  -2113406.65243  24095811.5784                   24095819.7854
  -4207006.506 7  -3220034.525 7  21225574.328
 11  8  5 23 10  0.0000000  0  8G09G10G04G02G28G27G20G17
  -9566760.12447  -7202428.99445  22390621.5784                   22390625.9224
  -3148727.26446  -2406709.64143  23995877.5784                   23995883.7034
 -23376007.93548 -18159410.34846  20021499.0164                   20021501.0744
  -9891838.63047  -7659008.16045  22785007.8674                   22785010.2774
  -1328680.17248  -1029025.14846  21560348.6884                   21560351.0664
 -15933385.76547 -11866819.70745  22516064.9454                   22516068.6174
  -2765523.77546  -2096520.66543  24099936.4304                   24099943.6914
  -4179518.113 8  -3198615.030 7  21230805.438
 11  8  5 23 10 30.0000000  0  8G09G10G04G02G28G27G20G17
  -9612170.72647  -7237813.85944  22381980.0164                   22381984.5044
  -3242215.98746  -2479557.96843  23978086.2504                   23978092.0744
 -23405485.02148 -18182379.47646  20015889.5944                   20015891.7424
  -9978852.22847  -7726810.87245  22768449.3054                   22768451.5234
  -1289280.61248   -998324.24746  21567845.9774                   21567848.1954
 -15957874.00547 -11885901.40345  22511405.2894                   22511408.3364
  -2743352.79946  -2079244.78243  24104155.5004                   24104163.2384
  -4151925.600 8  -3177114.433 7  21236055.992
 11  8  5 23 11  0.0000000  0  8G09G10G04G02G28G27G20G17
  -9656978.85447  -7272729.29844  22373453.9384                   22373457.5984
  -3335738.39346  -2552432.43543  23960290.4534                   23960296.1054
 -23434390.45248 -18204903.16346  20010388.8754                   20010391.1764
 -10065616.03247  -7794418.93045  22751938.7894                   22751941.3054
  -1249514.57148   -967337.78446  21575413.9064                   21575415.4264
 -15981878.72947 -11904606.32345  22506836.8134                   22506839.9774
  -2720681.17746  -2061578.79243  24108469.9534                   24108477.5234
  -4124229.402 8  -3155533.038 7  21241326.375
 11  8  5 23 11 30.0000000  0  8G09G10G04G02G28G27G20G17
  -9701182.13247  -7307173.43344  22365041.9064                   22365046.1564
  -3429290.56546  -2625330.09443  23942487.1414                   23942493.1954
 -23462722.98348 -18226980.42946  20004997.6564                   20004999.7814
 -10152127.90647  -7861830.68745  22735476.2344                   22735478.0704
  -1209380.86848   -936064.83346  21583050.6804                   21583052.7074
 -16005398.48747 -11922933.34545  22502361.1174                   22502364.6024
  -2697508.02546  -2043522.00343  24112880.0314                   24112887.6294
  -4096429.148 8  -3133870.575 7  21246616.820
 11  8  5 23 12  0.0000000  0  8G09G10G04G02G28G27G20G17
  -9744780.12447  -7341145.92844  22356745.8364                   22356749.8594
  -3522870.68746  -2698249.61143  23924680.0004                   23924685.9304
 -23490483.71548 -18248612.14846  19999714.6644                   19999716.8754
 -10238387.54447  -7929045.91345  22719061.3054                   22719063.4654
  -1168880.30748   -904506.01045  21590758.0004                   21590759.8524
 -16028434.01347 -11940883.04145  22497977.7734                   22497980.3834
  -2673834.84446  -2025075.55943  24117384.8914                   24117392.7734
  -4068526.451 8  -3112128.306 7  21251926.289
 11  8  5 23 12 30.0000000  0  8G09G10G04G02G28G27G20G17
  -9787769.36547  -7374644.08145  22348565.1484                   22348569.3834
  -3616473.88346  -2771187.00743  23906866.8444                   23906873.8324
 -23517669.93348 -18269796.19246  19994541.4844                   19994543.5204
 -10324390.79147  -7996061.34445  22702695.5004                   22702697.5084
  -1128010.24948   -872659.26545  21598535.1414                   21598537.1374
 -16050982.49147 -11958453.21645  22493686.7974                   22493689.8484
  -2649659.38046  -2006237.74043  24121986.1254                   24121992.9964
  -4040519.779 8  -3090305.012 7  21257255.859
 11  8  5 23 13  0.0000000  0  8G09G10G04G02G28G27G20G17
  -9830151.67347  -7407669.33444  22340499.9844                   22340504.5084
  -3710100.22946  -2844142.55543  23889051.1884                   23889057.4144
 -23544284.51448 -18290534.80846  19989476.9144                   19989478.9924
 -10410139.44747  -8062878.39445  22686378.0314                   22686379.7704
  -1086773.35148   -840526.67745  21606382.3834                   21606384.3404
 -16073046.53047 -11975645.92645  22489487.9064                   22489491.5434
  -2624985.01346  -1987011.09643  24126680.8914                   24126688.5434
  -4012412.626 8  -3068403.429 7  21262604.844
 11  8  5 23 13 30.0000000  0  8G09G10G04G02G28G27G20G17
  -9871922.37547  -7440218.00644  22332551.5554                   22332555.5204
  -3803743.45646  -2917111.10743  23871230.5394                   23871237.8284
 -23570323.79948 -18310825.14446  19984521.6724                   19984523.8014
 -10495628.43347  -8129493.12645  22670109.6414                   22670111.7854
  -1045166.07848   -808105.49045  21614300.0704                   21614302.1334
 -16094622.44947 -11992458.28445  22485382.7424                   22485385.5944
  -2599808.58946  -1967393.31343  24131472.0394                   24131479.5594
  -3984202.436 8  -3046421.553 7  21267973.336
 11  8  5 23 14  0.0000000  0  8G09G10G04G02G28G27G20G17
  -9913082.63547  -7472291.00544  22324719.4064                   22324722.7894
  -3897402.93546  -2990092.38543  23853408.3054                   23853414.3714
 -23595790.10048 -18330668.99246  19979675.8754                   19979677.5634
 -10580859.03547  -8195906.48545  22653891.0634                   22653893.2234
  -1003190.24748   -775397.11445  21622287.9844                   21622290.3324
 -16115712.07947 -12008891.72945  22481368.5634                   22481372.1954
  -2574132.57346  -1947386.18343  24136357.4844                   24136365.5354
  -3955891.896 8  -3024361.481 7  21273360.391
 11  8  5 23 14 30.0000000  0  8G09G10G04G02G28G27G20G17
  -9953630.45347  -7503886.76044  22317003.5234                   22317006.7344
  -3991075.03546  -3063083.47243  23835583.2814                   23835589.3914
 -23620682.68148 -18350065.79046  19974938.9694                   19974940.8134
 -10665828.60648  -8262116.49245  22637721.8984                   22637723.8594
   -960844.66748   -742400.60645  21630346.0864                   21630348.2304
 -16136314.56447 -12024945.61245  22477448.6024                   22477452.1844
  -2547956.77746  -1926989.64243  24141338.6954                   24141347.1884
  -3927481.004 8  -3002223.177 7  21278766.781
 11  8  5 23 15  0.0000000  0  8G09G10G04G02G28G27G20G17
  -9993564.70847  -7535004.42744  22309403.9224                   22309407.7344
  -4084756.38246  -3136081.77943  23817755.2664                   23817761.7274
 -23645001.34348 -18369015.37146  19970311.3284                   19970313.1994
 -10750535.63647  -8328121.90945  22621602.6564                   22621604.6844
   -918129.02348   -709115.74045  21638474.5394                   21638476.5234
 -16156429.48747 -12040619.58445  22473620.6564                   22473623.4104
  -2521281.37446  -1906203.78543  24146415.4224                   24146423.7114
  -3898970.355 8  -2980007.156 7  21284192.313
 11  8  5 23 15 30.0000000  0  8G09G10G04G02G28G27G20G17
 -10032883.69147  -7565642.62844  22301922.0234                   22301925.1054
  -4178444.14346  -3209085.00643  23799926.7344                   23799933.9924
 -23668745.39648 -18387517.21246  19965792.7344                   19965794.6764
 -10834978.52147  -8393921.49845  22605533.1724                   22605535.2424
   -875042.69948   -675542.04145  21646673.8284                   21646675.7584
 -16176056.08847 -12055913.07745  22469886.0784                   22469889.1564
  -2494105.81146  -1885028.17043  24151586.5234                   24151595.2664
  -3870359.979 8  -2957713.422 7  21289636.914
 11  8  5 23 16  0.0000000  0  8G09G10G04G02G28G27G20G17
 -10071585.86447  -7595800.19344  22294557.2424                   22294560.2544
  -4272134.78946  -3282090.57043  23782097.5784                   23782105.3364
 -23691914.49748 -18405571.02946  19961383.8204                   19961386.0124
 -10919155.24247  -8459513.70245  22589515.2974                   22589516.9774
   -831585.27548   -641679.16345  21654943.6094                   21654945.3054
 -16195193.68547 -12070825.53745  22466244.5164                   22466247.0004
  -2466430.25146  -1863462.99743  24156854.1414                   24156861.4924
  -3841650.025 8  -2935342.088 7  21295099.820
 11  8  5 23 16 30.0000000  0  8G09G10G04G02G28G27G20G17
 -10109671.93947  -7625477.63444  22287309.6174                   22287312.8874
  -4365827.11546  -3355097.40543  23764269.0234                   23764275.6954
 -23714510.43648 -18423178.23246  19957083.8134                   19957086.1214
 -11003066.28547  -8524898.87745  22573547.4614                   22573549.6024
   -787758.08448   -607528.16545  21663283.3054                   21663285.6764
 -16213843.79947 -12085358.16945  22462695.2664                   22462698.4104
  -2438256.90146  -1841509.91343  24162215.4924                   24162222.8204
  -3812842.754 8  -2912894.925 7  21300582.219
 11  8  5 23 17  0.0000000  0  8G09G10G04G02G28G27G20G17
 -10147138.87147  -7654672.64544  22280179.7974                   22280183.4264
  -4459516.56446  -3428101.93343  23746439.9614                   23746447.1484
 -23736531.41448 -18440337.43046  19952893.3364                   19952895.4144
 -11086708.25747  -8590074.39245  22557631.1644                   22557633.2234
   -743558.97948   -573087.36845  21671694.4144                   21671696.5944
 -16232004.27747 -12099509.27845  22459239.8364                   22459242.6414
  -2409584.12846  -1819167.57843  24167671.3674                   24167679.7274
  -3783937.194 8  -2890371.174 7  21306082.766
 11  8  5 23 17 30.0000000  0  8G09G10G04G02G28G27G20G17
 -10183985.21747  -7683384.04845  22273168.0864                   22273172.1524
  -4553199.35346  -3501101.38943  23728612.6954                   23728619.7424
 -23757976.88648 -18457048.18946  19948812.5474                   19948814.2934
 -11170079.22947  -8655038.75145  22541765.9844                   22541768.1884
   -698987.42748   -538356.37345  21680176.0164                   21680178.4384
 -16249674.51047 -12113278.37745  22455877.2584                   22455880.7274
  -2380412.16446  -1796436.29943  24173222.4064                   24173230.9964
  -3754933.200 8  -2867770.715 7  21311601.898
 11  8  5 23 18  0.0000000  0  8G09G10G04G02G28G27G20G17
 -10220212.00647  -7711612.66845  22266274.8594                   22266278.1954
  -4646874.50946  -3574094.83444  23710787.6804                   23710794.1684
 -23778848.86148 -18473312.07446  19944840.5314                   19944842.7424
 -11253179.92547  -8719792.46845  22525952.0164                   22525954.4804
   -654045.04848   -503336.41345  21688728.4304                   21688730.6604
 -16266856.10347 -12126666.73545  22452606.9844                   22452611.1254
  -2350743.51046  -1773317.93443  24178868.8754                   24178876.7034
  -3725833.255 8  -2845095.485 7  21317139.516
 11  8  5 23 18 30.0000000  0  8G09G10G04G02G28G27G20G17
 -10255816.46447  -7739356.35844  22259499.3134                   22259502.5664
  -4740537.34846  -3647078.73243  23692964.1484                   23692969.9774
 -23799145.49148 -18489127.66046  19940978.2814                   19940980.3674
 -11336006.83947  -8784332.86145  22510190.4384                   22510193.0084
   -608729.54648   -468025.71645  21697351.4534                   21697354.1524
 -16283547.01747 -12139672.75045  22449431.5634                   22449435.0124
  -2320576.26346  -1749811.03943  24184608.5314                   24184617.1054
  -3696635.978 8  -2822344.425 7  21322695.531
 11  8  5 23 19  0.0000000  0  8G09G10G04G02G28G27G20G17
 -10290799.01147  -7766615.43745  22252842.8674                   22252845.6374
  -4834186.24046  -3720051.72543  23675142.8364                   23675149.4064
 -23818868.37048 -18504496.16446  19937225.3284                   19937226.7774
 -11418559.89347  -8848659.86445  22494481.8204                   22494483.3364
   -563042.37948   -432425.41945  21706046.0004                   21706047.8754
 -16299748.71947 -12152297.54545  22446348.7114                   22446351.8754
  -2289912.60146  -1725917.24643  24190443.7584                   24190451.8674
  -3667343.315 8  -2799519.047 7  21328269.594
 11  8  5 23 19 30.0000000  0  8G09G10G04G02G28G27G20G17
 -10325157.83947  -7793388.48844  22246303.8444                   22246307.6414
  -4927817.16347  -3793010.75043  23657325.8054                   23657331.7814
 -23838016.49048 -18519416.81446  19933581.6024                   19933583.6094
 -11500836.91947  -8912771.77045  22478824.7114                   22478826.9064
   -516982.31448   -396534.55745  21714810.7504                   21714812.5354
 -16315459.80847 -12164540.05045  22443358.9774                   22443362.3164
  -2258751.71546  -1701636.08143  24196374.2194                   24196382.3244
  -3637954.779 8  -2776618.951 7  21333862.305
 11  8  5 23 20  0.0000000  0  8G09G10G04G02G28G27G20G17
 -10358890.73847  -7819673.81645  22239884.9924                   22239888.9614
  -5021426.13447  -3865952.65544  23639511.8594                   23639518.0664
 -23856589.03848 -18533888.96146  19930047.5084                   19930049.2734
 -11582835.35547  -8976666.60745  22463220.7344                   22463222.7974
   -470548.45648   -360352.42745  21723647.1174                   21723649.0314
 -16330679.24547 -12176399.44145  22440462.9774                   22440466.4184
  -2227093.39346  -1676967.20643  24202398.1484                   24202406.3594
  -3608469.985 8  -2753643.854 7  21339473.313
 11  8  5 23 20 30.0000000  0  8G09G10G04G02G28G27G20G17
 -10391999.21647  -7845472.59645  22233583.9144                   22233588.7234
  -5115012.51246  -3938876.97043  23621703.1644                   23621709.2114
 -23874588.57948 -18547914.60946  19926622.1884                   19926624.2464
 -11664556.45547  -9040345.33145  22447670.0474                   22447672.0634
   -423742.67348   -323880.47145  21732553.3204                   21732555.7854
 -16345409.22247 -12187877.42745  22437659.9224                   22437663.0004
  -2194940.69946  -1651913.14743  24208516.9694                   24208524.5394
  -3578891.745 8  -2730595.933 7  21345101.766
 11  8  5 23 21  0.0000000  0  8G09G10G04G02G28G27G20G17
 -10424480.05247  -7870782.31244  22227402.9384                   22227407.4184
  -5208570.55946  -4011779.22943  23603899.5164                   23603904.9924
 -23892012.43848 -18561491.69146  19923306.5164                   19923308.4924
 -11745995.76147  -9103804.46845  22432172.1174                   22432174.8204
   -376562.20348   -287116.57645  21741531.8674                   21741534.1334
 -16359647.10847 -12198971.97345  22434950.6804                   22434953.9884
  -2162291.34646  -1626472.10243  24214729.9454                   24214737.6024
  -3549217.690 8  -2707473.342 7  21350748.500
 11  8  5 23 21 30.0000000  0  8G09G10G04G02G28G27G20G17
 -10456332.85747  -7895602.67745  22221341.7114                   22221345.7624
  -5302097.76146  -4084657.42643  23586101.8054                   23586108.0204
 -23908862.03748 -18574621.27646  19920100.1884                   19920102.2704
 -11827153.00547  -9167043.80745  22416728.4614                   22416730.4144
   -329007.71748   -250061.23145  21750581.2424                   21750583.4734
 -16373393.65147 -12209683.63445  22432334.2424                   22432337.9414
  -2129146.83746  -1600645.18943  24221036.7974                   24221044.2934
  -3519449.285 8  -2684277.210 7  21356413.336
 11  8  5 23 22  0.0000000  0  8G09G10G04G02G28G27G20G17
 -10487558.85647  -7919934.60345  22215399.9924                   22215403.8444
  -5395593.01846  -4157510.78843  23568310.2274                   23568315.3984
 -23925138.93148 -18587304.58546  19917002.6094                   19917005.0234
 -11908028.64048  -9230063.73645  22401338.2194                   22401340.2304
   -281081.19448   -212715.98045  21759701.7504                   21759703.7274
 -16386650.30247 -12220013.56545  22429811.8984                   22429815.9534
  -2095508.95746  -1574433.83143  24227439.0634                   24227446.2814
  -3489588.523 8  -2661009.143 7  21362095.219
 11  8  5 23 22 30.0000000  0  8G09G10G04G02G28G27G20G17
 -10518154.24947  -7943775.15445  22209577.6724                   22209582.1294
  -5489050.44446  -4230334.64243  23550525.0394                   23550531.1914
 -23940840.69448 -18599539.73146  19914014.7974                   19914016.8674
 -11988618.53347  -9292860.97845  22386002.3524                   22386004.5864
   -232779.40748   -175078.33845  21768893.0084                   21768895.9304
 -16399414.51647 -12229959.77045  22427382.8984                   22427387.1684
  -2061376.18646  -1547836.86443  24233932.6094                   24233940.6644
  -3459633.246 8  -2637667.398 7  21367795.813
 11  8  5 23 23  0.0000000  0  8G09G10G04G02G28G27G20G17
 -10548121.13447  -7967125.98245  22203874.9144                   22203878.7774
  -5582469.85246  -4303128.87544  23532748.3984                   23532753.7774
 -23955970.15148 -18611328.92746  19911136.2114                   19911138.1884
 -12068923.62047  -9355436.31345  22370720.9064                   22370723.2814
   -184104.82648   -137150.20345  21778155.8754                   21778157.9024
 -16411688.68347 -12239524.11445  22425047.7584                   22425051.2344
  -2026751.44446  -1520856.61143  24240521.9304                   24240530.6724
  -3429586.346 8  -2614254.235 7  21373513.547
 11  8  5 23 23 30.0000000  0  8G09G10G04G02G28G27G20G17
 -10577457.29247  -7989985.30844  22198292.8594                   22198296.2544
  -5675846.51246  -4375889.78843  23514979.3284                   23514985.1214
 -23970526.50748 -18622671.54646  19908365.8134                   19908367.7664
 -12148941.51948  -9417787.84945  22355493.5864                   22355496.1724
   -135056.19548    -98930.59745  21787489.4924                   21787492.1134
 -16423471.69947 -12248705.74545  22422805.6804                   22422808.6524
  -1991634.19946  -1493492.57842  24247205.1094                   24247212.8014
  -3399447.048 8  -2590769.064 7  21379249.273
 11  8  5 23 24  0.0000000  0  8G09G10G04G02G28G27G20G17
 -10606161.40847  -8012352.13745  22192830.6804                   22192833.7114
  -5769176.56246  -4448614.40843  23497218.2894                   23497223.9964
 -23984509.19748 -18633567.16146  19905704.8754                   19905707.3754
 -12228670.20848  -9479914.02045  22340322.0634                   22340324.0554
    -85632.77648    -60418.95545  21796894.5004                   21796897.1214
 -16434762.85848 -12257504.10345  22420656.7974                   22420659.9304
  -1956024.37246  -1465744.72343  24253980.7734                   24253988.7274
  -3369215.018 8  -2567211.641 7  21385002.250
 11  8  5 23 24 30.0000000  0  8G09G10G04G02G28G27G20G17
 -10634234.30647  -8034227.10845  22187488.2814                   22187491.2774
  -5862458.42747  -4521301.47443  23479468.1334                   23479473.0234
 -23997919.92848 -18644017.09246  19903152.9144                   19903155.1094
 -12308109.78648  -9541814.91745  22325204.8914                   22325206.9844
    -35835.92348    -21616.32845  21806370.7344                   21806373.0704
 -16445563.62247 -12265920.35045  22418601.5394                   22418605.0314
  -1919923.93546  -1437614.61642  24260850.4454                   24260858.5824
  -3338892.387 8  -2543583.646 7  21390772.438
 11  8  5 23 25  0.0000000  0  8G09G10G04G02G28G27G20G17
 -10661673.81547  -8055608.53745  22182266.7114                   22182269.8634
  -5955687.92446  -4593947.75344  23461726.9924                   23461732.0474
 -24010758.09848 -18654020.87846  19900710.0784                   19900712.2624
 -12387257.63048  -9603488.48845  22310143.6174                   22310145.5664
     14335.67148     17478.32445  21815918.5864                   21815920.6134
 -16455872.75748 -12273953.49645  22416639.4614                   22416643.2584
  -1883332.37346  -1409101.81343  24267813.9224                   24267821.7814
  -3308477.996 8  -2519884.156 7  21396559.945
 11  8  5 23 25 30.0000000  0  8G09G10G04G02G28G27G20G17
 -10688479.44147  -8076496.03745  22177165.6954                   22177169.2854
  -6048862.12147  -4666550.90543  23443996.7424                   23444002.3984
 -24023023.75448 -18663578.55646  19898375.8054                   19898378.3524
 -12466112.42148  -9664933.69445  22295137.8914                   22295140.1804
     64881.93747     56864.89445  21825537.0164                   21825539.2934
 -16465690.40148 -12281603.66845  22414771.7584                   22414775.3404
  -1846250.51046  -1380206.94843  24274870.1954                   24274878.9184
  -3277972.178 8  -2496113.410 7  21402365.063
 11  8  5 23 26  0.0000000  0  8G09G10G04G02G28G27G20G17
 -10714651.69947  -8096889.99445  22172185.4844                   22172189.1094
  -6141978.49846  -4739109.08144  23426277.3134                   23426282.8364
 -24034718.37248 -18672691.27746  19896150.4454                   19896152.8014
 -12544673.85248  -9726150.30645  22280188.2974                   22280190.8014
    115802.27448     96542.96545  21835226.6884                   21835229.3444
 -16475017.67147 -12288871.70845  22412996.7504                   22412999.6524
  -1808680.07646  -1350931.38443  24282019.5474                   24282028.4654
  -3247376.345 8  -2472272.507 7  21408187.109
 11  8  5 23 26 30.0000000  0  8G09G10G04G02G28G27G20G17
 -10740188.53047  -8116788.81645  22167326.3444                   22167329.5314
  -6235032.45746  -4811618.55544  23408569.6884                   23408575.2814
 -24045840.90148 -18681358.21446  19894033.9454                   19894036.2544
 -12622939.20748  -9787136.20745  22265294.5944                   22265296.7624
    167097.64247    136513.25545  21844987.7894                   21844989.8134
 -16483853.18647 -12295756.55245  22411315.3674                   22411318.7504
  -1770620.49746  -1321274.70543  24289262.7424                   24289270.0354
  -3216689.471 8  -2448360.668 7  21414026.672
 11  8  5 23 27  0.0000000  0  8G09G10G04G02G28G27G20G17
 -10765091.09847  -8136193.40945  22162587.3364                   22162590.7544
  -6328022.59747  -4884078.34644  23390873.9844                   23390880.1214
 -24056393.48048 -18689581.02346  19892026.2034                   19892028.4804
 -12700908.86848  -9847891.70545  22250457.2034                   22250459.7154
    218766.76347    176774.78945  21854820.4384                   21854822.8874
 -16492198.64147 -12302259.53545  22409727.5474                   22409730.2384
  -1732073.85246  -1291238.48143  24296598.2504                   24296605.8094
  -3185913.510 8  -2424379.429 7  21419883.727
 11  8  5 23 27 30.0000000  0  8G09G10G04G02G28G27G20G17
 -10789357.28147  -8155102.11345  22157969.6334                   22157973.6844
  -6420944.04147  -4956484.59544  23373191.4534                   23373197.5554
 -24066374.98948 -18697358.84846  19890126.4774                   19890128.6484
 -12778579.95748  -9908414.55145  22235677.2894                   22235679.3524
    270811.10647    217328.70645  21864724.1024                   21864727.0044
 -16500052.48147 -12308379.41745  22408232.5004                   22408236.1454
  -1693039.55346  -1260822.21843  24304026.1724                   24304033.7504
  -3155047.269 8  -2400327.833 7  21425756.750
 11  8  5 23 28  0.0000000  0  8G09G10G04G02G28G27G20G17
 -10812987.31147  -8173515.10845  22153472.6804                   22153477.6604
  -6513794.50347  -5028835.53644  23355522.4224                   23355528.4884
 -24075786.37048 -18704692.39946  19888335.8134                   19888337.8794
 -12855951.89348  -9968704.28145  22220954.1804                   22220955.9614
    323229.92647    258174.43345  21874699.4064                   21874701.9614
 -16507415.70547 -12314117.00245  22406831.5474                   22406834.1214
  -1653518.93646  -1230026.99443  24311547.3524                   24311555.0704
  -3124091.530 8  -2376206.498 7  21431647.766
 11  8  5 23 28 30.0000000  0  8G09G10G04G02G28G27G20G17
 -10835981.10147  -8191432.35545  22149097.0164                   22149102.0904
  -6606570.94246  -5101128.81544  23337867.9224                   23337873.8634
 -24084628.75048 -18711582.57246  19886652.9614                   19886655.2424
 -12933023.56248 -10028760.04445  22206287.3284                   22206289.2584
    376022.80647    299311.63945  21884745.3284                   21884748.0084
 -16514288.90447 -12319472.73245  22405523.6564                   22405527.1294
  -1613513.20546  -1198853.77343  24319159.1724                   24319167.0204
  -3093047.002 8  -2352015.954 7  21437555.266
 11  8  5 23 29  0.0000000  0  8G09G10G04G02G28G27G20G17
 -10858336.24347  -8208851.95745  22144843.2814                   22144847.9614
  -6699268.66447  -5173360.78844  23320227.7584                   23320233.2624
 -24092900.75048 -18718028.28146  19885078.9534                   19885081.3164
 -13009792.22248 -10088579.69445  22191678.8834                   22191680.4144
    429191.29647    340741.54645  21894863.0784                   21894865.3954
 -16520670.52947 -12324445.42345  22404309.3834                   22404312.3444
  -1573021.62746  -1167301.98743  24326865.4844                   24326873.1374
  -3061912.483 8  -2327755.318 7  21443479.883
 11  8  5 23 29 30.0000000  0  8G09G10G04G02G28G27G20G17
 -10880054.34247  -8225775.16645  22140710.1564                   22140715.0084
  -6791886.70446  -5245530.61844  23302602.9924                   23302608.9924
 -24100605.19048 -18724031.73346  19883612.7974                   19883614.9384
 -13086258.69648 -10148163.86845  22177127.9064                   22177129.7114
    482733.52647    382462.65645  21905051.5864                   21905054.8284
 -16526562.85247 -12329036.83745  22403187.6644                   22403191.5744
  -1532047.20246  -1135373.90143  24334662.4144                   24334670.3914
  -3030690.350 8  -2303426.396 7  21449421.070
 11  8  5 23 30  0.0000000  0  8G09G10G04G02G28G27G20G17
 -10901134.42747  -8242201.21345  22136699.1174                   22136703.1604
  -6884420.50946  -5317634.89944  23284994.2424                   23285000.3484
 -24107741.45648 -18729592.44046  19882254.7974                   19882256.8874
 -13162420.60148 -10207510.72245  22162634.4224                   22162636.3134
    536650.25147    424475.59345  21915312.3054                   21915314.5704
 -16531965.10248 -12333246.37245  22402159.7504                   22402163.1374
  -1490589.69746  -1103069.47543  24342551.5164                   24342559.8094
  -2999379.803 8  -2279028.597 7  21455379.594
 11  8  5 23 30 30.0000000  0  8G09G10G04G02G28G27G20G17
 -10921576.50947  -8258130.09745  22132809.2274                   22132813.2664
  -6976867.24446  -5389671.28044  23267402.6254                   23267407.9534
 -24114310.47948 -18734711.14946  19881004.5864                   19881007.1484
 -13238277.13048 -10266619.61945  22148199.0944                   22148200.9534
    590941.01447    466779.99245  21925643.3444                   21925645.9064
 -16536877.98847 -12337074.61345  22401224.9844                   22401228.2464
  -1448650.21046  -1070389.37943  24350531.5554                   24350540.0164
  -2967981.151 7  -2254562.138 7  21461354.570
 11  8  5 23 31  0.0000000  0  8G09G10G04G02G28G27G20G17
 -10941381.00247  -8273562.18045  22129040.4534                   22129044.5434
  -7069224.80946  -5461638.16644  23249827.1804                   23249833.3484
 -24120313.86548 -18739389.09446  19879862.0394                   19879864.4494
 -13313828.03048 -10325490.35145  22133822.2974                   22133824.1764
    645605.00147    509375.23245  21936045.4774                   21936048.6914
 -16541302.48547 -12340522.27345  22400383.4614                   22400386.8834
  -1406230.53646  -1037335.11143  24358603.7974                   24358613.3794
  -2936495.644 8  -2230028.008 7  21467345.992
 11  8  5 23 31 30.0000000  0  8G09G10G04G02G28G27G20G17
 -10960544.72547  -8288494.94245  22125393.3134                   22125397.2814
  -7161486.98146  -5533530.70144  23232269.6484                   23232277.0354
 -24125749.32848 -18743624.49646  19878827.8284                   19878830.1684
 -13389069.15648 -10384119.72145  22119504.5704                   22119506.2774
    700644.84447    552263.33645  21946519.7194                   21946521.9414
 -16545236.34647 -12343587.63445  22399634.4614                   22399638.1764
  -1363328.97346  -1003905.33343  24366768.9224                   24366777.1334
  -2904921.107 8  -2205424.503 7  21473354.750
 11  8  5 23 32  0.0000000  0  8G09G10G04G02G28G27G20G17
 -10979070.69247  -8302930.76045  22121868.0474                   22121871.5634
  -7253653.91346  -5605349.08244  23214731.6484                   23214736.9264
 -24130620.85348 -18747420.46946  19877901.0634                   19877903.3674
 -13464002.47448 -10442509.21445  22105244.8444                   22105246.7274
    756056.96947    595441.54445  21957064.0784                   21957067.0084
 -16548683.16047 -12346273.46645  22398978.7664                   22398982.3054
  -1319949.58046   -970103.22243  24375023.4534                   24375031.6764
  -2873260.940 8  -2180754.285 7  21479379.383
 11  8  5 23 32 30.0000000  0  8G09G10G04G02G28G27G20G17
 -10996956.73447  -8316867.94145  22118464.2734                   22118467.9454
  -7345719.89246  -5677088.70844  23197211.6954                   23197217.2504
 -24134926.75148 -18750775.68646  19877081.7584                   19877083.7544
 -13538624.64348 -10500656.26145  22091045.1724                   22091046.4414
    811843.34247    638911.39345  21967679.8754                   21967682.9614
 -16551640.91947 -12348578.21745  22398415.3674                   22398419.4344
  -1276091.04446   -935927.69943  24383368.8594                   24383377.6134
  -2841512.914 8  -2156015.610 7  21485420.883
 11  8  5 23 33  0.0000000  0  8G09G10G04G02G28G27G20G17
 -11014203.33447  -8330306.83745  22115182.7664                   22115185.5514
  -7437682.84546  -5748748.11743  23179711.8524                   23179718.1684
 -24138668.94348 -18753691.66346  19876369.3754                   19876371.5474
 -13612935.65748 -10558560.85745  22076904.0164                   22076905.4734
    868003.19147    682672.26445  21978366.8204                   21978369.2664
 -16554111.04547 -12350503.00545  22397946.2034                   22397949.3874
  -1231755.45546   -901380.43643  24391805.8204                   24391814.3524
  -2809678.442 8  -2131209.554 7  21491478.602
 11  8  5 23 33 30.0000000  0  8G09G10G04G02G28G27G20G17
 -11030808.70647  -8343246.10944  22112022.2974                   22112025.4774
  -7529537.95746  -5820323.45544  23162232.1954                   23162238.6484
 -24141846.12048 -18756167.35946  19875764.8754                   19875767.0664
 -13686932.50648 -10616220.62745  22062822.9694                   22062824.3484
    924537.93147    726725.27745  21989124.9304                   21989127.6134
 -16556092.06247 -12352046.65945  22397568.5784                   22397572.0434
  -1186941.97146   -866460.75743  24400332.4384                   24400341.8674
  -2777756.005 8  -2106334.955 7  21497553.242
 11  8  5 23 34  0.0000000  0  8G09G10G04G02G28G27G20G17
 -11046776.14847  -8355688.27545  22108984.2114                   22108987.0634
  -7621285.25547  -5891814.76144  23144773.4304                   23144779.2154
 -24144462.68648 -18758206.21446  19875267.0164                   19875268.7154
 -13760617.33248 -10673637.27145  22048800.9454                   22048802.4064
    981443.75547    771067.44945  21999953.7894                   21999956.5204
 -16557587.85647 -12353212.21945  22397284.2664                   22397287.7774
  -1141655.26546   -831172.33943  24408950.7974                   24408959.5864
  -2745749.173 7  -2081394.595 7  21503644.234
 11  8  5 23 34 30.0000000  0  8G09G10G04G02G28G27G20G17
 -11062102.34947  -8367630.77645  22106068.0164                   22106070.8364
  -7712918.21747  -5963216.97944  23127335.9534                   23127342.0124
 -24146516.16248 -18759806.29246  19874875.9304                   19874878.5274
 -13833985.97448 -10730807.55045  22034839.0164                   22034840.5824
   1038723.92947    815701.31845  22010853.8364                   22010856.8244
 -16558595.66347 -12353997.53345  22397092.2664                   22397095.7074
  -1095893.40946   -795513.64143  24417659.3594                   24417667.6804
  -2713654.896 7  -2056386.095 7  21509751.391
 11  8  5 23 35  0.0000000  0  8G09G10G04G02G28G27G20G17
 -11076789.50647  -8379075.33445  22103272.7584                   22103275.8404
  -7804435.75647  -6034529.24444  23109920.6804                   23109926.4304
 -24148009.52148 -18760969.91346  19874591.8054                   19874593.8674
 -13907039.30448 -10787732.12745  22020937.4844                   22020939.3754
   1096375.95147    860624.92945  22021824.7894                   22021828.3324
 -16559118.14047 -12354404.65645  22396992.3134                   22396997.0864
  -1049659.36246   -759486.97643  24426456.0394                   24426465.5554
  -2681475.691 7  -2031311.438 7  21515875.203
 11  8  5 23 35 30.0000000  0  8G09G10G04G02G28G27G20G17
 -11090835.46447  -8390020.24645  22100599.8134                   22100603.3594
  -7895832.68447  -6105747.50444  23092528.3984                   23092534.5944
 -24148941.65948 -18761696.22846  19874414.3914                   19874416.5634
 -13979774.77148 -10844409.02545  22007096.6174                   22007097.7854
   1154401.48747    905839.62245  22032866.7194                   22032869.5354
 -16559153.94647 -12354432.58445  22396986.1884                   22396989.7664
  -1002952.03446   -723091.59943  24435345.8594                   24435353.7234
  -2649209.700 7  -2006169.154 7  21522014.719
 11  8  5 23 36  0.0000000  0  8G09G10G04G02G28G27G20G17
 -11104242.29147  -8400467.14145  22098048.8914                   22098052.0084
  -7987107.47847  -6176870.64244  23075159.7734                   23075165.0784
 -24149315.29148 -18761987.34946  19874343.1954                   19874345.6054
 -14052192.68348 -10900838.47245  21993315.5474                   21993317.0234
   1212798.27547    951343.59645  22043979.1334                   22043982.6094
 -16558705.43847 -12354083.09345  22397071.4304                   22397075.2974
   -955774.81246   -686330.06543  24444323.0864                   24444331.0554
  -2616859.059 7  -1980960.905 7  21528171.273
 11  8  5 23 36 30.0000000  0  8G09G10G04G02G28G27G20G17
 -11117009.19447  -8410415.39245  22095619.2194                   22095623.2774
  -8078256.13547  -6247895.42144  23057814.5164                   23057820.0944
 -24149130.38748 -18761843.23946  19874378.6254                   19874380.3054
 -14124290.83248 -10957018.76045  21979595.9614                   21979596.9774
   1271567.12847    997137.51445  22055162.1414                   22055165.4184
 -16557772.08047 -12353355.80945  22397248.9454                   22397252.6134
   -908127.91146   -649202.52543  24453389.3914                   24453397.8164
  -2584423.153 7  -1955686.223 7  21534343.430
 11  8  5 23 37  0.0000000  0  8G09G10G04G02G28G27G20G17
 -11129135.21447  -8419864.26445  22093311.4694                   22093315.8364
  -8169274.69147  -6318818.86844  23040493.8834                   23040499.7664
 -24148386.72148 -18761263.73246  19874519.8674                   19874522.1764
 -14196067.51248 -11012948.55845  21965936.5314                   21965938.1994
   1330708.74847   1043221.87745  22066416.6644                   22066419.4844
 -16556353.54947 -12352250.48945  22397519.3054                   22397522.7734
   -860011.63546   -611709.30943  24462544.9924                   24462554.1054
  -2551901.238 7  -1930344.515 7  21540532.180
 11  8  5 23 37 30.0000000  0  9G09G10G12G04G02G28G27G20G17
 -11140614.07847  -8428808.85445  22091127.6254                   22091131.5664
  -8260153.47746  -6389633.35144  23023200.3594                   23023205.8794
    319885.925 6    270705.926 6  24639986.344
 -24147079.06848 -18760244.75946  19874768.7274                   19874770.9264
 -14267515.43648 -11068622.16945  21952340.8284                   21952342.0044
   1390228.53647   1089600.94445  22077743.1644                   22077745.7774
 -16554444.10447 -12350762.62045  22397882.4454                   22397886.0474
   -811420.97546   -573846.45443  24471792.1954                   24471800.6994
  -2519287.099 7  -1904930.954 7  21546738.461
 11  8  5 23 38  0.0000000  0  9G09G10G12G04G02G28G27G20G17
 -11151460.58847  -8437260.67045  22089063.4224                   22089067.5704
  -8350904.00947  -6460347.92744  23005930.8054                   23005936.4884
    222975.011 6    195191.101 6  24621544.555
 -24145223.05548 -18758798.50246  19875122.0004                   19875124.2504
 -14338647.94748 -11124050.01045  21938804.6804                   21938806.0084
   1450112.17647   1136263.51045  22089138.4924                   22089141.0594
 -16552058.91647 -12348904.03845  22398336.2814                   22398339.9264
   -762371.29546   -535625.87643  24481125.9064                   24481134.8874
  -2486595.273 7  -1879456.860 7  21552960.016
 11  8  5 23 38 30.0000000  0  9G09G10G12G04G02G28G27G20G17
 -11161667.34247  -8445213.97745  22087121.2974                   22087125.7194
  -8441515.29646  -6530953.98444  22988687.8674                   22988693.6024
    126042.537 6    119659.526 6  24603098.180
 -24142812.32648 -18756919.99546  19875580.6884                   19875582.9804
 -14409457.01548 -11179225.82645  21925330.2274                   21925331.7304
   1510366.27947   1183214.75145  22100604.5314                   22100607.6564
 -16549191.28847 -12346669.55345  22398881.7504                   22398885.9304
   -712856.70546   -497043.14843  24490548.5944                   24490557.1764
  -2453818.836 7  -1853916.813 7  21559196.820
 11  8  5 23 39  0.0000000  0  9G09G10G12G04G02G28G27G20G17
 -11171234.19547  -8452668.65745  22085300.1804                   22085305.5124
  -8531983.55146  -6601448.60844  22971471.9384                   22971478.2344
     29090.726 6     44112.793 6  24584649.930
 -24139847.06948 -18754609.40046  19876145.0084                   19876147.2504
 -14479940.70648 -11234148.11045  21911917.2974                   21911918.4144
   1570991.21147   1230454.94645  22112141.3364                   22112144.2464
 -16545841.41547 -12344059.28445  22399519.5784                   22399523.3164
   -662878.00246   -458098.75543  24500059.5554                   24500068.0904
  -2420957.384 7  -1828310.545 7  21565450.266
 11  8  5 23 39 30.0000000  0  9G09G10G12G04G02G28G27G20G17
 -11180161.95047  -8459625.30545  22083601.2424                   22083606.2814
  -8622306.27347  -6671829.80744  22954284.5164                   22954289.9024
    -67879.541 6    -31448.314 5  24566196.430
 -24136329.01248 -18751868.04946  19876814.3134                   19876816.3754
 -14550098.63648 -11288816.53945  21898566.8444                   21898568.0554
   1631986.15047   1277983.45245  22123748.1564                   22123751.0204
 -16542010.51547 -12341074.19745  22400248.4534                   22400252.5124
   -612436.62246   -418793.80043  24509657.7584                   24509666.3754
  -2388011.358 8  -1802638.357 7  21571719.742
 11  8  5 23 40  0.0000000  0  9G09G10G12G04G02G28G27G20G17
 -11188450.30547  -8466083.75045  22082024.6094                   22082029.4884
  -8712479.94746  -6742094.87144  22937124.9844                   22937129.3634
   -164866.302 6   -107022.258 6  24547741.055
 -24132258.77648 -18748696.44046  19877589.1644                   19877590.8524
 -14619929.33348 -11343229.99945  21885278.6024                   21885279.8444
   1693350.85347   1325800.08745  22135425.1254                   22135427.9884
 -16537698.91047 -12337714.53345  22401069.6884                   22401072.8714
   -561533.73546   -379129.24743  24519344.1564                   24519352.7154
  -2354980.870 7  -1776900.334 7  21578005.125
 11  8  5 23 40 30.0000000  0  9G09G10G12G04G02G28G27G20G17
 -11196100.04447  -8472044.54345  22080568.6094                   22080573.8554
  -8802501.26847  -6812241.22344  22919994.1724                   22920000.0274
   -261867.861 6   -182607.712 6  24529282.289
 -24127637.56448 -18745095.49246  19878468.1414                   19878470.4694
 -14689432.19348 -11397388.01045  21872052.2344                   21872053.8094
   1755084.71247   1373904.36045  22147172.7584                   22147175.7304
 -16532907.52347 -12333981.01745  22401980.4924                   22401985.2344
   -510170.91946   -339106.29543  24529118.3914                   24529126.8794
  -2321866.237 7  -1751096.745 7  21584306.844
 11  8  5 23 41  0.0000000  0  9G09G10G12G04G02G28G27G20G17
 -11203111.09647  -8477507.64245  22079234.3674                   22079238.6174
  -8892366.78747  -6882266.17944  22902893.4534                   22902898.4924
   -358882.430 6   -258203.287 6  24510820.227
 -24122466.24448 -18741065.89546  19879452.1174                   19879454.5434
 -14758606.09048 -11451289.67345  21858889.2344                   21858890.2734
   1817187.20347   1422295.87445  22158990.2734                   22158993.5354
 -16527636.84247 -12329874.03045  22402983.9304                   22402987.9534
   -458349.25846   -298725.80043  24538978.7344                   24538987.5824
  -2288667.149 7  -1725227.337 7  21590624.398
 11  8  5 23 41 30.0000000  0  9G09G10G12G04G02G28G27G20G17
 -11209483.94047  -8482473.44045  22078021.8914                   22078025.6254
  -8982073.44147  -6952167.34144  22885822.6804                   22885828.0904
   -455908.658 6   -333807.902 6  24492356.648
 -24116746.15248 -18736608.68446  19880540.7034                   19880543.4494
 -14827450.01748 -11504934.23046  21845788.3204                   21845789.7544
   1879658.22947   1470974.54745  22170878.4144                   22170881.1174
 -16521887.52847 -12325394.06845  22404077.4454                   22404081.6054
   -406069.94046   -257988.66042  24548927.8674                   24548936.5204
  -2255383.855 7  -1699292.316 7  21596958.125
 11  8  5 23 42  0.0000000  0  9G09G10G12G04G02G28G27G20G17
 -11215218.77847  -8486942.07545  22076930.0164                   22076934.3874
  -9071617.61047  -7021941.89044  22868783.2894                   22868788.0204
   -552944.418 7   -409420.052 6  24473891.672
 -24110478.39648 -18731724.73146  19881733.5394                   19881735.8594
 -14895963.26048 -11558321.11546  21832750.9064                   21832751.6844
   1942497.26447   1519939.98845  22182836.2034                   22182839.7894
 -16515660.67347 -12320542.01345  22405263.0394                   22405266.4454
   -353334.56746   -216896.16642  24558963.3134                   24558972.0664
  -2222016.736 7  -1673291.961 7  21603307.688
 11  8  5 23 42 30.0000000  0  9G09G10G12G04G02G28G27G20G17
 -11220316.02347  -8490913.90545  22075959.9614                   22075964.5634
  -9160996.04947  -7091587.32244  22851774.4064                   22851779.1454
   -649987.893 7   -485038.193 6  24455425.211
 -24103663.65148 -18726414.55346  19883030.3984                   19883032.4534
 -14964144.32048 -11611449.13946  21819776.2894                   21819777.6994
   2005704.20447   1569192.09645  22194864.1254                   22194867.0044
 -16508956.48447 -12315317.99545  22406538.4144                   22406542.6374
   -300144.35846   -175449.23243  24569084.3054                   24569093.6524
  -2188565.471 7  -1647226.033 7  21609673.188
 11  8  5 23 43  0.0000000  0  9G09G10G12G04G02G28G27G20G17
 -11224764.26647  -8494380.02345  22075113.7894                   22075118.0474
  -9250193.40347  -7161091.63344  22834800.8984                   22834806.1914
   -747025.364 6   -560651.671 6  24436959.250
 -24096291.12948 -18720669.75146  19884433.4844                   19884435.4144
 -15031980.33948 -11664308.30346  21806867.1254                   21806868.8834
   2069290.32547   1618739.66345  22206964.4384                   22206967.7384
 -16501764.04147 -12309713.52145  22407907.1484                   22407910.9454
   -246488.47546   -133639.38143  24579294.7974                   24579303.7234
  -2155018.056 8  -1621085.183 7  21616056.945
 11  8  5 23 43 30.0000000  0  8G09G10G12G04G02G28G27G17
 -11228588.11847  -8497359.62745  22074386.3134                   22074390.2074
  -9339230.49847  -7230471.08544  22817857.6094                   22817862.8164
   -844079.963 6   -636278.507 6  24418489.688
 -24088386.45948 -18714510.27946  19885937.5474                   19885939.9104
 -15099494.76448 -11716916.87146  21794019.6884                   21794021.2424
   2133230.71947   1668563.27445  22219131.6724                   22219134.6214
 -16494108.37647 -12303748.09745  22409363.8054                   22409368.2034
  -2121398.953 8  -1594888.482 7  21622454.328
 11  8  5 23 44  0.0000000  0  8G09G10G12G04G02G28G27G17
 -11231775.46547  -8499843.22045  22073779.2504                   22073783.1214
  -9428091.67447  -7299713.47744  22800947.6884                   22800952.8484
   -941137.139 6   -711907.349 6  24400020.734
 -24079938.33848 -18707927.34346  19887544.9924                   19887547.0434
 -15166674.31648 -11769264.50946  21781235.7974                   21781237.0904
   2197537.34547   1718672.23145  22231369.3524                   22231372.1094
 -16485977.92747 -12297412.71045  22410910.9454                   22410915.2854
  -2087696.193 8  -1568626.602 7  21628867.977
 11  8  5 23 44 30.0000000  0  8G09G10G12G04G02G28G27G17
 -11234326.47447  -8501831.00245  22073294.4774                   22073298.3674
  -9516773.47047  -7368816.07044  22784072.5704                   22784077.5474
  -1038194.441 6   -787536.267 6  24381550.758
 -24070947.79548 -18700921.73646  19889255.9304                   19889258.0354
 -15233517.79248 -11821350.25446  21768515.8204                   21768517.2544
   2262209.97347   1769066.40245  22243676.0474                   22243678.9574
 -16477373.08747 -12290707.66545  22412548.6884                   22412552.6054
  -2053909.070 7  -1542298.972 7  21635297.641
 11  8  5 23 45  0.0000000  0  8G09G10G12G04G02G28G27G17
 -11236243.67747  -8503324.90045  22072929.3754                   22072932.9734
  -9605273.96647  -7437777.40044  22767230.8284                   22767236.5704
  -1135252.178 6   -863165.576 5  24363079.711
 -24061417.19348 -18693495.30046  19891069.7504                   19891071.8284
 -15300025.53248 -11873174.38746  21755860.1884                   21755861.1724
   2327246.83247   1819744.36045  22256052.1414                   22256055.6524
 -16468296.37548 -12283634.93045  22414276.4064                   22414279.9304
  -2020039.188 8  -1515906.851 7  21641742.453
 11  8  5 23 45 30.0000000  0  8G09G10G12G04G02G28G27G17
 -11237524.84647  -8504323.22245  22072686.1804                   22072689.2974
  -9693587.34047  -7506592.91744  22750425.2734                   22750430.1094
  -1232305.746 6   -938791.636 5  24344611.656
 -24051345.38948 -18685647.14646  19892986.4534                   19892988.4574
 -15366194.36148 -11924734.44146  21743268.4924                   21743269.1454
   2392649.68847   1870707.51545  22268497.9924                   22268501.0274
 -16458746.11047 -12276193.18845  22416093.2734                   22416097.3794
  -1986083.904 7  -1489448.201 7  21648203.805
 11  8  5 23 46  0.0000000  0  8G09G10G12G04G02G28G27G17
 -11238173.24847  -8504828.47245  22072562.2504                   22072565.8674
  -9781713.23247  -7575262.33744  22733655.7584                   22733660.8674
  -1329356.388 6  -1014415.403 5  24326143.242
 -24040736.49548 -18677380.48846  19895005.4454                   19895007.2074
 -15432026.31648 -11976031.99046  21730741.0164                   21730741.7544
   2458415.21347   1921953.24245  22281012.5164                   22281016.0704
 -16448726.16847 -12268385.48445  22418000.3284                   22418003.9414
  -1952046.467 8  -1462925.537 7  21654681.125
 11  8  5 23 46 30.0000000  0  8G09G10G12G04G02G28G27G17
 -11238188.08247  -8504840.03945  22072559.5634                   22072562.7464
  -9869646.53146  -7643781.67044  22716921.9614                   22716927.8984
  -1426400.475 6  -1090034.069 6  24307676.789
 -24029590.30748 -18668695.13846  19897126.2504                   19897128.4774
 -15497518.65348 -12027064.91346  21718278.1644                   21718279.1804
   2524544.32847   1973482.29345  22293596.1804                   22293600.3954
 -16438235.88247 -12260211.25445  22419996.1484                   22420000.2774
  -1917925.334 7  -1436337.630 7  21661174.164
 11  8  5 23 47  0.0000000  0  8G09G10G12G04G02G28G27G17
 -11237570.75547  -8504359.02645  22072676.6094                   22072680.1484
  -9957384.81947  -7712149.04945  22700226.3984                   22700231.0864
  -1523436.679 6  -1165646.505 6  24289211.148
 -24017908.93948 -18659592.77346  19899349.2504                   19899351.2624
 -15562671.35448 -12077833.16846  21705879.8674                   21705880.5864
   2591035.73347   2025293.63545  22306249.8594                   22306252.9964
 -16427276.75247 -12251671.70145  22422081.4304                   22422085.4804
  -1883721.070 8  -1409684.955 7  21667683.133
 11  8  5 23 47 30.0000000  0  8G09G10G12G04G02G28G27G17
 -11236321.44947  -8503385.56045  22072914.3054                   22072918.4884
 -10044924.20947  -7780361.45444  22683568.4064                   22683573.1914
  -1620463.480 6  -1241251.595 6  24270748.297
 -24005693.08348 -18650073.92246  19901673.7974                   19901675.8244
 -15627483.21948 -12128335.84446  21693546.3914                   21693547.6804
   2657889.15047   2077387.06145  22318971.7274                   22318975.0514
 -16415849.44347 -12242767.34445  22424256.1094                   22424260.3054
  -1849433.292 7  -1382967.205 7  21674207.789
 11  8  5 23 48  0.0000000  0  8G09G10G12G04G02G28G27G17
 -11234440.99347  -8501920.31445  22073272.4534                   22073275.8714
 -10132261.50547  -7848416.38944  22666948.3594                   22666953.0824
  -1717478.598 7  -1316847.593 6  24252287.336
 -23992944.04748 -18640139.60846  19904099.9144                   19904101.9344
 -15691953.22448 -12178572.13546  21681278.4384                   21681279.2624
   2725104.17547   2129762.23845  22331762.8054                   22331765.4024
 -16403954.83047 -12233498.84545  22426520.1804                   22426523.9304
  -1815061.705 7  -1356184.153 7  21680748.391
 11  8  5 23 48 30.0000000  0  8G09G10G12G04G02G28G27G17
 -11231930.46947  -8499964.08844  22073750.0864                   22073753.1724
 -10219393.72847  -7916311.51244  22650367.0314                   22650372.7624
  -1814480.475 7  -1392433.216 6  24233828.102
 -23979663.62948 -18629791.22446  19906626.7034                   19906629.0634
 -15756081.36848 -12228542.03546  21669075.3984                   21669076.0474
   2792679.65847   2182418.31544  22344622.0784                   22344624.9344
 -16391594.35148 -12223867.33445  22428872.0004                   22428876.0394
  -1780606.924 7  -1329336.281 7  21687305.102
 11  8  5 23 49  0.0000000  0  8G09G10G12G04G02G28G27G17
 -11228790.17747  -8497517.14045  22074348.3444                   22074350.9264
 -10306317.05347  -7984043.86344  22633826.6414                   22633831.6254
  -1911467.005 7  -1468006.861 7  24215371.734
 -23965852.79848 -18619029.53846  19909254.8984                   19909257.2624
 -15819866.25648 -12278244.47546  21656937.3204                   21656937.6914
   2860615.42247   2235355.11944  22357549.6954                   22357553.3404
 -16378768.86847 -12213873.47745  22431312.8524                   22431316.6724
  -1746068.795 7  -1302423.460 7  21693877.281
 11  8  5 23 49 30.0000000  0  8G09G10G12G04G02G28G27G17
 -11225019.81947  -8494579.23345  22075065.3914                   22075069.0164
 -10393026.94847  -8051609.90044  22617326.4844                   22617330.7504
  -2008435.193 7  -1543566.236 6  24196919.305
 -23951511.65248 -18607854.62846  19911984.1024                   19911986.3054
 -15883305.67948 -12327677.71446  21644864.9304                   21644865.9224
   2928911.75647   2288572.88045  22370546.0084                   22370549.9104
 -16365477.88747 -12203516.89545  22433842.1414                   22433846.1524
  -1711445.652 7  -1275444.383 7  21700465.844
 11  8  5 23 50  0.0000000  0  8G09G10G12G04G02G28G27G17
 -11220622.88947  -8491153.07545  22075901.8134                   22075905.8914
 -10479522.67847  -8119009.07544  22600866.1334                   22600870.3914
  -2105385.701 7  -1619111.833 6  24178470.289
 -23936644.22748 -18596269.61946  19914813.0784                   19914815.1454
 -15946401.28948 -12376843.04546  21632858.2424                   21632858.9964
   2997565.85847   2342069.44344  22383610.6334                   22383613.7624
 -16351725.27747 -12192800.59845  22436458.5394                   22436462.9574
  -1676740.396 8  -1248401.349 7  21707069.961
 11  8  5 23 50 30.0000000  0  8G09G10G12G04G02G28G27G17
 -11215597.50847  -8487237.23245  22076858.0634                   22076861.8404
 -10565798.40847  -8186236.79644  22584448.8834                   22584452.7854
  -2202314.374 6  -1694640.367 6  24160024.086
 -23921249.48848 -18584273.71646  19917742.6484                   19917744.9454
 -16009150.25948 -12425738.26746  21620917.4844                   21620918.4774
   3066579.36347   2395846.07145  22396743.3984                   22396746.7934
 -16337509.64747 -12181723.50245  22439164.0474                   22439168.6914
  -1641950.469 8  -1221292.326 7  21713690.461
 11  8  5 23 51  0.0000000  0  8G09G10G12G04G02G28G27G17
 -11209946.28747  -8482833.68745  22077933.4924                   22077937.4384
 -10651851.87947  -8253291.34144  22568072.8204                   22568077.5434
  -2299220.321 6  -1770151.216 6  24141583.281
 -23905330.20048 -18571869.06846  19920771.9534                   19920774.4804
 -16071552.96348 -12474363.66946  21609042.5784                   21609043.0634
   3135950.30547   2449901.20245  22409944.8204                   22409948.2424
 -16322833.35047 -12170287.45145  22441956.6644                   22441960.6374
  -1607076.893 8  -1194118.147 7  21720326.922
 11  8  5 23 51 30.0000000  0  8G09G10G12G04G02G28G27G17
 -11203670.25347  -8477943.27645  22079128.0474                   22079131.9414
 -10737680.31147  -8320170.51244  22551740.4384                   22551744.8754
  -2396101.918 6  -1845643.077 6  24123146.961
 -23888887.83148 -18559056.83246  19923900.8054                   19923903.1174
 -16133608.77048 -12522718.76146  21597233.5864                   21597234.5204
   3205677.69047   2504234.08644  22423213.2974                   22423216.7584
 -16307697.91847 -12158493.62545  22444837.0234                   22444840.4144
  -1572119.882 8  -1166878.936 7  21726978.883
 11  8  5 23 52  0.0000000  0  8G09G10G12G04G02G28G27G17
 -11196769.45447  -8472566.01345  22080441.2034                   22080444.8674
 -10823279.50847  -8386871.07444  22535450.8444                   22535455.7504
  -2492956.467 7  -1921113.876 6  24104716.273
 -23871923.27248 -18545837.67746  19927128.8674                   19927131.2384
 -16195316.29448 -12570802.46746  21585490.5634                   21585491.6214
   3275761.35847   2558844.63244  22436550.1334                   22436553.7544
 -16292103.53747 -12146342.17845  22447804.7034                   22447808.2464
  -1537078.553 7  -1139574.033 7  21733647.117
 11  8  5 23 52 30.0000000  0  8G09G10G12G04G02G28G27G17
 -11189244.52147  -8466702.44145  22081873.2814                   22081877.0554
 -10908645.48847  -8453389.90344  22519206.6024                   22519211.0314
  -2589781.553 7  -1996561.784 6  24086290.414
 -23854437.46148 -18532212.34946  19930456.3834                   19930458.7194
 -16256674.44048 -12618613.92946  21573814.6334                   21573815.8914
   3346201.17047   2613732.67544  22449954.5704                   22449958.0434
 -16276050.80847 -12133833.58045  22450859.4304                   22450862.7424
  -1501952.415 8  -1112203.052 7  21740331.203
 11  8  5 23 53  0.0000000  0  8G09G10G12G04G02G28G27G17
 -11181098.39147  -8460354.77445  22083423.3674                   22083427.3054
 -10993777.15347  -8519726.14644  22503006.6414                   22503010.3484
  -2686577.640 7  -2071987.126 6  24067872.047
 -23836434.27548 -18518183.88546  19933882.2974                   19933884.5004
 -16317684.38448 -12666154.06146  21562205.0554                   21562205.5234
   3416994.28147   2668896.03745  22463425.6804                   22463429.7544
 -16259543.29547 -12120970.59345  22454000.6334                   22454004.8164
  -1466743.409 8  -1084767.491 7  21747031.148
 11  8  5 23 53 30.0000000  0  8G09G10G12G04G02G28G27G17
 -11172330.73947  -8453522.80545  22085091.7814                   22085095.0824
 -11078670.11447  -8585876.37845  22486851.8524                   22486855.8954
  -2783341.153 7  -2147387.051 6  24049458.219
 -23817913.71348 -18503752.25646  19937406.6884                   19937409.0704
 -16378344.19348 -12713421.36346  21550661.7974                   21550662.2274
   3488141.20447   2724335.12244  22476964.3204                   22476968.4264
 -16242580.72347 -12107753.03045  22457228.6484                   22457232.5394
  -1431450.360 8  -1057266.431 7  21753747.242
 11  8  5 23 54  0.0000000  0  8G09G10G12G04G02G28G27G17
 -11162942.26947  -8446207.11945  22086878.4534                   22086882.2194
 -11163320.11947  -8651837.29944  22470742.6884                   22470747.9774
  -2880069.752 7  -2222759.927 5  24031050.211
 -23798876.84048 -18488918.31046  19941029.2894                   19941031.3914
 -16438652.57448 -12760414.83846  21539184.7504                   21539186.2034
   3559641.70447   2780049.69444  22490571.2664                   22490574.3834
 -16225163.78347 -12094181.39245  22460542.8524                   22460546.7974
  -1396072.682 8  -1029699.413 7  21760479.500
 11  8  5 23 54 30.0000000  0  8G09G10G12G04G02G28G27G17
 -11152934.55447  -8438408.86445  22088782.6414                   22088785.6844
 -11247724.32747  -8717606.69944  22454681.5944                   22454685.5904
  -2976761.796 7  -2298104.312 5  24012650.289
 -23779325.22748 -18473683.26946  19944749.9454                   19944751.8954
 -16498609.05248 -12807134.08946  21527775.6564                   21527776.7034
   3631494.49447   2836038.81344  22504244.0314                   22504247.6604
 -16207293.91147 -12080256.85045  22463943.7114                   22463947.5594
  -1360610.549 8  -1002066.590 7  21767227.703
